<?xml version="1.0" encoding="UTF-8" standalone="no" ?>
<gpx xmlns="http://www.topografix.com/GPX/1/1" xmlns:xsi="http://www.w3.org/2001/XMLSchema-instance" xsi:schemaLocation="http://www.topografix.com/GPX/1/1 http://www.topografix.com/GPX/1/1/gpx.xsd" version="1.1" creator="VisuGPX - https://www.visugpx.com">
  <metadata>
    <name>Mercredi 1er Juillet 26-StJean-Zelaï-Itxassou</name>
  </metadata>
  <trk>
    <name><![CDATA[mercredi_1er_juillet_2026-]]></name>
    <extensions>
      <line xmlns="http://www.topografix.com/GPX/gpx_style/0/2">
        <width>7</width>
      </line>
    </extensions>
    <trkseg>
      <trkpt lat="43.38662" lon="-1.65636">
        <ele>6</ele>
        <time>2026-06-28T16:51:38.000Z</time>
      </trkpt>
      <trkpt lat="43.38666" lon="-1.65635">
        <ele>6</ele>
        <time>2026-06-28T16:51:39.000Z</time>
      </trkpt>
      <trkpt lat="43.3867" lon="-1.65628">
        <ele>6</ele>
        <time>2026-06-28T16:51:40.000Z</time>
      </trkpt>
      <trkpt lat="43.38669" lon="-1.65621">
        <ele>6</ele>
        <time>2026-06-28T16:51:41.000Z</time>
      </trkpt>
      <trkpt lat="43.38663" lon="-1.65621">
        <ele>5</ele>
        <time>2026-06-28T16:51:42.000Z</time>
      </trkpt>
      <trkpt lat="43.38657" lon="-1.65616">
        <ele>5</ele>
        <time>2026-06-28T16:51:43.000Z</time>
      </trkpt>
      <trkpt lat="43.38628" lon="-1.65575">
        <ele>5</ele>
        <time>2026-06-28T16:51:51.000Z</time>
      </trkpt>
      <trkpt lat="43.38621" lon="-1.65573">
        <ele>4</ele>
        <time>2026-06-28T16:51:52.000Z</time>
      </trkpt>
      <trkpt lat="43.38615" lon="-1.65576">
        <ele>4</ele>
        <time>2026-06-28T16:51:53.000Z</time>
      </trkpt>
      <trkpt lat="43.3857" lon="-1.65638">
        <ele>4</ele>
        <time>2026-06-28T16:52:04.000Z</time>
      </trkpt>
      <trkpt lat="43.38525" lon="-1.65692">
        <ele>3</ele>
        <time>2026-06-28T16:52:15.000Z</time>
      </trkpt>
      <trkpt lat="43.38458" lon="-1.65786">
        <ele>4</ele>
        <time>2026-06-28T16:52:32.000Z</time>
      </trkpt>
      <trkpt lat="43.38439" lon="-1.65804">
        <ele>4</ele>
        <time>2026-06-28T16:52:36.000Z</time>
      </trkpt>
      <trkpt lat="43.38405" lon="-1.65853">
        <ele>4</ele>
        <time>2026-06-28T16:52:45.000Z</time>
      </trkpt>
      <trkpt lat="43.38359" lon="-1.65911">
        <ele>5</ele>
        <time>2026-06-28T16:52:56.000Z</time>
      </trkpt>
      <trkpt lat="43.38344" lon="-1.65937">
        <ele>6</ele>
        <time>2026-06-28T16:53:00.000Z</time>
      </trkpt>
      <trkpt lat="43.38336" lon="-1.65938">
        <ele>6</ele>
        <time>2026-06-28T16:53:02.000Z</time>
      </trkpt>
      <trkpt lat="43.3833" lon="-1.65934">
        <ele>6</ele>
        <time>2026-06-28T16:53:03.000Z</time>
      </trkpt>
      <trkpt lat="43.38315" lon="-1.6591">
        <ele>5</ele>
        <time>2026-06-28T16:53:07.000Z</time>
      </trkpt>
      <trkpt lat="43.38297" lon="-1.65896">
        <ele>4</ele>
        <time>2026-06-28T16:53:11.000Z</time>
      </trkpt>
      <trkpt lat="43.38272" lon="-1.65913">
        <ele>2</ele>
        <time>2026-06-28T16:53:16.000Z</time>
      </trkpt>
      <trkpt lat="43.38263" lon="-1.65926">
        <ele>2</ele>
        <time>2026-06-28T16:53:18.000Z</time>
      </trkpt>
      <trkpt lat="43.3827" lon="-1.65914">
        <ele>2</ele>
        <time>2026-06-28T16:53:20.000Z</time>
      </trkpt>
      <trkpt lat="43.38281" lon="-1.65908">
        <ele>3</ele>
        <time>2026-06-28T16:53:22.000Z</time>
      </trkpt>
      <trkpt lat="43.38296" lon="-1.65895">
        <ele>4</ele>
        <time>2026-06-28T16:53:25.000Z</time>
      </trkpt>
      <trkpt lat="43.38232" lon="-1.65728">
        <ele>3</ele>
        <time>2026-06-28T16:53:49.000Z</time>
      </trkpt>
      <trkpt lat="43.38226" lon="-1.65707">
        <ele>3</ele>
        <time>2026-06-28T16:53:52.000Z</time>
      </trkpt>
      <trkpt lat="43.38224" lon="-1.65686">
        <ele>3</ele>
        <time>2026-06-28T16:53:55.000Z</time>
      </trkpt>
      <trkpt lat="43.38226" lon="-1.65675">
        <ele>3</ele>
        <time>2026-06-28T16:53:57.000Z</time>
      </trkpt>
      <trkpt lat="43.38261" lon="-1.65624">
        <ele>3</ele>
        <time>2026-06-28T16:54:06.000Z</time>
      </trkpt>
      <trkpt lat="43.38274" lon="-1.65613">
        <ele>3</ele>
        <time>2026-06-28T16:54:08.000Z</time>
      </trkpt>
      <trkpt lat="43.38341" lon="-1.6552">
        <ele>4</ele>
        <time>2026-06-28T16:54:25.000Z</time>
      </trkpt>
      <trkpt lat="43.38343" lon="-1.65511">
        <ele>4</ele>
        <time>2026-06-28T16:54:27.000Z</time>
      </trkpt>
      <trkpt lat="43.38339" lon="-1.65502">
        <ele>4</ele>
        <time>2026-06-28T16:54:28.000Z</time>
      </trkpt>
      <trkpt lat="43.3832" lon="-1.65476">
        <ele>4</ele>
        <time>2026-06-28T16:54:33.000Z</time>
      </trkpt>
      <trkpt lat="43.38317" lon="-1.65458">
        <ele>4</ele>
        <time>2026-06-28T16:54:35.000Z</time>
      </trkpt>
      <trkpt lat="43.38321" lon="-1.65447">
        <ele>4</ele>
        <time>2026-06-28T16:54:37.000Z</time>
      </trkpt>
      <trkpt lat="43.3834" lon="-1.6542">
        <ele>5</ele>
        <time>2026-06-28T16:54:42.000Z</time>
      </trkpt>
      <trkpt lat="43.38383" lon="-1.65331">
        <ele>6</ele>
        <time>2026-06-28T16:54:55.000Z</time>
      </trkpt>
      <trkpt lat="43.38387" lon="-1.6532">
        <ele>7</ele>
        <time>2026-06-28T16:54:57.000Z</time>
      </trkpt>
      <trkpt lat="43.38389" lon="-1.65301">
        <ele>9</ele>
        <time>2026-06-28T16:54:59.000Z</time>
      </trkpt>
      <trkpt lat="43.38382" lon="-1.65279">
        <ele>11</ele>
        <time>2026-06-28T16:55:03.000Z</time>
      </trkpt>
      <trkpt lat="43.38353" lon="-1.65242">
        <ele>12</ele>
        <time>2026-06-28T16:55:10.000Z</time>
      </trkpt>
      <trkpt lat="43.38325" lon="-1.6519">
        <ele>11</ele>
        <time>2026-06-28T16:55:18.000Z</time>
      </trkpt>
      <trkpt lat="43.38322" lon="-1.65164">
        <ele>11</ele>
        <time>2026-06-28T16:55:21.000Z</time>
      </trkpt>
      <trkpt lat="43.38278" lon="-1.65044">
        <ele>9</ele>
        <time>2026-06-28T16:55:39.000Z</time>
      </trkpt>
      <trkpt lat="43.38264" lon="-1.65037">
        <ele>8</ele>
        <time>2026-06-28T16:55:41.000Z</time>
      </trkpt>
      <trkpt lat="43.38259" lon="-1.65028">
        <ele>7</ele>
        <time>2026-06-28T16:55:43.000Z</time>
      </trkpt>
      <trkpt lat="43.38258" lon="-1.65018">
        <ele>7</ele>
        <time>2026-06-28T16:55:44.000Z</time>
      </trkpt>
      <trkpt lat="43.38262" lon="-1.65007">
        <ele>8</ele>
        <time>2026-06-28T16:55:46.000Z</time>
      </trkpt>
      <trkpt lat="43.38261" lon="-1.64995">
        <ele>8</ele>
        <time>2026-06-28T16:55:47.000Z</time>
      </trkpt>
      <trkpt lat="43.3825" lon="-1.64957">
        <ele>8</ele>
        <time>2026-06-28T16:55:53.000Z</time>
      </trkpt>
      <trkpt lat="43.38246" lon="-1.64912">
        <ele>8</ele>
        <time>2026-06-28T16:55:58.000Z</time>
      </trkpt>
      <trkpt lat="43.38273" lon="-1.64635">
        <ele>7</ele>
        <time>2026-06-28T16:56:35.000Z</time>
      </trkpt>
      <trkpt lat="43.38275" lon="-1.64556">
        <ele>8</ele>
        <time>2026-06-28T16:56:45.000Z</time>
      </trkpt>
      <trkpt lat="43.38273" lon="-1.6447">
        <ele>9</ele>
        <time>2026-06-28T16:56:56.000Z</time>
      </trkpt>
      <trkpt lat="43.38269" lon="-1.64435">
        <ele>8</ele>
        <time>2026-06-28T16:57:01.000Z</time>
      </trkpt>
      <trkpt lat="43.38256" lon="-1.64373">
        <ele>6</ele>
        <time>2026-06-28T16:57:09.000Z</time>
      </trkpt>
      <trkpt lat="43.38241" lon="-1.64334">
        <ele>5</ele>
        <time>2026-06-28T16:57:15.000Z</time>
      </trkpt>
      <trkpt lat="43.3822" lon="-1.643">
        <ele>5</ele>
        <time>2026-06-28T16:57:20.000Z</time>
      </trkpt>
      <trkpt lat="43.38199" lon="-1.64277">
        <ele>5</ele>
        <time>2026-06-28T16:57:25.000Z</time>
      </trkpt>
      <trkpt lat="43.38128" lon="-1.6421">
        <ele>6</ele>
        <time>2026-06-28T16:57:40.000Z</time>
      </trkpt>
      <trkpt lat="43.38116" lon="-1.64194">
        <ele>6</ele>
        <time>2026-06-28T16:57:43.000Z</time>
      </trkpt>
      <trkpt lat="43.38066" lon="-1.64082">
        <ele>8</ele>
        <time>2026-06-28T16:58:00.000Z</time>
      </trkpt>
      <trkpt lat="43.38048" lon="-1.64054">
        <ele>9</ele>
        <time>2026-06-28T16:58:05.000Z</time>
      </trkpt>
      <trkpt lat="43.37897" lon="-1.63913">
        <ele>6</ele>
        <time>2026-06-28T16:58:38.000Z</time>
      </trkpt>
      <trkpt lat="43.37786" lon="-1.63799">
        <ele>8</ele>
        <time>2026-06-28T16:59:02.000Z</time>
      </trkpt>
      <trkpt lat="43.37772" lon="-1.63787">
        <ele>8</ele>
        <time>2026-06-28T16:59:05.000Z</time>
      </trkpt>
      <trkpt lat="43.37761" lon="-1.63781">
        <ele>8</ele>
        <time>2026-06-28T16:59:07.000Z</time>
      </trkpt>
      <trkpt lat="43.37728" lon="-1.63778">
        <ele>8</ele>
        <time>2026-06-28T16:59:13.000Z</time>
      </trkpt>
      <trkpt lat="43.37636" lon="-1.63785">
        <ele>6</ele>
        <time>2026-06-28T16:59:30.000Z</time>
      </trkpt>
      <trkpt lat="43.37614" lon="-1.638">
        <ele>5</ele>
        <time>2026-06-28T16:59:34.000Z</time>
      </trkpt>
      <trkpt lat="43.37557" lon="-1.63804">
        <ele>5</ele>
        <time>2026-06-28T16:59:44.000Z</time>
      </trkpt>
      <trkpt lat="43.37548" lon="-1.63807">
        <ele>5</ele>
        <time>2026-06-28T16:59:46.000Z</time>
      </trkpt>
      <trkpt lat="43.37534" lon="-1.63819">
        <ele>4</ele>
        <time>2026-06-28T16:59:49.000Z</time>
      </trkpt>
      <trkpt lat="43.37517" lon="-1.63816">
        <ele>4</ele>
        <time>2026-06-28T16:59:52.000Z</time>
      </trkpt>
      <trkpt lat="43.37509" lon="-1.63805">
        <ele>4</ele>
        <time>2026-06-28T16:59:54.000Z</time>
      </trkpt>
      <trkpt lat="43.37502" lon="-1.63801">
        <ele>4</ele>
        <time>2026-06-28T16:59:55.000Z</time>
      </trkpt>
      <trkpt lat="43.37446" lon="-1.638">
        <ele>4</ele>
        <time>2026-06-28T17:00:05.000Z</time>
      </trkpt>
      <trkpt lat="43.374" lon="-1.63795">
        <ele>4</ele>
        <time>2026-06-28T17:00:13.000Z</time>
      </trkpt>
      <trkpt lat="43.37208" lon="-1.63809">
        <ele>4</ele>
        <time>2026-06-28T17:00:48.000Z</time>
      </trkpt>
      <trkpt lat="43.37116" lon="-1.63813">
        <ele>5</ele>
        <time>2026-06-28T17:01:04.000Z</time>
      </trkpt>
      <trkpt lat="43.37072" lon="-1.63812">
        <ele>5</ele>
        <time>2026-06-28T17:01:12.000Z</time>
      </trkpt>
      <trkpt lat="43.37058" lon="-1.63806">
        <ele>5</ele>
        <time>2026-06-28T17:01:14.000Z</time>
      </trkpt>
      <trkpt lat="43.37026" lon="-1.63777">
        <ele>5</ele>
        <time>2026-06-28T17:01:21.000Z</time>
      </trkpt>
      <trkpt lat="43.36769" lon="-1.63611">
        <ele>6</ele>
        <time>2026-06-28T17:02:12.000Z</time>
      </trkpt>
      <trkpt lat="43.36723" lon="-1.6359">
        <ele>7</ele>
        <time>2026-06-28T17:02:20.000Z</time>
      </trkpt>
      <trkpt lat="43.36678" lon="-1.63581">
        <ele>8</ele>
        <time>2026-06-28T17:02:28.000Z</time>
      </trkpt>
      <trkpt lat="43.36643" lon="-1.63581">
        <ele>7</ele>
        <time>2026-06-28T17:02:35.000Z</time>
      </trkpt>
      <trkpt lat="43.36615" lon="-1.63586">
        <ele>6</ele>
        <time>2026-06-28T17:02:40.000Z</time>
      </trkpt>
      <trkpt lat="43.36461" lon="-1.63637">
        <ele>5</ele>
        <time>2026-06-28T17:03:08.000Z</time>
      </trkpt>
      <trkpt lat="43.36397" lon="-1.63662">
        <ele>7</ele>
        <time>2026-06-28T17:03:20.000Z</time>
      </trkpt>
      <trkpt lat="43.36323" lon="-1.63678">
        <ele>7</ele>
        <time>2026-06-28T17:03:33.000Z</time>
      </trkpt>
      <trkpt lat="43.36273" lon="-1.63675">
        <ele>6</ele>
        <time>2026-06-28T17:03:42.000Z</time>
      </trkpt>
      <trkpt lat="43.36229" lon="-1.63662">
        <ele>6</ele>
        <time>2026-06-28T17:03:50.000Z</time>
      </trkpt>
      <trkpt lat="43.36211" lon="-1.63656">
        <ele>6</ele>
        <time>2026-06-28T17:03:53.000Z</time>
      </trkpt>
      <trkpt lat="43.36182" lon="-1.6364">
        <ele>6</ele>
        <time>2026-06-28T17:03:59.000Z</time>
      </trkpt>
      <trkpt lat="43.36104" lon="-1.6361">
        <ele>5</ele>
        <time>2026-06-28T17:04:13.000Z</time>
      </trkpt>
      <trkpt lat="43.3607" lon="-1.63587">
        <ele>5</ele>
        <time>2026-06-28T17:04:20.000Z</time>
      </trkpt>
      <trkpt lat="43.3604" lon="-1.63553">
        <ele>6</ele>
        <time>2026-06-28T17:04:27.000Z</time>
      </trkpt>
      <trkpt lat="43.36022" lon="-1.6352">
        <ele>6</ele>
        <time>2026-06-28T17:04:32.000Z</time>
      </trkpt>
      <trkpt lat="43.35987" lon="-1.6344">
        <ele>8</ele>
        <time>2026-06-28T17:04:44.000Z</time>
      </trkpt>
      <trkpt lat="43.35923" lon="-1.63346">
        <ele>8</ele>
        <time>2026-06-28T17:05:01.000Z</time>
      </trkpt>
      <trkpt lat="43.35815" lon="-1.63242">
        <ele>8</ele>
        <time>2026-06-28T17:05:24.000Z</time>
      </trkpt>
      <trkpt lat="43.35778" lon="-1.63212">
        <ele>8</ele>
        <time>2026-06-28T17:05:32.000Z</time>
      </trkpt>
      <trkpt lat="43.35743" lon="-1.63192">
        <ele>7</ele>
        <time>2026-06-28T17:05:39.000Z</time>
      </trkpt>
      <trkpt lat="43.35701" lon="-1.63174">
        <ele>6</ele>
        <time>2026-06-28T17:05:47.000Z</time>
      </trkpt>
      <trkpt lat="43.35675" lon="-1.63167">
        <ele>6</ele>
        <time>2026-06-28T17:05:51.000Z</time>
      </trkpt>
      <trkpt lat="43.35656" lon="-1.63167">
        <ele>6</ele>
        <time>2026-06-28T17:05:55.000Z</time>
      </trkpt>
      <trkpt lat="43.35642" lon="-1.63158">
        <ele>6</ele>
        <time>2026-06-28T17:05:57.000Z</time>
      </trkpt>
      <trkpt lat="43.35588" lon="-1.63145">
        <ele>5</ele>
        <time>2026-06-28T17:06:07.000Z</time>
      </trkpt>
      <trkpt lat="43.35414" lon="-1.63089">
        <ele>7</ele>
        <time>2026-06-28T17:06:39.000Z</time>
      </trkpt>
      <trkpt lat="43.35384" lon="-1.63073">
        <ele>7</ele>
        <time>2026-06-28T17:06:45.000Z</time>
      </trkpt>
      <trkpt lat="43.35358" lon="-1.63055">
        <ele>7</ele>
        <time>2026-06-28T17:06:50.000Z</time>
      </trkpt>
      <trkpt lat="43.35315" lon="-1.63012">
        <ele>6</ele>
        <time>2026-06-28T17:06:59.000Z</time>
      </trkpt>
      <trkpt lat="43.3529" lon="-1.62977">
        <ele>6</ele>
        <time>2026-06-28T17:07:06.000Z</time>
      </trkpt>
      <trkpt lat="43.35257" lon="-1.62909">
        <ele>6</ele>
        <time>2026-06-28T17:07:16.000Z</time>
      </trkpt>
      <trkpt lat="43.35217" lon="-1.62794">
        <ele>8</ele>
        <time>2026-06-28T17:07:33.000Z</time>
      </trkpt>
      <trkpt lat="43.35209" lon="-1.62765">
        <ele>8</ele>
        <time>2026-06-28T17:07:37.000Z</time>
      </trkpt>
      <trkpt lat="43.35116" lon="-1.62528">
        <ele>11</ele>
        <time>2026-06-28T17:08:12.000Z</time>
      </trkpt>
      <trkpt lat="43.35107" lon="-1.62498">
        <ele>11</ele>
        <time>2026-06-28T17:08:16.000Z</time>
      </trkpt>
      <trkpt lat="43.35103" lon="-1.62475">
        <ele>10</ele>
        <time>2026-06-28T17:08:19.000Z</time>
      </trkpt>
      <trkpt lat="43.351" lon="-1.62412">
        <ele>10</ele>
        <time>2026-06-28T17:08:27.000Z</time>
      </trkpt>
      <trkpt lat="43.35105" lon="-1.62342">
        <ele>10</ele>
        <time>2026-06-28T17:08:36.000Z</time>
      </trkpt>
      <trkpt lat="43.35113" lon="-1.62311">
        <ele>10</ele>
        <time>2026-06-28T17:08:40.000Z</time>
      </trkpt>
      <trkpt lat="43.35176" lon="-1.62189">
        <ele>10</ele>
        <time>2026-06-28T17:09:00.000Z</time>
      </trkpt>
      <trkpt lat="43.35197" lon="-1.62156">
        <ele>11</ele>
        <time>2026-06-28T17:09:05.000Z</time>
      </trkpt>
      <trkpt lat="43.35218" lon="-1.62135">
        <ele>12</ele>
        <time>2026-06-28T17:09:10.000Z</time>
      </trkpt>
      <trkpt lat="43.35247" lon="-1.62118">
        <ele>13</ele>
        <time>2026-06-28T17:09:16.000Z</time>
      </trkpt>
      <trkpt lat="43.35427" lon="-1.62043">
        <ele>20</ele>
        <time>2026-06-28T17:09:49.000Z</time>
      </trkpt>
      <trkpt lat="43.35451" lon="-1.62026">
        <ele>19</ele>
        <time>2026-06-28T17:09:54.000Z</time>
      </trkpt>
      <trkpt lat="43.35483" lon="-1.61998">
        <ele>17</ele>
        <time>2026-06-28T17:10:01.000Z</time>
      </trkpt>
      <trkpt lat="43.35503" lon="-1.61973">
        <ele>17</ele>
        <time>2026-06-28T17:10:06.000Z</time>
      </trkpt>
      <trkpt lat="43.35546" lon="-1.61911">
        <ele>17</ele>
        <time>2026-06-28T17:10:17.000Z</time>
      </trkpt>
      <trkpt lat="43.35795" lon="-1.61522">
        <ele>13</ele>
        <time>2026-06-28T17:11:24.000Z</time>
      </trkpt>
      <trkpt lat="43.35827" lon="-1.61486">
        <ele>12</ele>
        <time>2026-06-28T17:11:31.000Z</time>
      </trkpt>
      <trkpt lat="43.35898" lon="-1.61426">
        <ele>16</ele>
        <time>2026-06-28T17:11:46.000Z</time>
      </trkpt>
      <trkpt lat="43.35902" lon="-1.6142">
        <ele>15</ele>
        <time>2026-06-28T17:11:47.000Z</time>
      </trkpt>
      <trkpt lat="43.3589" lon="-1.61391">
        <ele>13</ele>
        <time>2026-06-28T17:11:51.000Z</time>
      </trkpt>
      <trkpt lat="43.35895" lon="-1.61405">
        <ele>13</ele>
        <time>2026-06-28T17:11:53.000Z</time>
      </trkpt>
      <trkpt lat="43.35906" lon="-1.61415">
        <ele>15</ele>
        <time>2026-06-28T17:11:56.000Z</time>
      </trkpt>
      <trkpt lat="43.35912" lon="-1.61414">
        <ele>15</ele>
        <time>2026-06-28T17:11:57.000Z</time>
      </trkpt>
      <trkpt lat="43.35918" lon="-1.61409">
        <ele>16</ele>
        <time>2026-06-28T17:11:58.000Z</time>
      </trkpt>
      <trkpt lat="43.36022" lon="-1.61276">
        <ele>11</ele>
        <time>2026-06-28T17:12:23.000Z</time>
      </trkpt>
      <trkpt lat="43.36049" lon="-1.61235">
        <ele>11</ele>
        <time>2026-06-28T17:12:30.000Z</time>
      </trkpt>
      <trkpt lat="43.3607" lon="-1.61191">
        <ele>11</ele>
        <time>2026-06-28T17:12:37.000Z</time>
      </trkpt>
      <trkpt lat="43.36082" lon="-1.61159">
        <ele>12</ele>
        <time>2026-06-28T17:12:42.000Z</time>
      </trkpt>
      <trkpt lat="43.3609" lon="-1.61126">
        <ele>13</ele>
        <time>2026-06-28T17:12:46.000Z</time>
      </trkpt>
      <trkpt lat="43.36097" lon="-1.61071">
        <ele>15</ele>
        <time>2026-06-28T17:12:54.000Z</time>
      </trkpt>
      <trkpt lat="43.36117" lon="-1.60742">
        <ele>18</ele>
        <time>2026-06-28T17:13:36.000Z</time>
      </trkpt>
      <trkpt lat="43.36114" lon="-1.6069">
        <ele>18</ele>
        <time>2026-06-28T17:13:43.000Z</time>
      </trkpt>
      <trkpt lat="43.36101" lon="-1.60581">
        <ele>18</ele>
        <time>2026-06-28T17:13:57.000Z</time>
      </trkpt>
      <trkpt lat="43.36099" lon="-1.60511">
        <ele>16</ele>
        <time>2026-06-28T17:14:06.000Z</time>
      </trkpt>
      <trkpt lat="43.36104" lon="-1.60471">
        <ele>16</ele>
        <time>2026-06-28T17:14:12.000Z</time>
      </trkpt>
      <trkpt lat="43.36119" lon="-1.60417">
        <ele>15</ele>
        <time>2026-06-28T17:14:19.000Z</time>
      </trkpt>
      <trkpt lat="43.36128" lon="-1.60395">
        <ele>14</ele>
        <time>2026-06-28T17:14:22.000Z</time>
      </trkpt>
      <trkpt lat="43.36139" lon="-1.60376">
        <ele>14</ele>
        <time>2026-06-28T17:14:25.000Z</time>
      </trkpt>
      <trkpt lat="43.3615" lon="-1.60358">
        <ele>14</ele>
        <time>2026-06-28T17:14:28.000Z</time>
      </trkpt>
      <trkpt lat="43.36167" lon="-1.60337">
        <ele>12</ele>
        <time>2026-06-28T17:14:33.000Z</time>
      </trkpt>
      <trkpt lat="43.36192" lon="-1.60312">
        <ele>14</ele>
        <time>2026-06-28T17:14:38.000Z</time>
      </trkpt>
      <trkpt lat="43.36281" lon="-1.60235">
        <ele>19</ele>
        <time>2026-06-28T17:14:57.000Z</time>
      </trkpt>
      <trkpt lat="43.36305" lon="-1.60209">
        <ele>20</ele>
        <time>2026-06-28T17:15:02.000Z</time>
      </trkpt>
      <trkpt lat="43.36322" lon="-1.60184">
        <ele>18</ele>
        <time>2026-06-28T17:15:07.000Z</time>
      </trkpt>
      <trkpt lat="43.36333" lon="-1.60163">
        <ele>16</ele>
        <time>2026-06-28T17:15:10.000Z</time>
      </trkpt>
      <trkpt lat="43.36368" lon="-1.60074">
        <ele>15</ele>
        <time>2026-06-28T17:15:23.000Z</time>
      </trkpt>
      <trkpt lat="43.36382" lon="-1.60045">
        <ele>14</ele>
        <time>2026-06-28T17:15:28.000Z</time>
      </trkpt>
      <trkpt lat="43.36402" lon="-1.60012">
        <ele>13</ele>
        <time>2026-06-28T17:15:33.000Z</time>
      </trkpt>
      <trkpt lat="43.36425" lon="-1.59981">
        <ele>13</ele>
        <time>2026-06-28T17:15:39.000Z</time>
      </trkpt>
      <trkpt lat="43.36446" lon="-1.59959">
        <ele>14</ele>
        <time>2026-06-28T17:15:44.000Z</time>
      </trkpt>
      <trkpt lat="43.36522" lon="-1.599">
        <ele>14</ele>
        <time>2026-06-28T17:15:59.000Z</time>
      </trkpt>
      <trkpt lat="43.36537" lon="-1.59884">
        <ele>16</ele>
        <time>2026-06-28T17:16:02.000Z</time>
      </trkpt>
      <trkpt lat="43.36557" lon="-1.59848">
        <ele>18</ele>
        <time>2026-06-28T17:16:08.000Z</time>
      </trkpt>
      <trkpt lat="43.36565" lon="-1.59806">
        <ele>18</ele>
        <time>2026-06-28T17:16:14.000Z</time>
      </trkpt>
      <trkpt lat="43.36589" lon="-1.59511">
        <ele>10</ele>
        <time>2026-06-28T17:16:52.000Z</time>
      </trkpt>
      <trkpt lat="43.36589" lon="-1.59459">
        <ele>9</ele>
        <time>2026-06-28T17:16:59.000Z</time>
      </trkpt>
      <trkpt lat="43.36584" lon="-1.59407">
        <ele>9</ele>
        <time>2026-06-28T17:17:06.000Z</time>
      </trkpt>
      <trkpt lat="43.36574" lon="-1.59357">
        <ele>9</ele>
        <time>2026-06-28T17:17:13.000Z</time>
      </trkpt>
      <trkpt lat="43.36559" lon="-1.59303">
        <ele>9</ele>
        <time>2026-06-28T17:17:20.000Z</time>
      </trkpt>
      <trkpt lat="43.36462" lon="-1.58988">
        <ele>11</ele>
        <time>2026-06-28T17:18:04.000Z</time>
      </trkpt>
      <trkpt lat="43.36444" lon="-1.58946">
        <ele>12</ele>
        <time>2026-06-28T17:18:11.000Z</time>
      </trkpt>
      <trkpt lat="43.3642" lon="-1.58909">
        <ele>14</ele>
        <time>2026-06-28T17:18:17.000Z</time>
      </trkpt>
      <trkpt lat="43.36381" lon="-1.58869">
        <ele>18</ele>
        <time>2026-06-28T17:18:26.000Z</time>
      </trkpt>
      <trkpt lat="43.3631" lon="-1.58806">
        <ele>19</ele>
        <time>2026-06-28T17:18:41.000Z</time>
      </trkpt>
      <trkpt lat="43.36291" lon="-1.58786">
        <ele>18</ele>
        <time>2026-06-28T17:18:45.000Z</time>
      </trkpt>
      <trkpt lat="43.36271" lon="-1.58754">
        <ele>17</ele>
        <time>2026-06-28T17:18:50.000Z</time>
      </trkpt>
      <trkpt lat="43.36256" lon="-1.58726">
        <ele>14</ele>
        <time>2026-06-28T17:18:55.000Z</time>
      </trkpt>
      <trkpt lat="43.36242" lon="-1.58688">
        <ele>12</ele>
        <time>2026-06-28T17:19:00.000Z</time>
      </trkpt>
      <trkpt lat="43.36156" lon="-1.58412">
        <ele>12</ele>
        <time>2026-06-28T17:19:39.000Z</time>
      </trkpt>
      <trkpt lat="43.36122" lon="-1.58333">
        <ele>11</ele>
        <time>2026-06-28T17:19:51.000Z</time>
      </trkpt>
      <trkpt lat="43.36084" lon="-1.58271">
        <ele>12</ele>
        <time>2026-06-28T17:20:02.000Z</time>
      </trkpt>
      <trkpt lat="43.35894" lon="-1.57995">
        <ele>11</ele>
        <time>2026-06-28T17:20:51.000Z</time>
      </trkpt>
      <trkpt lat="43.35864" lon="-1.57943">
        <ele>12</ele>
        <time>2026-06-28T17:20:59.000Z</time>
      </trkpt>
      <trkpt lat="43.35851" lon="-1.57915">
        <ele>12</ele>
        <time>2026-06-28T17:21:04.000Z</time>
      </trkpt>
      <trkpt lat="43.35838" lon="-1.57876">
        <ele>12</ele>
        <time>2026-06-28T17:21:09.000Z</time>
      </trkpt>
      <trkpt lat="43.35822" lon="-1.5781">
        <ele>11</ele>
        <time>2026-06-28T17:21:18.000Z</time>
      </trkpt>
      <trkpt lat="43.3578" lon="-1.57584">
        <ele>13</ele>
        <time>2026-06-28T17:21:48.000Z</time>
      </trkpt>
      <trkpt lat="43.35776" lon="-1.57551">
        <ele>13</ele>
        <time>2026-06-28T17:21:53.000Z</time>
      </trkpt>
      <trkpt lat="43.35776" lon="-1.57502">
        <ele>13</ele>
        <time>2026-06-28T17:21:59.000Z</time>
      </trkpt>
      <trkpt lat="43.3576" lon="-1.57406">
        <ele>13</ele>
        <time>2026-06-28T17:22:12.000Z</time>
      </trkpt>
      <trkpt lat="43.35744" lon="-1.57233">
        <ele>14</ele>
        <time>2026-06-28T17:22:34.000Z</time>
      </trkpt>
      <trkpt lat="43.35736" lon="-1.57176">
        <ele>15</ele>
        <time>2026-06-28T17:22:42.000Z</time>
      </trkpt>
      <trkpt lat="43.35715" lon="-1.57116">
        <ele>15</ele>
        <time>2026-06-28T17:22:51.000Z</time>
      </trkpt>
      <trkpt lat="43.3562" lon="-1.56915">
        <ele>17</ele>
        <time>2026-06-28T17:23:22.000Z</time>
      </trkpt>
      <trkpt lat="43.35592" lon="-1.56866">
        <ele>17</ele>
        <time>2026-06-28T17:23:30.000Z</time>
      </trkpt>
      <trkpt lat="43.35585" lon="-1.56845">
        <ele>17</ele>
        <time>2026-06-28T17:23:33.000Z</time>
      </trkpt>
      <trkpt lat="43.35583" lon="-1.56823">
        <ele>17</ele>
        <time>2026-06-28T17:23:35.000Z</time>
      </trkpt>
      <trkpt lat="43.35586" lon="-1.56795">
        <ele>17</ele>
        <time>2026-06-28T17:23:39.000Z</time>
      </trkpt>
      <trkpt lat="43.35615" lon="-1.5669">
        <ele>19</ele>
        <time>2026-06-28T17:23:54.000Z</time>
      </trkpt>
      <trkpt lat="43.35622" lon="-1.56645">
        <ele>19</ele>
        <time>2026-06-28T17:24:00.000Z</time>
      </trkpt>
      <trkpt lat="43.35618" lon="-1.566">
        <ele>19</ele>
        <time>2026-06-28T17:24:05.000Z</time>
      </trkpt>
      <trkpt lat="43.3562" lon="-1.56512">
        <ele>19</ele>
        <time>2026-06-28T17:24:17.000Z</time>
      </trkpt>
      <trkpt lat="43.35614" lon="-1.56212">
        <ele>19</ele>
        <time>2026-06-28T17:24:56.000Z</time>
      </trkpt>
      <trkpt lat="43.35615" lon="-1.56171">
        <ele>19</ele>
        <time>2026-06-28T17:25:01.000Z</time>
      </trkpt>
      <trkpt lat="43.3562" lon="-1.56133">
        <ele>18</ele>
        <time>2026-06-28T17:25:06.000Z</time>
      </trkpt>
      <trkpt lat="43.3563" lon="-1.56106">
        <ele>18</ele>
        <time>2026-06-28T17:25:10.000Z</time>
      </trkpt>
      <trkpt lat="43.35645" lon="-1.56085">
        <ele>18</ele>
        <time>2026-06-28T17:25:14.000Z</time>
      </trkpt>
      <trkpt lat="43.35716" lon="-1.56039">
        <ele>19</ele>
        <time>2026-06-28T17:25:28.000Z</time>
      </trkpt>
      <trkpt lat="43.35729" lon="-1.56026">
        <ele>18</ele>
        <time>2026-06-28T17:25:31.000Z</time>
      </trkpt>
      <trkpt lat="43.35735" lon="-1.56013">
        <ele>18</ele>
        <time>2026-06-28T17:25:33.000Z</time>
      </trkpt>
      <trkpt lat="43.35741" lon="-1.55985">
        <ele>17</ele>
        <time>2026-06-28T17:25:36.000Z</time>
      </trkpt>
      <trkpt lat="43.35765" lon="-1.55964">
        <ele>17</ele>
        <time>2026-06-28T17:25:41.000Z</time>
      </trkpt>
      <trkpt lat="43.35776" lon="-1.55946">
        <ele>18</ele>
        <time>2026-06-28T17:25:44.000Z</time>
      </trkpt>
      <trkpt lat="43.35782" lon="-1.55925">
        <ele>18</ele>
        <time>2026-06-28T17:25:47.000Z</time>
      </trkpt>
      <trkpt lat="43.35786" lon="-1.55895">
        <ele>20</ele>
        <time>2026-06-28T17:25:51.000Z</time>
      </trkpt>
      <trkpt lat="43.35778" lon="-1.55671">
        <ele>23</ele>
        <time>2026-06-28T17:26:20.000Z</time>
      </trkpt>
      <trkpt lat="43.35783" lon="-1.5562">
        <ele>23</ele>
        <time>2026-06-28T17:26:27.000Z</time>
      </trkpt>
      <trkpt lat="43.35794" lon="-1.55555">
        <ele>25</ele>
        <time>2026-06-28T17:26:36.000Z</time>
      </trkpt>
      <trkpt lat="43.35797" lon="-1.55511">
        <ele>25</ele>
        <time>2026-06-28T17:26:41.000Z</time>
      </trkpt>
      <trkpt lat="43.35793" lon="-1.55469">
        <ele>24</ele>
        <time>2026-06-28T17:26:47.000Z</time>
      </trkpt>
      <trkpt lat="43.35767" lon="-1.55303">
        <ele>21</ele>
        <time>2026-06-28T17:27:09.000Z</time>
      </trkpt>
      <trkpt lat="43.35762" lon="-1.55281">
        <ele>22</ele>
        <time>2026-06-28T17:27:12.000Z</time>
      </trkpt>
      <trkpt lat="43.35751" lon="-1.55256">
        <ele>22</ele>
        <time>2026-06-28T17:27:15.000Z</time>
      </trkpt>
      <trkpt lat="43.35727" lon="-1.55217">
        <ele>22</ele>
        <time>2026-06-28T17:27:22.000Z</time>
      </trkpt>
      <trkpt lat="43.35709" lon="-1.55194">
        <ele>22</ele>
        <time>2026-06-28T17:27:26.000Z</time>
      </trkpt>
      <trkpt lat="43.35668" lon="-1.55124">
        <ele>21</ele>
        <time>2026-06-28T17:27:38.000Z</time>
      </trkpt>
      <trkpt lat="43.35643" lon="-1.55071">
        <ele>22</ele>
        <time>2026-06-28T17:27:46.000Z</time>
      </trkpt>
      <trkpt lat="43.35641" lon="-1.55061">
        <ele>22</ele>
        <time>2026-06-28T17:27:48.000Z</time>
      </trkpt>
      <trkpt lat="43.35643" lon="-1.55052">
        <ele>22</ele>
        <time>2026-06-28T17:27:49.000Z</time>
      </trkpt>
      <trkpt lat="43.35715" lon="-1.54976">
        <ele>24</ele>
        <time>2026-06-28T17:28:05.000Z</time>
      </trkpt>
      <trkpt lat="43.35779" lon="-1.54903">
        <ele>29</ele>
        <time>2026-06-28T17:28:20.000Z</time>
      </trkpt>
      <trkpt lat="43.35796" lon="-1.54877">
        <ele>30</ele>
        <time>2026-06-28T17:28:24.000Z</time>
      </trkpt>
      <trkpt lat="43.3581" lon="-1.54846">
        <ele>31</ele>
        <time>2026-06-28T17:28:29.000Z</time>
      </trkpt>
      <trkpt lat="43.35828" lon="-1.54821">
        <ele>32</ele>
        <time>2026-06-28T17:28:34.000Z</time>
      </trkpt>
      <trkpt lat="43.35845" lon="-1.54786">
        <ele>35</ele>
        <time>2026-06-28T17:28:39.000Z</time>
      </trkpt>
      <trkpt lat="43.35854" lon="-1.54775">
        <ele>36</ele>
        <time>2026-06-28T17:28:41.000Z</time>
      </trkpt>
      <trkpt lat="43.35869" lon="-1.54763">
        <ele>38</ele>
        <time>2026-06-28T17:28:44.000Z</time>
      </trkpt>
      <trkpt lat="43.36023" lon="-1.54699">
        <ele>55</ele>
        <time>2026-06-28T17:29:13.000Z</time>
      </trkpt>
      <trkpt lat="43.36038" lon="-1.54685">
        <ele>57</ele>
        <time>2026-06-28T17:29:16.000Z</time>
      </trkpt>
      <trkpt lat="43.36075" lon="-1.54661">
        <ele>59</ele>
        <time>2026-06-28T17:29:23.000Z</time>
      </trkpt>
      <trkpt lat="43.36097" lon="-1.54655">
        <ele>60</ele>
        <time>2026-06-28T17:29:27.000Z</time>
      </trkpt>
      <trkpt lat="43.36156" lon="-1.54629">
        <ele>66</ele>
        <time>2026-06-28T17:29:38.000Z</time>
      </trkpt>
      <trkpt lat="43.36221" lon="-1.54607">
        <ele>68</ele>
        <time>2026-06-28T17:29:50.000Z</time>
      </trkpt>
      <trkpt lat="43.36276" lon="-1.54592">
        <ele>69</ele>
        <time>2026-06-28T17:30:00.000Z</time>
      </trkpt>
      <trkpt lat="43.36315" lon="-1.54562">
        <ele>75</ele>
        <time>2026-06-28T17:30:08.000Z</time>
      </trkpt>
      <trkpt lat="43.36321" lon="-1.54552">
        <ele>76</ele>
        <time>2026-06-28T17:30:10.000Z</time>
      </trkpt>
      <trkpt lat="43.36333" lon="-1.5452">
        <ele>81</ele>
        <time>2026-06-28T17:30:15.000Z</time>
      </trkpt>
      <trkpt lat="43.36346" lon="-1.54508">
        <ele>83</ele>
        <time>2026-06-28T17:30:17.000Z</time>
      </trkpt>
      <trkpt lat="43.36357" lon="-1.54508">
        <ele>84</ele>
        <time>2026-06-28T17:30:19.000Z</time>
      </trkpt>
      <trkpt lat="43.36367" lon="-1.54513">
        <ele>84</ele>
        <time>2026-06-28T17:30:21.000Z</time>
      </trkpt>
      <trkpt lat="43.36379" lon="-1.54513">
        <ele>84</ele>
        <time>2026-06-28T17:30:23.000Z</time>
      </trkpt>
      <trkpt lat="43.3652" lon="-1.54475">
        <ele>90</ele>
        <time>2026-06-28T17:30:49.000Z</time>
      </trkpt>
      <trkpt lat="43.36528" lon="-1.54467">
        <ele>90</ele>
        <time>2026-06-28T17:30:51.000Z</time>
      </trkpt>
      <trkpt lat="43.3653" lon="-1.5446">
        <ele>90</ele>
        <time>2026-06-28T17:30:52.000Z</time>
      </trkpt>
      <trkpt lat="43.36533" lon="-1.5442">
        <ele>90</ele>
        <time>2026-06-28T17:30:57.000Z</time>
      </trkpt>
      <trkpt lat="43.36532" lon="-1.54406">
        <ele>90</ele>
        <time>2026-06-28T17:30:59.000Z</time>
      </trkpt>
      <trkpt lat="43.36535" lon="-1.54406">
        <ele>90</ele>
        <time>2026-06-28T17:30:59.000Z</time>
      </trkpt>
      <trkpt lat="43.36539" lon="-1.54399">
        <ele>89</ele>
        <time>2026-06-28T17:31:00.000Z</time>
      </trkpt>
      <trkpt lat="43.3654" lon="-1.54391">
        <ele>89</ele>
        <time>2026-06-28T17:31:01.000Z</time>
      </trkpt>
      <trkpt lat="43.3654" lon="-1.54349">
        <ele>90</ele>
        <time>2026-06-28T17:31:07.000Z</time>
      </trkpt>
      <trkpt lat="43.36537" lon="-1.54333">
        <ele>90</ele>
        <time>2026-06-28T17:31:09.000Z</time>
      </trkpt>
      <trkpt lat="43.36532" lon="-1.54326">
        <ele>90</ele>
        <time>2026-06-28T17:31:10.000Z</time>
      </trkpt>
      <trkpt lat="43.36522" lon="-1.54321">
        <ele>92</ele>
        <time>2026-06-28T17:31:12.000Z</time>
      </trkpt>
      <trkpt lat="43.36478" lon="-1.54319">
        <ele>96</ele>
        <time>2026-06-28T17:31:20.000Z</time>
      </trkpt>
      <trkpt lat="43.36466" lon="-1.54316">
        <ele>98</ele>
        <time>2026-06-28T17:31:22.000Z</time>
      </trkpt>
      <trkpt lat="43.3644" lon="-1.543">
        <ele>100</ele>
        <time>2026-06-28T17:31:27.000Z</time>
      </trkpt>
      <trkpt lat="43.36429" lon="-1.54288">
        <ele>101</ele>
        <time>2026-06-28T17:31:30.000Z</time>
      </trkpt>
      <trkpt lat="43.36423" lon="-1.54277">
        <ele>101</ele>
        <time>2026-06-28T17:31:31.000Z</time>
      </trkpt>
      <trkpt lat="43.36416" lon="-1.54248">
        <ele>100</ele>
        <time>2026-06-28T17:31:35.000Z</time>
      </trkpt>
      <trkpt lat="43.36436" lon="-1.54058">
        <ele>95</ele>
        <time>2026-06-28T17:32:00.000Z</time>
      </trkpt>
      <trkpt lat="43.36443" lon="-1.53953">
        <ele>97</ele>
        <time>2026-06-28T17:32:14.000Z</time>
      </trkpt>
      <trkpt lat="43.36451" lon="-1.53882">
        <ele>99</ele>
        <time>2026-06-28T17:32:23.000Z</time>
      </trkpt>
      <trkpt lat="43.36454" lon="-1.53795">
        <ele>99</ele>
        <time>2026-06-28T17:32:34.000Z</time>
      </trkpt>
      <trkpt lat="43.36461" lon="-1.5376">
        <ele>99</ele>
        <time>2026-06-28T17:32:39.000Z</time>
      </trkpt>
      <trkpt lat="43.36486" lon="-1.53689">
        <ele>98</ele>
        <time>2026-06-28T17:32:49.000Z</time>
      </trkpt>
      <trkpt lat="43.36504" lon="-1.53628">
        <ele>97</ele>
        <time>2026-06-28T17:32:58.000Z</time>
      </trkpt>
      <trkpt lat="43.36506" lon="-1.53561">
        <ele>97</ele>
        <time>2026-06-28T17:33:07.000Z</time>
      </trkpt>
      <trkpt lat="43.36496" lon="-1.53431">
        <ele>105</ele>
        <time>2026-06-28T17:33:23.000Z</time>
      </trkpt>
      <trkpt lat="43.36471" lon="-1.53317">
        <ele>108</ele>
        <time>2026-06-28T17:33:39.000Z</time>
      </trkpt>
      <trkpt lat="43.36427" lon="-1.53016">
        <ele>110</ele>
        <time>2026-06-28T17:34:19.000Z</time>
      </trkpt>
      <trkpt lat="43.36412" lon="-1.52932">
        <ele>114</ele>
        <time>2026-06-28T17:34:30.000Z</time>
      </trkpt>
      <trkpt lat="43.36402" lon="-1.52899">
        <ele>114</ele>
        <time>2026-06-28T17:34:34.000Z</time>
      </trkpt>
      <trkpt lat="43.36389" lon="-1.52871">
        <ele>114</ele>
        <time>2026-06-28T17:34:39.000Z</time>
      </trkpt>
      <trkpt lat="43.36335" lon="-1.52775">
        <ele>118</ele>
        <time>2026-06-28T17:34:54.000Z</time>
      </trkpt>
      <trkpt lat="43.36323" lon="-1.52747">
        <ele>118</ele>
        <time>2026-06-28T17:34:59.000Z</time>
      </trkpt>
      <trkpt lat="43.36307" lon="-1.52703">
        <ele>119</ele>
        <time>2026-06-28T17:35:05.000Z</time>
      </trkpt>
      <trkpt lat="43.363" lon="-1.52667">
        <ele>122</ele>
        <time>2026-06-28T17:35:10.000Z</time>
      </trkpt>
      <trkpt lat="43.36297" lon="-1.52631">
        <ele>125</ele>
        <time>2026-06-28T17:35:14.000Z</time>
      </trkpt>
      <trkpt lat="43.36298" lon="-1.52605">
        <ele>127</ele>
        <time>2026-06-28T17:35:18.000Z</time>
      </trkpt>
      <trkpt lat="43.36333" lon="-1.52418">
        <ele>132</ele>
        <time>2026-06-28T17:35:43.000Z</time>
      </trkpt>
      <trkpt lat="43.36339" lon="-1.524">
        <ele>132</ele>
        <time>2026-06-28T17:35:45.000Z</time>
      </trkpt>
      <trkpt lat="43.36353" lon="-1.52378">
        <ele>132</ele>
        <time>2026-06-28T17:35:49.000Z</time>
      </trkpt>
      <trkpt lat="43.36374" lon="-1.52354">
        <ele>133</ele>
        <time>2026-06-28T17:35:54.000Z</time>
      </trkpt>
      <trkpt lat="43.36402" lon="-1.52331">
        <ele>133</ele>
        <time>2026-06-28T17:36:00.000Z</time>
      </trkpt>
      <trkpt lat="43.3644" lon="-1.52305">
        <ele>130</ele>
        <time>2026-06-28T17:36:07.000Z</time>
      </trkpt>
      <trkpt lat="43.36471" lon="-1.52289">
        <ele>130</ele>
        <time>2026-06-28T17:36:13.000Z</time>
      </trkpt>
      <trkpt lat="43.36502" lon="-1.52275">
        <ele>131</ele>
        <time>2026-06-28T17:36:19.000Z</time>
      </trkpt>
      <trkpt lat="43.36525" lon="-1.52271">
        <ele>133</ele>
        <time>2026-06-28T17:36:23.000Z</time>
      </trkpt>
      <trkpt lat="43.3654" lon="-1.52277">
        <ele>134</ele>
        <time>2026-06-28T17:36:26.000Z</time>
      </trkpt>
      <trkpt lat="43.36555" lon="-1.52293">
        <ele>134</ele>
        <time>2026-06-28T17:36:29.000Z</time>
      </trkpt>
      <trkpt lat="43.36567" lon="-1.52313">
        <ele>134</ele>
        <time>2026-06-28T17:36:33.000Z</time>
      </trkpt>
      <trkpt lat="43.36594" lon="-1.52376">
        <ele>133</ele>
        <time>2026-06-28T17:36:42.000Z</time>
      </trkpt>
      <trkpt lat="43.36607" lon="-1.52392">
        <ele>133</ele>
        <time>2026-06-28T17:36:45.000Z</time>
      </trkpt>
      <trkpt lat="43.36619" lon="-1.52396">
        <ele>133</ele>
        <time>2026-06-28T17:36:47.000Z</time>
      </trkpt>
      <trkpt lat="43.36636" lon="-1.52392">
        <ele>134</ele>
        <time>2026-06-28T17:36:51.000Z</time>
      </trkpt>
      <trkpt lat="43.36666" lon="-1.5237">
        <ele>138</ele>
        <time>2026-06-28T17:36:57.000Z</time>
      </trkpt>
      <trkpt lat="43.367" lon="-1.52363">
        <ele>137</ele>
        <time>2026-06-28T17:37:03.000Z</time>
      </trkpt>
      <trkpt lat="43.36717" lon="-1.52357">
        <ele>137</ele>
        <time>2026-06-28T17:37:06.000Z</time>
      </trkpt>
      <trkpt lat="43.36758" lon="-1.52328">
        <ele>140</ele>
        <time>2026-06-28T17:37:14.000Z</time>
      </trkpt>
      <trkpt lat="43.3677" lon="-1.52326">
        <ele>142</ele>
        <time>2026-06-28T17:37:16.000Z</time>
      </trkpt>
      <trkpt lat="43.3678" lon="-1.52333">
        <ele>143</ele>
        <time>2026-06-28T17:37:18.000Z</time>
      </trkpt>
      <trkpt lat="43.36787" lon="-1.52345">
        <ele>143</ele>
        <time>2026-06-28T17:37:20.000Z</time>
      </trkpt>
      <trkpt lat="43.36802" lon="-1.5239">
        <ele>141</ele>
        <time>2026-06-28T17:37:27.000Z</time>
      </trkpt>
      <trkpt lat="43.36825" lon="-1.52444">
        <ele>141</ele>
        <time>2026-06-28T17:37:35.000Z</time>
      </trkpt>
      <trkpt lat="43.36832" lon="-1.52466">
        <ele>141</ele>
        <time>2026-06-28T17:37:38.000Z</time>
      </trkpt>
      <trkpt lat="43.36842" lon="-1.52541">
        <ele>141</ele>
        <time>2026-06-28T17:37:48.000Z</time>
      </trkpt>
      <trkpt lat="43.36841" lon="-1.52564">
        <ele>141</ele>
        <time>2026-06-28T17:37:51.000Z</time>
      </trkpt>
      <trkpt lat="43.36836" lon="-1.52595">
        <ele>140</ele>
        <time>2026-06-28T17:37:55.000Z</time>
      </trkpt>
      <trkpt lat="43.36839" lon="-1.5262">
        <ele>139</ele>
        <time>2026-06-28T17:37:58.000Z</time>
      </trkpt>
      <trkpt lat="43.36851" lon="-1.52638">
        <ele>139</ele>
        <time>2026-06-28T17:38:01.000Z</time>
      </trkpt>
      <trkpt lat="43.36865" lon="-1.5265">
        <ele>139</ele>
        <time>2026-06-28T17:38:04.000Z</time>
      </trkpt>
      <trkpt lat="43.36876" lon="-1.52655">
        <ele>139</ele>
        <time>2026-06-28T17:38:06.000Z</time>
      </trkpt>
      <trkpt lat="43.36887" lon="-1.52656">
        <ele>139</ele>
        <time>2026-06-28T17:38:08.000Z</time>
      </trkpt>
      <trkpt lat="43.36904" lon="-1.52652">
        <ele>140</ele>
        <time>2026-06-28T17:38:11.000Z</time>
      </trkpt>
      <trkpt lat="43.36915" lon="-1.52644">
        <ele>141</ele>
        <time>2026-06-28T17:38:13.000Z</time>
      </trkpt>
      <trkpt lat="43.36947" lon="-1.52612">
        <ele>141</ele>
        <time>2026-06-28T17:38:20.000Z</time>
      </trkpt>
      <trkpt lat="43.37011" lon="-1.52576">
        <ele>141</ele>
        <time>2026-06-28T17:38:33.000Z</time>
      </trkpt>
      <trkpt lat="43.37037" lon="-1.52555">
        <ele>141</ele>
        <time>2026-06-28T17:38:38.000Z</time>
      </trkpt>
      <trkpt lat="43.37054" lon="-1.52528">
        <ele>141</ele>
        <time>2026-06-28T17:38:43.000Z</time>
      </trkpt>
      <trkpt lat="43.37061" lon="-1.52502">
        <ele>141</ele>
        <time>2026-06-28T17:38:46.000Z</time>
      </trkpt>
      <trkpt lat="43.37067" lon="-1.52456">
        <ele>141</ele>
        <time>2026-06-28T17:38:52.000Z</time>
      </trkpt>
      <trkpt lat="43.3707" lon="-1.52372">
        <ele>143</ele>
        <time>2026-06-28T17:39:03.000Z</time>
      </trkpt>
      <trkpt lat="43.37077" lon="-1.52345">
        <ele>143</ele>
        <time>2026-06-28T17:39:07.000Z</time>
      </trkpt>
      <trkpt lat="43.37094" lon="-1.52328">
        <ele>142</ele>
        <time>2026-06-28T17:39:11.000Z</time>
      </trkpt>
      <trkpt lat="43.37145" lon="-1.52301">
        <ele>136</ele>
        <time>2026-06-28T17:39:20.000Z</time>
      </trkpt>
      <trkpt lat="43.37187" lon="-1.52265">
        <ele>134</ele>
        <time>2026-06-28T17:39:29.000Z</time>
      </trkpt>
      <trkpt lat="43.3724" lon="-1.522">
        <ele>137</ele>
        <time>2026-06-28T17:39:42.000Z</time>
      </trkpt>
      <trkpt lat="43.37255" lon="-1.52178">
        <ele>139</ele>
        <time>2026-06-28T17:39:46.000Z</time>
      </trkpt>
      <trkpt lat="43.37271" lon="-1.52146">
        <ele>139</ele>
        <time>2026-06-28T17:39:51.000Z</time>
      </trkpt>
      <trkpt lat="43.37284" lon="-1.52112">
        <ele>138</ele>
        <time>2026-06-28T17:39:56.000Z</time>
      </trkpt>
      <trkpt lat="43.37288" lon="-1.52084">
        <ele>139</ele>
        <time>2026-06-28T17:39:59.000Z</time>
      </trkpt>
      <trkpt lat="43.37288" lon="-1.52064">
        <ele>138</ele>
        <time>2026-06-28T17:40:02.000Z</time>
      </trkpt>
      <trkpt lat="43.37285" lon="-1.52045">
        <ele>137</ele>
        <time>2026-06-28T17:40:05.000Z</time>
      </trkpt>
      <trkpt lat="43.37263" lon="-1.51952">
        <ele>138</ele>
        <time>2026-06-28T17:40:17.000Z</time>
      </trkpt>
      <trkpt lat="43.37233" lon="-1.51872">
        <ele>140</ele>
        <time>2026-06-28T17:40:29.000Z</time>
      </trkpt>
      <trkpt lat="43.37229" lon="-1.51855">
        <ele>139</ele>
        <time>2026-06-28T17:40:31.000Z</time>
      </trkpt>
      <trkpt lat="43.37227" lon="-1.51817">
        <ele>139</ele>
        <time>2026-06-28T17:40:36.000Z</time>
      </trkpt>
      <trkpt lat="43.37233" lon="-1.51778">
        <ele>139</ele>
        <time>2026-06-28T17:40:41.000Z</time>
      </trkpt>
      <trkpt lat="43.37247" lon="-1.51724">
        <ele>139</ele>
        <time>2026-06-28T17:40:49.000Z</time>
      </trkpt>
      <trkpt lat="43.37259" lon="-1.51691">
        <ele>138</ele>
        <time>2026-06-28T17:40:53.000Z</time>
      </trkpt>
      <trkpt lat="43.3727" lon="-1.51668">
        <ele>137</ele>
        <time>2026-06-28T17:40:57.000Z</time>
      </trkpt>
      <trkpt lat="43.3728" lon="-1.51655">
        <ele>137</ele>
        <time>2026-06-28T17:40:59.000Z</time>
      </trkpt>
      <trkpt lat="43.37291" lon="-1.51645">
        <ele>137</ele>
        <time>2026-06-28T17:41:02.000Z</time>
      </trkpt>
      <trkpt lat="43.37304" lon="-1.51638">
        <ele>137</ele>
        <time>2026-06-28T17:41:04.000Z</time>
      </trkpt>
      <trkpt lat="43.37379" lon="-1.51613">
        <ele>134</ele>
        <time>2026-06-28T17:41:18.000Z</time>
      </trkpt>
      <trkpt lat="43.37392" lon="-1.51606">
        <ele>134</ele>
        <time>2026-06-28T17:41:20.000Z</time>
      </trkpt>
      <trkpt lat="43.37409" lon="-1.5159">
        <ele>135</ele>
        <time>2026-06-28T17:41:24.000Z</time>
      </trkpt>
      <trkpt lat="43.37421" lon="-1.51566">
        <ele>135</ele>
        <time>2026-06-28T17:41:28.000Z</time>
      </trkpt>
      <trkpt lat="43.37427" lon="-1.51538">
        <ele>134</ele>
        <time>2026-06-28T17:41:32.000Z</time>
      </trkpt>
      <trkpt lat="43.37449" lon="-1.51354">
        <ele>132</ele>
        <time>2026-06-28T17:41:56.000Z</time>
      </trkpt>
      <trkpt lat="43.37454" lon="-1.51255">
        <ele>132</ele>
        <time>2026-06-28T17:42:09.000Z</time>
      </trkpt>
      <trkpt lat="43.37462" lon="-1.51225">
        <ele>132</ele>
        <time>2026-06-28T17:42:13.000Z</time>
      </trkpt>
      <trkpt lat="43.37473" lon="-1.51199">
        <ele>133</ele>
        <time>2026-06-28T17:42:17.000Z</time>
      </trkpt>
      <trkpt lat="43.3749" lon="-1.51168">
        <ele>135</ele>
        <time>2026-06-28T17:42:22.000Z</time>
      </trkpt>
      <trkpt lat="43.37505" lon="-1.51149">
        <ele>136</ele>
        <time>2026-06-28T17:42:25.000Z</time>
      </trkpt>
      <trkpt lat="43.37523" lon="-1.51134">
        <ele>136</ele>
        <time>2026-06-28T17:42:29.000Z</time>
      </trkpt>
      <trkpt lat="43.37537" lon="-1.51129">
        <ele>136</ele>
        <time>2026-06-28T17:42:32.000Z</time>
      </trkpt>
      <trkpt lat="43.37557" lon="-1.51126">
        <ele>136</ele>
        <time>2026-06-28T17:42:35.000Z</time>
      </trkpt>
      <trkpt lat="43.37592" lon="-1.5113">
        <ele>136</ele>
        <time>2026-06-28T17:42:41.000Z</time>
      </trkpt>
      <trkpt lat="43.37638" lon="-1.5115">
        <ele>135</ele>
        <time>2026-06-28T17:42:50.000Z</time>
      </trkpt>
      <trkpt lat="43.37652" lon="-1.51152">
        <ele>135</ele>
        <time>2026-06-28T17:42:53.000Z</time>
      </trkpt>
      <trkpt lat="43.37666" lon="-1.51149">
        <ele>136</ele>
        <time>2026-06-28T17:42:55.000Z</time>
      </trkpt>
      <trkpt lat="43.37685" lon="-1.51136">
        <ele>136</ele>
        <time>2026-06-28T17:42:59.000Z</time>
      </trkpt>
      <trkpt lat="43.37705" lon="-1.51105">
        <ele>137</ele>
        <time>2026-06-28T17:43:04.000Z</time>
      </trkpt>
      <trkpt lat="43.37718" lon="-1.51068">
        <ele>137</ele>
        <time>2026-06-28T17:43:09.000Z</time>
      </trkpt>
      <trkpt lat="43.37727" lon="-1.5105">
        <ele>136</ele>
        <time>2026-06-28T17:43:12.000Z</time>
      </trkpt>
      <trkpt lat="43.37793" lon="-1.50956">
        <ele>133</ele>
        <time>2026-06-28T17:43:29.000Z</time>
      </trkpt>
      <trkpt lat="43.37837" lon="-1.50857">
        <ele>132</ele>
        <time>2026-06-28T17:43:44.000Z</time>
      </trkpt>
      <trkpt lat="43.37853" lon="-1.50803">
        <ele>132</ele>
        <time>2026-06-28T17:43:52.000Z</time>
      </trkpt>
      <trkpt lat="43.37859" lon="-1.50679">
        <ele>129</ele>
        <time>2026-06-28T17:44:08.000Z</time>
      </trkpt>
      <trkpt lat="43.37873" lon="-1.50588">
        <ele>127</ele>
        <time>2026-06-28T17:44:20.000Z</time>
      </trkpt>
      <trkpt lat="43.37871" lon="-1.50531">
        <ele>128</ele>
        <time>2026-06-28T17:44:27.000Z</time>
      </trkpt>
      <trkpt lat="43.37864" lon="-1.50474">
        <ele>127</ele>
        <time>2026-06-28T17:44:35.000Z</time>
      </trkpt>
      <trkpt lat="43.37872" lon="-1.50448">
        <ele>128</ele>
        <time>2026-06-28T17:44:38.000Z</time>
      </trkpt>
      <trkpt lat="43.37883" lon="-1.5044">
        <ele>128</ele>
        <time>2026-06-28T17:44:41.000Z</time>
      </trkpt>
      <trkpt lat="43.37891" lon="-1.50439">
        <ele>128</ele>
        <time>2026-06-28T17:44:42.000Z</time>
      </trkpt>
      <trkpt lat="43.37905" lon="-1.50442">
        <ele>129</ele>
        <time>2026-06-28T17:44:45.000Z</time>
      </trkpt>
      <trkpt lat="43.37934" lon="-1.50454">
        <ele>129</ele>
        <time>2026-06-28T17:44:50.000Z</time>
      </trkpt>
      <trkpt lat="43.37948" lon="-1.50456">
        <ele>129</ele>
        <time>2026-06-28T17:44:52.000Z</time>
      </trkpt>
      <trkpt lat="43.38003" lon="-1.50436">
        <ele>127</ele>
        <time>2026-06-28T17:45:03.000Z</time>
      </trkpt>
      <trkpt lat="43.38099" lon="-1.50427">
        <ele>128</ele>
        <time>2026-06-28T17:45:20.000Z</time>
      </trkpt>
      <trkpt lat="43.38136" lon="-1.50429">
        <ele>127</ele>
        <time>2026-06-28T17:45:26.000Z</time>
      </trkpt>
      <trkpt lat="43.38229" lon="-1.50449">
        <ele>127</ele>
        <time>2026-06-28T17:45:43.000Z</time>
      </trkpt>
      <trkpt lat="43.38239" lon="-1.50445">
        <ele>127</ele>
        <time>2026-06-28T17:45:45.000Z</time>
      </trkpt>
      <trkpt lat="43.38248" lon="-1.50437">
        <ele>127</ele>
        <time>2026-06-28T17:45:47.000Z</time>
      </trkpt>
      <trkpt lat="43.38299" lon="-1.50367">
        <ele>126</ele>
        <time>2026-06-28T17:46:00.000Z</time>
      </trkpt>
      <trkpt lat="43.38338" lon="-1.50303">
        <ele>127</ele>
        <time>2026-06-28T17:46:10.000Z</time>
      </trkpt>
      <trkpt lat="43.38352" lon="-1.50286">
        <ele>126</ele>
        <time>2026-06-28T17:46:14.000Z</time>
      </trkpt>
      <trkpt lat="43.38374" lon="-1.50267">
        <ele>127</ele>
        <time>2026-06-28T17:46:18.000Z</time>
      </trkpt>
      <trkpt lat="43.38394" lon="-1.50244">
        <ele>127</ele>
        <time>2026-06-28T17:46:23.000Z</time>
      </trkpt>
      <trkpt lat="43.38409" lon="-1.50222">
        <ele>128</ele>
        <time>2026-06-28T17:46:27.000Z</time>
      </trkpt>
      <trkpt lat="43.38442" lon="-1.50164">
        <ele>129</ele>
        <time>2026-06-28T17:46:36.000Z</time>
      </trkpt>
      <trkpt lat="43.38456" lon="-1.50127">
        <ele>131</ele>
        <time>2026-06-28T17:46:42.000Z</time>
      </trkpt>
      <trkpt lat="43.38464" lon="-1.50048">
        <ele>134</ele>
        <time>2026-06-28T17:46:52.000Z</time>
      </trkpt>
      <trkpt lat="43.38479" lon="-1.49997">
        <ele>136</ele>
        <time>2026-06-28T17:46:59.000Z</time>
      </trkpt>
      <trkpt lat="43.38497" lon="-1.49974">
        <ele>136</ele>
        <time>2026-06-28T17:47:04.000Z</time>
      </trkpt>
      <trkpt lat="43.3856" lon="-1.49917">
        <ele>140</ele>
        <time>2026-06-28T17:47:17.000Z</time>
      </trkpt>
      <trkpt lat="43.38582" lon="-1.49887">
        <ele>141</ele>
        <time>2026-06-28T17:47:23.000Z</time>
      </trkpt>
      <trkpt lat="43.38607" lon="-1.49836">
        <ele>140</ele>
        <time>2026-06-28T17:47:30.000Z</time>
      </trkpt>
      <trkpt lat="43.38631" lon="-1.49771">
        <ele>140</ele>
        <time>2026-06-28T17:47:40.000Z</time>
      </trkpt>
      <trkpt lat="43.38682" lon="-1.49652">
        <ele>133</ele>
        <time>2026-06-28T17:47:58.000Z</time>
      </trkpt>
      <trkpt lat="43.38688" lon="-1.49631">
        <ele>132</ele>
        <time>2026-06-28T17:48:01.000Z</time>
      </trkpt>
      <trkpt lat="43.38689" lon="-1.49616">
        <ele>132</ele>
        <time>2026-06-28T17:48:03.000Z</time>
      </trkpt>
      <trkpt lat="43.38682" lon="-1.49535">
        <ele>133</ele>
        <time>2026-06-28T17:48:13.000Z</time>
      </trkpt>
      <trkpt lat="43.38683" lon="-1.49502">
        <ele>133</ele>
        <time>2026-06-28T17:48:17.000Z</time>
      </trkpt>
      <trkpt lat="43.38687" lon="-1.49479">
        <ele>131</ele>
        <time>2026-06-28T17:48:20.000Z</time>
      </trkpt>
      <trkpt lat="43.38708" lon="-1.49414">
        <ele>126</ele>
        <time>2026-06-28T17:48:30.000Z</time>
      </trkpt>
      <trkpt lat="43.38735" lon="-1.49286">
        <ele>125</ele>
        <time>2026-06-28T17:48:47.000Z</time>
      </trkpt>
      <trkpt lat="43.38738" lon="-1.49252">
        <ele>126</ele>
        <time>2026-06-28T17:48:51.000Z</time>
      </trkpt>
      <trkpt lat="43.38737" lon="-1.492">
        <ele>123</ele>
        <time>2026-06-28T17:48:58.000Z</time>
      </trkpt>
      <trkpt lat="43.38733" lon="-1.49117">
        <ele>118</ele>
        <time>2026-06-28T17:49:09.000Z</time>
      </trkpt>
      <trkpt lat="43.387" lon="-1.48838">
        <ele>107</ele>
        <time>2026-06-28T17:49:45.000Z</time>
      </trkpt>
      <trkpt lat="43.38692" lon="-1.48813">
        <ele>107</ele>
        <time>2026-06-28T17:49:49.000Z</time>
      </trkpt>
      <trkpt lat="43.38653" lon="-1.48743">
        <ele>108</ele>
        <time>2026-06-28T17:50:00.000Z</time>
      </trkpt>
      <trkpt lat="43.38643" lon="-1.48714">
        <ele>107</ele>
        <time>2026-06-28T17:50:04.000Z</time>
      </trkpt>
      <trkpt lat="43.38634" lon="-1.48577">
        <ele>113</ele>
        <time>2026-06-28T17:50:22.000Z</time>
      </trkpt>
      <trkpt lat="43.38635" lon="-1.48554">
        <ele>114</ele>
        <time>2026-06-28T17:50:25.000Z</time>
      </trkpt>
      <trkpt lat="43.38642" lon="-1.48523">
        <ele>116</ele>
        <time>2026-06-28T17:50:29.000Z</time>
      </trkpt>
      <trkpt lat="43.38651" lon="-1.48504">
        <ele>117</ele>
        <time>2026-06-28T17:50:32.000Z</time>
      </trkpt>
      <trkpt lat="43.38667" lon="-1.48486">
        <ele>117</ele>
        <time>2026-06-28T17:50:36.000Z</time>
      </trkpt>
      <trkpt lat="43.38707" lon="-1.48455">
        <ele>115</ele>
        <time>2026-06-28T17:50:44.000Z</time>
      </trkpt>
      <trkpt lat="43.3872" lon="-1.48441">
        <ele>114</ele>
        <time>2026-06-28T17:50:47.000Z</time>
      </trkpt>
      <trkpt lat="43.38746" lon="-1.48403">
        <ele>113</ele>
        <time>2026-06-28T17:50:54.000Z</time>
      </trkpt>
      <trkpt lat="43.38774" lon="-1.48355">
        <ele>111</ele>
        <time>2026-06-28T17:51:02.000Z</time>
      </trkpt>
      <trkpt lat="43.38786" lon="-1.48313">
        <ele>111</ele>
        <time>2026-06-28T17:51:08.000Z</time>
      </trkpt>
      <trkpt lat="43.38808" lon="-1.48172">
        <ele>113</ele>
        <time>2026-06-28T17:51:26.000Z</time>
      </trkpt>
      <trkpt lat="43.38807" lon="-1.48149">
        <ele>113</ele>
        <time>2026-06-28T17:51:29.000Z</time>
      </trkpt>
      <trkpt lat="43.38796" lon="-1.48035">
        <ele>111</ele>
        <time>2026-06-28T17:51:44.000Z</time>
      </trkpt>
      <trkpt lat="43.38789" lon="-1.48015">
        <ele>110</ele>
        <time>2026-06-28T17:51:47.000Z</time>
      </trkpt>
      <trkpt lat="43.38771" lon="-1.47993">
        <ele>109</ele>
        <time>2026-06-28T17:51:51.000Z</time>
      </trkpt>
      <trkpt lat="43.3872" lon="-1.47958">
        <ele>107</ele>
        <time>2026-06-28T17:52:01.000Z</time>
      </trkpt>
      <trkpt lat="43.38699" lon="-1.47932">
        <ele>104</ele>
        <time>2026-06-28T17:52:07.000Z</time>
      </trkpt>
      <trkpt lat="43.38675" lon="-1.47889">
        <ele>102</ele>
        <time>2026-06-28T17:52:14.000Z</time>
      </trkpt>
      <trkpt lat="43.38646" lon="-1.47828">
        <ele>99</ele>
        <time>2026-06-28T17:52:23.000Z</time>
      </trkpt>
      <trkpt lat="43.38611" lon="-1.47768">
        <ele>95</ele>
        <time>2026-06-28T17:52:33.000Z</time>
      </trkpt>
      <trkpt lat="43.386" lon="-1.47741">
        <ele>94</ele>
        <time>2026-06-28T17:52:37.000Z</time>
      </trkpt>
      <trkpt lat="43.38592" lon="-1.47712">
        <ele>92</ele>
        <time>2026-06-28T17:52:41.000Z</time>
      </trkpt>
      <trkpt lat="43.38578" lon="-1.47638">
        <ele>90</ele>
        <time>2026-06-28T17:52:51.000Z</time>
      </trkpt>
      <trkpt lat="43.38575" lon="-1.47609">
        <ele>90</ele>
        <time>2026-06-28T17:52:55.000Z</time>
      </trkpt>
      <trkpt lat="43.38575" lon="-1.47566">
        <ele>88</ele>
        <time>2026-06-28T17:53:00.000Z</time>
      </trkpt>
      <trkpt lat="43.38583" lon="-1.47479">
        <ele>86</ele>
        <time>2026-06-28T17:53:11.000Z</time>
      </trkpt>
      <trkpt lat="43.38582" lon="-1.47451">
        <ele>87</ele>
        <time>2026-06-28T17:53:15.000Z</time>
      </trkpt>
      <trkpt lat="43.38578" lon="-1.47424">
        <ele>87</ele>
        <time>2026-06-28T17:53:19.000Z</time>
      </trkpt>
      <trkpt lat="43.38535" lon="-1.47266">
        <ele>80</ele>
        <time>2026-06-28T17:53:40.000Z</time>
      </trkpt>
      <trkpt lat="43.38532" lon="-1.47241">
        <ele>78</ele>
        <time>2026-06-28T17:53:44.000Z</time>
      </trkpt>
      <trkpt lat="43.38536" lon="-1.47218">
        <ele>76</ele>
        <time>2026-06-28T17:53:47.000Z</time>
      </trkpt>
      <trkpt lat="43.38542" lon="-1.47208">
        <ele>76</ele>
        <time>2026-06-28T17:53:49.000Z</time>
      </trkpt>
      <trkpt lat="43.38565" lon="-1.47186">
        <ele>76</ele>
        <time>2026-06-28T17:53:53.000Z</time>
      </trkpt>
      <trkpt lat="43.38576" lon="-1.47168">
        <ele>75</ele>
        <time>2026-06-28T17:53:57.000Z</time>
      </trkpt>
      <trkpt lat="43.38578" lon="-1.47157">
        <ele>75</ele>
        <time>2026-06-28T17:53:58.000Z</time>
      </trkpt>
      <trkpt lat="43.38575" lon="-1.47133">
        <ele>74</ele>
        <time>2026-06-28T17:54:01.000Z</time>
      </trkpt>
      <trkpt lat="43.38559" lon="-1.47071">
        <ele>70</ele>
        <time>2026-06-28T17:54:10.000Z</time>
      </trkpt>
      <trkpt lat="43.38542" lon="-1.47017">
        <ele>69</ele>
        <time>2026-06-28T17:54:17.000Z</time>
      </trkpt>
      <trkpt lat="43.38488" lon="-1.46892">
        <ele>56</ele>
        <time>2026-06-28T17:54:36.000Z</time>
      </trkpt>
      <trkpt lat="43.38467" lon="-1.46849">
        <ele>54</ele>
        <time>2026-06-28T17:54:43.000Z</time>
      </trkpt>
      <trkpt lat="43.38364" lon="-1.46671">
        <ele>46</ele>
        <time>2026-06-28T17:55:12.000Z</time>
      </trkpt>
      <trkpt lat="43.38355" lon="-1.46644">
        <ele>45</ele>
        <time>2026-06-28T17:55:16.000Z</time>
      </trkpt>
      <trkpt lat="43.38352" lon="-1.46614">
        <ele>45</ele>
        <time>2026-06-28T17:55:20.000Z</time>
      </trkpt>
      <trkpt lat="43.38352" lon="-1.46566">
        <ele>44</ele>
        <time>2026-06-28T17:55:26.000Z</time>
      </trkpt>
      <trkpt lat="43.38357" lon="-1.46519">
        <ele>42</ele>
        <time>2026-06-28T17:55:32.000Z</time>
      </trkpt>
      <trkpt lat="43.38371" lon="-1.46477">
        <ele>41</ele>
        <time>2026-06-28T17:55:38.000Z</time>
      </trkpt>
      <trkpt lat="43.38397" lon="-1.4642">
        <ele>39</ele>
        <time>2026-06-28T17:55:47.000Z</time>
      </trkpt>
      <trkpt lat="43.38464" lon="-1.46372">
        <ele>36</ele>
        <time>2026-06-28T17:56:00.000Z</time>
      </trkpt>
      <trkpt lat="43.38482" lon="-1.46367">
        <ele>35</ele>
        <time>2026-06-28T17:56:04.000Z</time>
      </trkpt>
      <trkpt lat="43.38518" lon="-1.46371">
        <ele>34</ele>
        <time>2026-06-28T17:56:10.000Z</time>
      </trkpt>
      <trkpt lat="43.38535" lon="-1.46366">
        <ele>34</ele>
        <time>2026-06-28T17:56:13.000Z</time>
      </trkpt>
      <trkpt lat="43.38551" lon="-1.46353">
        <ele>35</ele>
        <time>2026-06-28T17:56:17.000Z</time>
      </trkpt>
      <trkpt lat="43.3859" lon="-1.46299">
        <ele>39</ele>
        <time>2026-06-28T17:56:26.000Z</time>
      </trkpt>
      <trkpt lat="43.38606" lon="-1.46285">
        <ele>41</ele>
        <time>2026-06-28T17:56:30.000Z</time>
      </trkpt>
      <trkpt lat="43.3863" lon="-1.46275">
        <ele>43</ele>
        <time>2026-06-28T17:56:34.000Z</time>
      </trkpt>
      <trkpt lat="43.38648" lon="-1.46275">
        <ele>43</ele>
        <time>2026-06-28T17:56:37.000Z</time>
      </trkpt>
      <trkpt lat="43.38667" lon="-1.46279">
        <ele>44</ele>
        <time>2026-06-28T17:56:41.000Z</time>
      </trkpt>
      <trkpt lat="43.38692" lon="-1.46295">
        <ele>44</ele>
        <time>2026-06-28T17:56:46.000Z</time>
      </trkpt>
      <trkpt lat="43.38708" lon="-1.46311">
        <ele>43</ele>
        <time>2026-06-28T17:56:49.000Z</time>
      </trkpt>
      <trkpt lat="43.38721" lon="-1.4632">
        <ele>44</ele>
        <time>2026-06-28T17:56:52.000Z</time>
      </trkpt>
      <trkpt lat="43.38743" lon="-1.46328">
        <ele>45</ele>
        <time>2026-06-28T17:56:56.000Z</time>
      </trkpt>
      <trkpt lat="43.38786" lon="-1.46309">
        <ele>47</ele>
        <time>2026-06-28T17:57:04.000Z</time>
      </trkpt>
      <trkpt lat="43.38824" lon="-1.46288">
        <ele>50</ele>
        <time>2026-06-28T17:57:11.000Z</time>
      </trkpt>
      <trkpt lat="43.38846" lon="-1.46281">
        <ele>50</ele>
        <time>2026-06-28T17:57:15.000Z</time>
      </trkpt>
      <trkpt lat="43.38859" lon="-1.46274">
        <ele>49</ele>
        <time>2026-06-28T17:57:18.000Z</time>
      </trkpt>
      <trkpt lat="43.38941" lon="-1.46218">
        <ele>52</ele>
        <time>2026-06-28T17:57:34.000Z</time>
      </trkpt>
      <trkpt lat="43.38967" lon="-1.46194">
        <ele>52</ele>
        <time>2026-06-28T17:57:40.000Z</time>
      </trkpt>
      <trkpt lat="43.38978" lon="-1.46179">
        <ele>52</ele>
        <time>2026-06-28T17:57:42.000Z</time>
      </trkpt>
      <trkpt lat="43.38979" lon="-1.4617">
        <ele>54</ele>
        <time>2026-06-28T17:57:43.000Z</time>
      </trkpt>
      <trkpt lat="43.38999" lon="-1.46139">
        <ele>56</ele>
        <time>2026-06-28T17:57:49.000Z</time>
      </trkpt>
      <trkpt lat="43.39032" lon="-1.46078">
        <ele>57</ele>
        <time>2026-06-28T17:57:59.000Z</time>
      </trkpt>
      <trkpt lat="43.39081" lon="-1.46005">
        <ele>57</ele>
        <time>2026-06-28T17:58:12.000Z</time>
      </trkpt>
      <trkpt lat="43.39113" lon="-1.45968">
        <ele>57</ele>
        <time>2026-06-28T17:58:19.000Z</time>
      </trkpt>
      <trkpt lat="43.39126" lon="-1.45958">
        <ele>57</ele>
        <time>2026-06-28T17:58:22.000Z</time>
      </trkpt>
      <trkpt lat="43.39141" lon="-1.45951">
        <ele>57</ele>
        <time>2026-06-28T17:58:24.000Z</time>
      </trkpt>
      <trkpt lat="43.39243" lon="-1.45942">
        <ele>55</ele>
        <time>2026-06-28T17:58:43.000Z</time>
      </trkpt>
      <trkpt lat="43.39249" lon="-1.45944">
        <ele>54</ele>
        <time>2026-06-28T17:58:44.000Z</time>
      </trkpt>
      <trkpt lat="43.39269" lon="-1.45963">
        <ele>53</ele>
        <time>2026-06-28T17:58:48.000Z</time>
      </trkpt>
      <trkpt lat="43.39332" lon="-1.46037">
        <ele>55</ele>
        <time>2026-06-28T17:59:03.000Z</time>
      </trkpt>
      <trkpt lat="43.39368" lon="-1.46092">
        <ele>54</ele>
        <time>2026-06-28T17:59:12.000Z</time>
      </trkpt>
      <trkpt lat="43.39435" lon="-1.46205">
        <ele>50</ele>
        <time>2026-06-28T17:59:31.000Z</time>
      </trkpt>
      <trkpt lat="43.39467" lon="-1.46252">
        <ele>50</ele>
        <time>2026-06-28T17:59:40.000Z</time>
      </trkpt>
      <trkpt lat="43.39499" lon="-1.46293">
        <ele>50</ele>
        <time>2026-06-28T17:59:47.000Z</time>
      </trkpt>
      <trkpt lat="43.39631" lon="-1.46454">
        <ele>47</ele>
        <time>2026-06-28T18:00:19.000Z</time>
      </trkpt>
      <trkpt lat="43.39686" lon="-1.46505">
        <ele>48</ele>
        <time>2026-06-28T18:00:31.000Z</time>
      </trkpt>
      <trkpt lat="43.39714" lon="-1.46521">
        <ele>48</ele>
        <time>2026-06-28T18:00:36.000Z</time>
      </trkpt>
      <trkpt lat="43.39754" lon="-1.46534">
        <ele>50</ele>
        <time>2026-06-28T18:00:43.000Z</time>
      </trkpt>
      <trkpt lat="43.3977" lon="-1.46536">
        <ele>50</ele>
        <time>2026-06-28T18:00:46.000Z</time>
      </trkpt>
      <trkpt lat="43.39793" lon="-1.46537">
        <ele>51</ele>
        <time>2026-06-28T18:00:50.000Z</time>
      </trkpt>
      <trkpt lat="43.39825" lon="-1.46531">
        <ele>52</ele>
        <time>2026-06-28T18:00:56.000Z</time>
      </trkpt>
      <trkpt lat="43.39851" lon="-1.46522">
        <ele>52</ele>
        <time>2026-06-28T18:01:01.000Z</time>
      </trkpt>
      <trkpt lat="43.39907" lon="-1.46493">
        <ele>51</ele>
        <time>2026-06-28T18:01:11.000Z</time>
      </trkpt>
      <trkpt lat="43.39921" lon="-1.46484">
        <ele>50</ele>
        <time>2026-06-28T18:01:14.000Z</time>
      </trkpt>
      <trkpt lat="43.39931" lon="-1.46473">
        <ele>51</ele>
        <time>2026-06-28T18:01:16.000Z</time>
      </trkpt>
      <trkpt lat="43.39949" lon="-1.46411">
        <ele>52</ele>
        <time>2026-06-28T18:01:25.000Z</time>
      </trkpt>
      <trkpt lat="43.39946" lon="-1.46393">
        <ele>52</ele>
        <time>2026-06-28T18:01:27.000Z</time>
      </trkpt>
      <trkpt lat="43.39939" lon="-1.46374">
        <ele>52</ele>
        <time>2026-06-28T18:01:30.000Z</time>
      </trkpt>
      <trkpt lat="43.39906" lon="-1.46309">
        <ele>52</ele>
        <time>2026-06-28T18:01:40.000Z</time>
      </trkpt>
      <trkpt lat="43.39871" lon="-1.46222">
        <ele>47</ele>
        <time>2026-06-28T18:01:53.000Z</time>
      </trkpt>
      <trkpt lat="43.39859" lon="-1.46201">
        <ele>45</ele>
        <time>2026-06-28T18:01:57.000Z</time>
      </trkpt>
      <trkpt lat="43.39843" lon="-1.4618">
        <ele>44</ele>
        <time>2026-06-28T18:02:01.000Z</time>
      </trkpt>
      <trkpt lat="43.39795" lon="-1.46137">
        <ele>43</ele>
        <time>2026-06-28T18:02:11.000Z</time>
      </trkpt>
      <trkpt lat="43.39726" lon="-1.46088">
        <ele>42</ele>
        <time>2026-06-28T18:02:25.000Z</time>
      </trkpt>
      <trkpt lat="43.39678" lon="-1.46057">
        <ele>37</ele>
        <time>2026-06-28T18:02:34.000Z</time>
      </trkpt>
      <trkpt lat="43.39642" lon="-1.4604">
        <ele>35</ele>
        <time>2026-06-28T18:02:41.000Z</time>
      </trkpt>
      <trkpt lat="43.3956" lon="-1.46011">
        <ele>36</ele>
        <time>2026-06-28T18:02:56.000Z</time>
      </trkpt>
      <trkpt lat="43.39526" lon="-1.45996">
        <ele>39</ele>
        <time>2026-06-28T18:03:02.000Z</time>
      </trkpt>
      <trkpt lat="43.39468" lon="-1.45959">
        <ele>41</ele>
        <time>2026-06-28T18:03:14.000Z</time>
      </trkpt>
      <trkpt lat="43.39437" lon="-1.45946">
        <ele>42</ele>
        <time>2026-06-28T18:03:19.000Z</time>
      </trkpt>
      <trkpt lat="43.39426" lon="-1.45935">
        <ele>42</ele>
        <time>2026-06-28T18:03:22.000Z</time>
      </trkpt>
      <trkpt lat="43.39417" lon="-1.45917">
        <ele>39</ele>
        <time>2026-06-28T18:03:25.000Z</time>
      </trkpt>
      <trkpt lat="43.39412" lon="-1.45896">
        <ele>37</ele>
        <time>2026-06-28T18:03:27.000Z</time>
      </trkpt>
      <trkpt lat="43.39414" lon="-1.45827">
        <ele>30</ele>
        <time>2026-06-28T18:03:36.000Z</time>
      </trkpt>
      <trkpt lat="43.39405" lon="-1.45799">
        <ele>29</ele>
        <time>2026-06-28T18:03:40.000Z</time>
      </trkpt>
      <trkpt lat="43.39406" lon="-1.45787">
        <ele>29</ele>
        <time>2026-06-28T18:03:42.000Z</time>
      </trkpt>
      <trkpt lat="43.3941" lon="-1.45782">
        <ele>28</ele>
        <time>2026-06-28T18:03:43.000Z</time>
      </trkpt>
      <trkpt lat="43.39426" lon="-1.45775">
        <ele>27</ele>
        <time>2026-06-28T18:03:46.000Z</time>
      </trkpt>
      <trkpt lat="43.39436" lon="-1.45762">
        <ele>26</ele>
        <time>2026-06-28T18:03:48.000Z</time>
      </trkpt>
      <trkpt lat="43.39462" lon="-1.45694">
        <ele>24</ele>
        <time>2026-06-28T18:03:58.000Z</time>
      </trkpt>
      <trkpt lat="43.39497" lon="-1.45624">
        <ele>23</ele>
        <time>2026-06-28T18:04:09.000Z</time>
      </trkpt>
      <trkpt lat="43.39507" lon="-1.4561">
        <ele>22</ele>
        <time>2026-06-28T18:04:12.000Z</time>
      </trkpt>
      <trkpt lat="43.3952" lon="-1.45601">
        <ele>22</ele>
        <time>2026-06-28T18:04:14.000Z</time>
      </trkpt>
      <trkpt lat="43.39581" lon="-1.45575">
        <ele>21</ele>
        <time>2026-06-28T18:04:26.000Z</time>
      </trkpt>
      <trkpt lat="43.39594" lon="-1.45572">
        <ele>20</ele>
        <time>2026-06-28T18:04:28.000Z</time>
      </trkpt>
      <trkpt lat="43.39608" lon="-1.45573">
        <ele>20</ele>
        <time>2026-06-28T18:04:31.000Z</time>
      </trkpt>
      <trkpt lat="43.39654" lon="-1.45581">
        <ele>19</ele>
        <time>2026-06-28T18:04:39.000Z</time>
      </trkpt>
      <trkpt lat="43.39668" lon="-1.45577">
        <ele>19</ele>
        <time>2026-06-28T18:04:41.000Z</time>
      </trkpt>
      <trkpt lat="43.3968" lon="-1.45557">
        <ele>18</ele>
        <time>2026-06-28T18:04:45.000Z</time>
      </trkpt>
      <trkpt lat="43.39681" lon="-1.45549">
        <ele>18</ele>
        <time>2026-06-28T18:04:46.000Z</time>
      </trkpt>
      <trkpt lat="43.39677" lon="-1.45517">
        <ele>18</ele>
        <time>2026-06-28T18:04:50.000Z</time>
      </trkpt>
      <trkpt lat="43.39678" lon="-1.45502">
        <ele>18</ele>
        <time>2026-06-28T18:04:52.000Z</time>
      </trkpt>
      <trkpt lat="43.39693" lon="-1.45448">
        <ele>16</ele>
        <time>2026-06-28T18:04:59.000Z</time>
      </trkpt>
      <trkpt lat="43.39694" lon="-1.45432">
        <ele>15</ele>
        <time>2026-06-28T18:05:01.000Z</time>
      </trkpt>
      <trkpt lat="43.39692" lon="-1.45424">
        <ele>15</ele>
        <time>2026-06-28T18:05:03.000Z</time>
      </trkpt>
      <trkpt lat="43.39683" lon="-1.45414">
        <ele>15</ele>
        <time>2026-06-28T18:05:05.000Z</time>
      </trkpt>
      <trkpt lat="43.39625" lon="-1.45393">
        <ele>15</ele>
        <time>2026-06-28T18:05:15.000Z</time>
      </trkpt>
      <trkpt lat="43.39614" lon="-1.45385">
        <ele>16</ele>
        <time>2026-06-28T18:05:18.000Z</time>
      </trkpt>
      <trkpt lat="43.39521" lon="-1.45283">
        <ele>21</ele>
        <time>2026-06-28T18:05:39.000Z</time>
      </trkpt>
      <trkpt lat="43.39462" lon="-1.45239">
        <ele>22</ele>
        <time>2026-06-28T18:05:51.000Z</time>
      </trkpt>
      <trkpt lat="43.39445" lon="-1.45216">
        <ele>21</ele>
        <time>2026-06-28T18:05:55.000Z</time>
      </trkpt>
      <trkpt lat="43.39426" lon="-1.45198">
        <ele>20</ele>
        <time>2026-06-28T18:05:59.000Z</time>
      </trkpt>
      <trkpt lat="43.39352" lon="-1.45144">
        <ele>21</ele>
        <time>2026-06-28T18:06:14.000Z</time>
      </trkpt>
      <trkpt lat="43.3934" lon="-1.45119">
        <ele>21</ele>
        <time>2026-06-28T18:06:18.000Z</time>
      </trkpt>
      <trkpt lat="43.39316" lon="-1.45094">
        <ele>20</ele>
        <time>2026-06-28T18:06:23.000Z</time>
      </trkpt>
      <trkpt lat="43.3931" lon="-1.45092">
        <ele>19</ele>
        <time>2026-06-28T18:06:24.000Z</time>
      </trkpt>
      <trkpt lat="43.39297" lon="-1.45095">
        <ele>18</ele>
        <time>2026-06-28T18:06:27.000Z</time>
      </trkpt>
      <trkpt lat="43.39263" lon="-1.45112">
        <ele>17</ele>
        <time>2026-06-28T18:06:33.000Z</time>
      </trkpt>
      <trkpt lat="43.3925" lon="-1.4511">
        <ele>16</ele>
        <time>2026-06-28T18:06:35.000Z</time>
      </trkpt>
      <trkpt lat="43.39214" lon="-1.45009">
        <ele>7</ele>
        <time>2026-06-28T18:06:50.000Z</time>
      </trkpt>
      <trkpt lat="43.39191" lon="-1.44961">
        <ele>7</ele>
        <time>2026-06-28T18:06:57.000Z</time>
      </trkpt>
      <trkpt lat="43.39164" lon="-1.44895">
        <ele>9</ele>
        <time>2026-06-28T18:07:07.000Z</time>
      </trkpt>
      <trkpt lat="43.39148" lon="-1.44848">
        <ele>8</ele>
        <time>2026-06-28T18:07:14.000Z</time>
      </trkpt>
      <trkpt lat="43.39115" lon="-1.44731">
        <ele>7</ele>
        <time>2026-06-28T18:07:30.000Z</time>
      </trkpt>
      <trkpt lat="43.39104" lon="-1.447">
        <ele>7</ele>
        <time>2026-06-28T18:07:34.000Z</time>
      </trkpt>
      <trkpt lat="43.39073" lon="-1.4463">
        <ele>7</ele>
        <time>2026-06-28T18:07:45.000Z</time>
      </trkpt>
      <trkpt lat="43.39069" lon="-1.44611">
        <ele>7</ele>
        <time>2026-06-28T18:07:48.000Z</time>
      </trkpt>
      <trkpt lat="43.39069" lon="-1.44598">
        <ele>6</ele>
        <time>2026-06-28T18:07:49.000Z</time>
      </trkpt>
      <trkpt lat="43.39075" lon="-1.44569">
        <ele>6</ele>
        <time>2026-06-28T18:07:53.000Z</time>
      </trkpt>
      <trkpt lat="43.39144" lon="-1.44393">
        <ele>14</ele>
        <time>2026-06-28T18:08:19.000Z</time>
      </trkpt>
      <trkpt lat="43.39149" lon="-1.44372">
        <ele>16</ele>
        <time>2026-06-28T18:08:22.000Z</time>
      </trkpt>
      <trkpt lat="43.39145" lon="-1.44336">
        <ele>19</ele>
        <time>2026-06-28T18:08:27.000Z</time>
      </trkpt>
      <trkpt lat="43.39126" lon="-1.4429">
        <ele>22</ele>
        <time>2026-06-28T18:08:33.000Z</time>
      </trkpt>
      <trkpt lat="43.39122" lon="-1.44276">
        <ele>24</ele>
        <time>2026-06-28T18:08:35.000Z</time>
      </trkpt>
      <trkpt lat="43.39121" lon="-1.44261">
        <ele>25</ele>
        <time>2026-06-28T18:08:37.000Z</time>
      </trkpt>
      <trkpt lat="43.39129" lon="-1.44181">
        <ele>31</ele>
        <time>2026-06-28T18:08:48.000Z</time>
      </trkpt>
      <trkpt lat="43.39149" lon="-1.44085">
        <ele>39</ele>
        <time>2026-06-28T18:09:01.000Z</time>
      </trkpt>
      <trkpt lat="43.39154" lon="-1.44027">
        <ele>42</ele>
        <time>2026-06-28T18:09:08.000Z</time>
      </trkpt>
      <trkpt lat="43.39153" lon="-1.43999">
        <ele>44</ele>
        <time>2026-06-28T18:09:12.000Z</time>
      </trkpt>
      <trkpt lat="43.39143" lon="-1.43954">
        <ele>47</ele>
        <time>2026-06-28T18:09:18.000Z</time>
      </trkpt>
      <trkpt lat="43.39123" lon="-1.43913">
        <ele>48</ele>
        <time>2026-06-28T18:09:24.000Z</time>
      </trkpt>
      <trkpt lat="43.39086" lon="-1.4385">
        <ele>48</ele>
        <time>2026-06-28T18:09:35.000Z</time>
      </trkpt>
      <trkpt lat="43.38998" lon="-1.43801">
        <ele>49</ele>
        <time>2026-06-28T18:09:52.000Z</time>
      </trkpt>
      <trkpt lat="43.38977" lon="-1.43784">
        <ele>50</ele>
        <time>2026-06-28T18:09:56.000Z</time>
      </trkpt>
      <trkpt lat="43.38965" lon="-1.43765">
        <ele>51</ele>
        <time>2026-06-28T18:09:59.000Z</time>
      </trkpt>
      <trkpt lat="43.38956" lon="-1.43743">
        <ele>51</ele>
        <time>2026-06-28T18:10:03.000Z</time>
      </trkpt>
      <trkpt lat="43.38953" lon="-1.43728">
        <ele>52</ele>
        <time>2026-06-28T18:10:05.000Z</time>
      </trkpt>
      <trkpt lat="43.38946" lon="-1.4361">
        <ele>57</ele>
        <time>2026-06-28T18:10:20.000Z</time>
      </trkpt>
      <trkpt lat="43.38931" lon="-1.43522">
        <ele>59</ele>
        <time>2026-06-28T18:10:32.000Z</time>
      </trkpt>
      <trkpt lat="43.38921" lon="-1.43491">
        <ele>59</ele>
        <time>2026-06-28T18:10:36.000Z</time>
      </trkpt>
      <trkpt lat="43.38904" lon="-1.43452">
        <ele>58</ele>
        <time>2026-06-28T18:10:42.000Z</time>
      </trkpt>
      <trkpt lat="43.38875" lon="-1.43397">
        <ele>57</ele>
        <time>2026-06-28T18:10:51.000Z</time>
      </trkpt>
      <trkpt lat="43.38851" lon="-1.43337">
        <ele>58</ele>
        <time>2026-06-28T18:10:59.000Z</time>
      </trkpt>
      <trkpt lat="43.38825" lon="-1.43251">
        <ele>59</ele>
        <time>2026-06-28T18:11:12.000Z</time>
      </trkpt>
      <trkpt lat="43.38792" lon="-1.43119">
        <ele>61</ele>
        <time>2026-06-28T18:11:30.000Z</time>
      </trkpt>
      <trkpt lat="43.38792" lon="-1.43096">
        <ele>62</ele>
        <time>2026-06-28T18:11:33.000Z</time>
      </trkpt>
      <trkpt lat="43.38797" lon="-1.43052">
        <ele>62</ele>
        <time>2026-06-28T18:11:38.000Z</time>
      </trkpt>
      <trkpt lat="43.38814" lon="-1.42979">
        <ele>62</ele>
        <time>2026-06-28T18:11:48.000Z</time>
      </trkpt>
      <trkpt lat="43.38822" lon="-1.42909">
        <ele>64</ele>
        <time>2026-06-28T18:11:57.000Z</time>
      </trkpt>
      <trkpt lat="43.38816" lon="-1.4289">
        <ele>64</ele>
        <time>2026-06-28T18:12:00.000Z</time>
      </trkpt>
      <trkpt lat="43.38818" lon="-1.4287">
        <ele>65</ele>
        <time>2026-06-28T18:12:03.000Z</time>
      </trkpt>
      <trkpt lat="43.38815" lon="-1.42831">
        <ele>66</ele>
        <time>2026-06-28T18:12:08.000Z</time>
      </trkpt>
      <trkpt lat="43.38821" lon="-1.42743">
        <ele>67</ele>
        <time>2026-06-28T18:12:19.000Z</time>
      </trkpt>
      <trkpt lat="43.38831" lon="-1.42664">
        <ele>73</ele>
        <time>2026-06-28T18:12:30.000Z</time>
      </trkpt>
      <trkpt lat="43.38837" lon="-1.42524">
        <ele>83</ele>
        <time>2026-06-28T18:12:48.000Z</time>
      </trkpt>
      <trkpt lat="43.38834" lon="-1.42489">
        <ele>85</ele>
        <time>2026-06-28T18:12:52.000Z</time>
      </trkpt>
      <trkpt lat="43.38824" lon="-1.42442">
        <ele>87</ele>
        <time>2026-06-28T18:12:59.000Z</time>
      </trkpt>
      <trkpt lat="43.3882" lon="-1.42399">
        <ele>89</ele>
        <time>2026-06-28T18:13:04.000Z</time>
      </trkpt>
      <trkpt lat="43.38818" lon="-1.42242">
        <ele>96</ele>
        <time>2026-06-28T18:13:24.000Z</time>
      </trkpt>
      <trkpt lat="43.38814" lon="-1.42186">
        <ele>95</ele>
        <time>2026-06-28T18:13:32.000Z</time>
      </trkpt>
      <trkpt lat="43.38804" lon="-1.42157">
        <ele>94</ele>
        <time>2026-06-28T18:13:36.000Z</time>
      </trkpt>
      <trkpt lat="43.38754" lon="-1.42069">
        <ele>93</ele>
        <time>2026-06-28T18:13:50.000Z</time>
      </trkpt>
      <trkpt lat="43.38742" lon="-1.42038">
        <ele>91</ele>
        <time>2026-06-28T18:13:55.000Z</time>
      </trkpt>
      <trkpt lat="43.38738" lon="-1.42021">
        <ele>90</ele>
        <time>2026-06-28T18:13:57.000Z</time>
      </trkpt>
      <trkpt lat="43.38736" lon="-1.41984">
        <ele>89</ele>
        <time>2026-06-28T18:14:02.000Z</time>
      </trkpt>
      <trkpt lat="43.3875" lon="-1.41887">
        <ele>91</ele>
        <time>2026-06-28T18:14:15.000Z</time>
      </trkpt>
      <trkpt lat="43.38747" lon="-1.41866">
        <ele>91</ele>
        <time>2026-06-28T18:14:18.000Z</time>
      </trkpt>
      <trkpt lat="43.38707" lon="-1.41729">
        <ele>88</ele>
        <time>2026-06-28T18:14:37.000Z</time>
      </trkpt>
      <trkpt lat="43.38684" lon="-1.41663">
        <ele>87</ele>
        <time>2026-06-28T18:14:46.000Z</time>
      </trkpt>
      <trkpt lat="43.38668" lon="-1.41627">
        <ele>87</ele>
        <time>2026-06-28T18:14:52.000Z</time>
      </trkpt>
      <trkpt lat="43.3852" lon="-1.41349">
        <ele>97</ele>
        <time>2026-06-28T18:15:36.000Z</time>
      </trkpt>
      <trkpt lat="43.38502" lon="-1.41324">
        <ele>98</ele>
        <time>2026-06-28T18:15:41.000Z</time>
      </trkpt>
      <trkpt lat="43.38447" lon="-1.41258">
        <ele>101</ele>
        <time>2026-06-28T18:15:54.000Z</time>
      </trkpt>
      <trkpt lat="43.38407" lon="-1.41183">
        <ele>102</ele>
        <time>2026-06-28T18:16:06.000Z</time>
      </trkpt>
      <trkpt lat="43.38395" lon="-1.41146">
        <ele>101</ele>
        <time>2026-06-28T18:16:11.000Z</time>
      </trkpt>
      <trkpt lat="43.38385" lon="-1.41101">
        <ele>101</ele>
        <time>2026-06-28T18:16:17.000Z</time>
      </trkpt>
      <trkpt lat="43.38379" lon="-1.41024">
        <ele>101</ele>
        <time>2026-06-28T18:16:27.000Z</time>
      </trkpt>
      <trkpt lat="43.38374" lon="-1.40994">
        <ele>101</ele>
        <time>2026-06-28T18:16:31.000Z</time>
      </trkpt>
      <trkpt lat="43.38311" lon="-1.40843">
        <ele>103</ele>
        <time>2026-06-28T18:16:54.000Z</time>
      </trkpt>
      <trkpt lat="43.38284" lon="-1.40768">
        <ele>105</ele>
        <time>2026-06-28T18:17:04.000Z</time>
      </trkpt>
      <trkpt lat="43.38273" lon="-1.40732">
        <ele>107</ele>
        <time>2026-06-28T18:17:09.000Z</time>
      </trkpt>
      <trkpt lat="43.38268" lon="-1.40695">
        <ele>108</ele>
        <time>2026-06-28T18:17:14.000Z</time>
      </trkpt>
      <trkpt lat="43.38261" lon="-1.40664">
        <ele>109</ele>
        <time>2026-06-28T18:17:18.000Z</time>
      </trkpt>
      <trkpt lat="43.38253" lon="-1.4065">
        <ele>109</ele>
        <time>2026-06-28T18:17:21.000Z</time>
      </trkpt>
      <trkpt lat="43.38243" lon="-1.40639">
        <ele>109</ele>
        <time>2026-06-28T18:17:23.000Z</time>
      </trkpt>
      <trkpt lat="43.38199" lon="-1.40618">
        <ele>108</ele>
        <time>2026-06-28T18:17:31.000Z</time>
      </trkpt>
      <trkpt lat="43.38185" lon="-1.40592">
        <ele>108</ele>
        <time>2026-06-28T18:17:36.000Z</time>
      </trkpt>
      <trkpt lat="43.38181" lon="-1.40575">
        <ele>108</ele>
        <time>2026-06-28T18:17:38.000Z</time>
      </trkpt>
      <trkpt lat="43.38179" lon="-1.40537">
        <ele>109</ele>
        <time>2026-06-28T18:17:43.000Z</time>
      </trkpt>
      <trkpt lat="43.38185" lon="-1.40502">
        <ele>108</ele>
        <time>2026-06-28T18:17:47.000Z</time>
      </trkpt>
      <trkpt lat="43.38199" lon="-1.40463">
        <ele>107</ele>
        <time>2026-06-28T18:17:53.000Z</time>
      </trkpt>
      <trkpt lat="43.3823" lon="-1.40408">
        <ele>108</ele>
        <time>2026-06-28T18:18:02.000Z</time>
      </trkpt>
      <trkpt lat="43.38247" lon="-1.40383">
        <ele>109</ele>
        <time>2026-06-28T18:18:06.000Z</time>
      </trkpt>
      <trkpt lat="43.38274" lon="-1.40353">
        <ele>109</ele>
        <time>2026-06-28T18:18:13.000Z</time>
      </trkpt>
      <trkpt lat="43.38365" lon="-1.40277">
        <ele>109</ele>
        <time>2026-06-28T18:18:32.000Z</time>
      </trkpt>
      <trkpt lat="43.3839" lon="-1.40241">
        <ele>109</ele>
        <time>2026-06-28T18:18:38.000Z</time>
      </trkpt>
      <trkpt lat="43.38613" lon="-1.39724">
        <ele>112</ele>
        <time>2026-06-28T18:19:56.000Z</time>
      </trkpt>
      <trkpt lat="43.38632" lon="-1.39699">
        <ele>114</ele>
        <time>2026-06-28T18:20:00.000Z</time>
      </trkpt>
      <trkpt lat="43.38698" lon="-1.39653">
        <ele>117</ele>
        <time>2026-06-28T18:20:14.000Z</time>
      </trkpt>
      <trkpt lat="43.38711" lon="-1.3964">
        <ele>117</ele>
        <time>2026-06-28T18:20:16.000Z</time>
      </trkpt>
      <trkpt lat="43.38723" lon="-1.39611">
        <ele>118</ele>
        <time>2026-06-28T18:20:21.000Z</time>
      </trkpt>
      <trkpt lat="43.38752" lon="-1.39523">
        <ele>120</ele>
        <time>2026-06-28T18:20:33.000Z</time>
      </trkpt>
      <trkpt lat="43.38785" lon="-1.39408">
        <ele>125</ele>
        <time>2026-06-28T18:20:49.000Z</time>
      </trkpt>
      <trkpt lat="43.3881" lon="-1.39344">
        <ele>128</ele>
        <time>2026-06-28T18:20:59.000Z</time>
      </trkpt>
      <trkpt lat="43.38809" lon="-1.39328">
        <ele>128</ele>
        <time>2026-06-28T18:21:01.000Z</time>
      </trkpt>
      <trkpt lat="43.3878" lon="-1.39281">
        <ele>124</ele>
        <time>2026-06-28T18:21:09.000Z</time>
      </trkpt>
      <trkpt lat="43.38764" lon="-1.39238">
        <ele>122</ele>
        <time>2026-06-28T18:21:15.000Z</time>
      </trkpt>
      <trkpt lat="43.38752" lon="-1.39191">
        <ele>121</ele>
        <time>2026-06-28T18:21:21.000Z</time>
      </trkpt>
      <trkpt lat="43.3872" lon="-1.39014">
        <ele>120</ele>
        <time>2026-06-28T18:21:45.000Z</time>
      </trkpt>
      <trkpt lat="43.38705" lon="-1.38734">
        <ele>127</ele>
        <time>2026-06-28T18:22:21.000Z</time>
      </trkpt>
      <trkpt lat="43.3868" lon="-1.38521">
        <ele>128</ele>
        <time>2026-06-28T18:22:49.000Z</time>
      </trkpt>
      <trkpt lat="43.38672" lon="-1.38339">
        <ele>123</ele>
        <time>2026-06-28T18:23:13.000Z</time>
      </trkpt>
      <trkpt lat="43.38662" lon="-1.3827">
        <ele>121</ele>
        <time>2026-06-28T18:23:22.000Z</time>
      </trkpt>
      <trkpt lat="43.38646" lon="-1.38221">
        <ele>117</ele>
        <time>2026-06-28T18:23:29.000Z</time>
      </trkpt>
      <trkpt lat="43.38628" lon="-1.38192">
        <ele>115</ele>
        <time>2026-06-28T18:23:34.000Z</time>
      </trkpt>
      <trkpt lat="43.38576" lon="-1.38154">
        <ele>114</ele>
        <time>2026-06-28T18:23:44.000Z</time>
      </trkpt>
      <trkpt lat="43.38513" lon="-1.38118">
        <ele>117</ele>
        <time>2026-06-28T18:23:56.000Z</time>
      </trkpt>
      <trkpt lat="43.38495" lon="-1.38104">
        <ele>118</ele>
        <time>2026-06-28T18:24:00.000Z</time>
      </trkpt>
      <trkpt lat="43.3848" lon="-1.38088">
        <ele>118</ele>
        <time>2026-06-28T18:24:03.000Z</time>
      </trkpt>
      <trkpt lat="43.38404" lon="-1.37975">
        <ele>116</ele>
        <time>2026-06-28T18:24:23.000Z</time>
      </trkpt>
      <trkpt lat="43.3835" lon="-1.37877">
        <ele>115</ele>
        <time>2026-06-28T18:24:39.000Z</time>
      </trkpt>
      <trkpt lat="43.38335" lon="-1.37841">
        <ele>118</ele>
        <time>2026-06-28T18:24:45.000Z</time>
      </trkpt>
      <trkpt lat="43.38267" lon="-1.37732">
        <ele>118</ele>
        <time>2026-06-28T18:25:03.000Z</time>
      </trkpt>
      <trkpt lat="43.3822" lon="-1.37666">
        <ele>119</ele>
        <time>2026-06-28T18:25:15.000Z</time>
      </trkpt>
      <trkpt lat="43.38132" lon="-1.3755">
        <ele>124</ele>
        <time>2026-06-28T18:25:37.000Z</time>
      </trkpt>
      <trkpt lat="43.37812" lon="-1.37191">
        <ele>122</ele>
        <time>2026-06-28T18:26:50.000Z</time>
      </trkpt>
      <trkpt lat="43.3778" lon="-1.3715">
        <ele>126</ele>
        <time>2026-06-28T18:26:58.000Z</time>
      </trkpt>
      <trkpt lat="43.37757" lon="-1.37098">
        <ele>129</ele>
        <time>2026-06-28T18:27:06.000Z</time>
      </trkpt>
      <trkpt lat="43.37735" lon="-1.37027">
        <ele>130</ele>
        <time>2026-06-28T18:27:16.000Z</time>
      </trkpt>
      <trkpt lat="43.3768" lon="-1.36828">
        <ele>138</ele>
        <time>2026-06-28T18:27:43.000Z</time>
      </trkpt>
      <trkpt lat="43.37673" lon="-1.3679">
        <ele>141</ele>
        <time>2026-06-28T18:27:48.000Z</time>
      </trkpt>
      <trkpt lat="43.3767" lon="-1.36708">
        <ele>141</ele>
        <time>2026-06-28T18:27:59.000Z</time>
      </trkpt>
      <trkpt lat="43.37666" lon="-1.36685">
        <ele>141</ele>
        <time>2026-06-28T18:28:02.000Z</time>
      </trkpt>
      <trkpt lat="43.37656" lon="-1.36665">
        <ele>140</ele>
        <time>2026-06-28T18:28:05.000Z</time>
      </trkpt>
      <trkpt lat="43.37591" lon="-1.36575">
        <ele>137</ele>
        <time>2026-06-28T18:28:22.000Z</time>
      </trkpt>
      <trkpt lat="43.3758" lon="-1.36552">
        <ele>135</ele>
        <time>2026-06-28T18:28:25.000Z</time>
      </trkpt>
      <trkpt lat="43.37564" lon="-1.36517">
        <ele>130</ele>
        <time>2026-06-28T18:28:31.000Z</time>
      </trkpt>
      <trkpt lat="43.37547" lon="-1.36469">
        <ele>127</ele>
        <time>2026-06-28T18:28:38.000Z</time>
      </trkpt>
      <trkpt lat="43.37536" lon="-1.3641">
        <ele>126</ele>
        <time>2026-06-28T18:28:45.000Z</time>
      </trkpt>
      <trkpt lat="43.37538" lon="-1.36308">
        <ele>136</ele>
        <time>2026-06-28T18:28:59.000Z</time>
      </trkpt>
      <trkpt lat="43.37565" lon="-1.36208">
        <ele>139</ele>
        <time>2026-06-28T18:29:12.000Z</time>
      </trkpt>
      <trkpt lat="43.37573" lon="-1.36163">
        <ele>139</ele>
        <time>2026-06-28T18:29:18.000Z</time>
      </trkpt>
      <trkpt lat="43.37568" lon="-1.36093">
        <ele>137</ele>
        <time>2026-06-28T18:29:27.000Z</time>
      </trkpt>
      <trkpt lat="43.37549" lon="-1.36021">
        <ele>134</ele>
        <time>2026-06-28T18:29:37.000Z</time>
      </trkpt>
      <trkpt lat="43.37549" lon="-1.36003">
        <ele>133</ele>
        <time>2026-06-28T18:29:40.000Z</time>
      </trkpt>
      <trkpt lat="43.37555" lon="-1.35988">
        <ele>133</ele>
        <time>2026-06-28T18:29:42.000Z</time>
      </trkpt>
      <trkpt lat="43.37567" lon="-1.35974">
        <ele>134</ele>
        <time>2026-06-28T18:29:45.000Z</time>
      </trkpt>
      <trkpt lat="43.37582" lon="-1.3597">
        <ele>136</ele>
        <time>2026-06-28T18:29:47.000Z</time>
      </trkpt>
      <trkpt lat="43.37595" lon="-1.35975">
        <ele>137</ele>
        <time>2026-06-28T18:29:50.000Z</time>
      </trkpt>
      <trkpt lat="43.37646" lon="-1.36005">
        <ele>141</ele>
        <time>2026-06-28T18:30:00.000Z</time>
      </trkpt>
      <trkpt lat="43.37665" lon="-1.36005">
        <ele>143</ele>
        <time>2026-06-28T18:30:03.000Z</time>
      </trkpt>
      <trkpt lat="43.37686" lon="-1.35996">
        <ele>146</ele>
        <time>2026-06-28T18:30:07.000Z</time>
      </trkpt>
      <trkpt lat="43.37703" lon="-1.35976">
        <ele>150</ele>
        <time>2026-06-28T18:30:11.000Z</time>
      </trkpt>
      <trkpt lat="43.37782" lon="-1.35849">
        <ele>162</ele>
        <time>2026-06-28T18:30:33.000Z</time>
      </trkpt>
      <trkpt lat="43.37825" lon="-1.35813">
        <ele>164</ele>
        <time>2026-06-28T18:30:42.000Z</time>
      </trkpt>
      <trkpt lat="43.37871" lon="-1.35796">
        <ele>166</ele>
        <time>2026-06-28T18:30:50.000Z</time>
      </trkpt>
      <trkpt lat="43.37895" lon="-1.35781">
        <ele>168</ele>
        <time>2026-06-28T18:30:55.000Z</time>
      </trkpt>
      <trkpt lat="43.3791" lon="-1.35762">
        <ele>170</ele>
        <time>2026-06-28T18:30:58.000Z</time>
      </trkpt>
      <trkpt lat="43.37923" lon="-1.35739">
        <ele>171</ele>
        <time>2026-06-28T18:31:02.000Z</time>
      </trkpt>
      <trkpt lat="43.37939" lon="-1.35699">
        <ele>171</ele>
        <time>2026-06-28T18:31:08.000Z</time>
      </trkpt>
      <trkpt lat="43.37945" lon="-1.35661">
        <ele>173</ele>
        <time>2026-06-28T18:31:13.000Z</time>
      </trkpt>
      <trkpt lat="43.37948" lon="-1.35601">
        <ele>178</ele>
        <time>2026-06-28T18:31:21.000Z</time>
      </trkpt>
      <trkpt lat="43.37937" lon="-1.35533">
        <ele>183</ele>
        <time>2026-06-28T18:31:30.000Z</time>
      </trkpt>
      <trkpt lat="43.37924" lon="-1.35478">
        <ele>184</ele>
        <time>2026-06-28T18:31:37.000Z</time>
      </trkpt>
      <trkpt lat="43.3791" lon="-1.35431">
        <ele>181</ele>
        <time>2026-06-28T18:31:44.000Z</time>
      </trkpt>
      <trkpt lat="43.37881" lon="-1.35349">
        <ele>178</ele>
        <time>2026-06-28T18:31:56.000Z</time>
      </trkpt>
      <trkpt lat="43.37849" lon="-1.35273">
        <ele>182</ele>
        <time>2026-06-28T18:32:07.000Z</time>
      </trkpt>
      <trkpt lat="43.37857" lon="-1.35242">
        <ele>184</ele>
        <time>2026-06-28T18:32:11.000Z</time>
      </trkpt>
      <trkpt lat="43.37858" lon="-1.35138">
        <ele>179</ele>
        <time>2026-06-28T18:32:25.000Z</time>
      </trkpt>
      <trkpt lat="43.3786" lon="-1.35124">
        <ele>179</ele>
        <time>2026-06-28T18:32:27.000Z</time>
      </trkpt>
      <trkpt lat="43.37934" lon="-1.35003">
        <ele>179</ele>
        <time>2026-06-28T18:32:47.000Z</time>
      </trkpt>
      <trkpt lat="43.37961" lon="-1.34931">
        <ele>177</ele>
        <time>2026-06-28T18:32:58.000Z</time>
      </trkpt>
      <trkpt lat="43.37975" lon="-1.34908">
        <ele>176</ele>
        <time>2026-06-28T18:33:01.000Z</time>
      </trkpt>
      <trkpt lat="43.38008" lon="-1.34895">
        <ele>171</ele>
        <time>2026-06-28T18:33:08.000Z</time>
      </trkpt>
      <trkpt lat="43.38074" lon="-1.3488">
        <ele>161</ele>
        <time>2026-06-28T18:33:19.000Z</time>
      </trkpt>
      <trkpt lat="43.38238" lon="-1.34762">
        <ele>153</ele>
        <time>2026-06-28T18:33:52.000Z</time>
      </trkpt>
      <trkpt lat="43.38258" lon="-1.34736">
        <ele>152</ele>
        <time>2026-06-28T18:33:57.000Z</time>
      </trkpt>
      <trkpt lat="43.38324" lon="-1.34619">
        <ele>147</ele>
        <time>2026-06-28T18:34:16.000Z</time>
      </trkpt>
      <trkpt lat="43.38348" lon="-1.3458">
        <ele>146</ele>
        <time>2026-06-28T18:34:23.000Z</time>
      </trkpt>
      <trkpt lat="43.38367" lon="-1.34555">
        <ele>145</ele>
        <time>2026-06-28T18:34:28.000Z</time>
      </trkpt>
      <trkpt lat="43.38393" lon="-1.34531">
        <ele>146</ele>
        <time>2026-06-28T18:34:33.000Z</time>
      </trkpt>
      <trkpt lat="43.38471" lon="-1.34472">
        <ele>146</ele>
        <time>2026-06-28T18:34:49.000Z</time>
      </trkpt>
      <trkpt lat="43.38502" lon="-1.34445">
        <ele>145</ele>
        <time>2026-06-28T18:34:56.000Z</time>
      </trkpt>
      <trkpt lat="43.3851" lon="-1.34432">
        <ele>145</ele>
        <time>2026-06-28T18:34:58.000Z</time>
      </trkpt>
      <trkpt lat="43.38518" lon="-1.34409">
        <ele>144</ele>
        <time>2026-06-28T18:35:01.000Z</time>
      </trkpt>
      <trkpt lat="43.38541" lon="-1.34317">
        <ele>143</ele>
        <time>2026-06-28T18:35:14.000Z</time>
      </trkpt>
      <trkpt lat="43.38566" lon="-1.34241">
        <ele>147</ele>
        <time>2026-06-28T18:35:24.000Z</time>
      </trkpt>
      <trkpt lat="43.38637" lon="-1.34083">
        <ele>149</ele>
        <time>2026-06-28T18:35:49.000Z</time>
      </trkpt>
      <trkpt lat="43.3865" lon="-1.34049">
        <ele>148</ele>
        <time>2026-06-28T18:35:53.000Z</time>
      </trkpt>
      <trkpt lat="43.38675" lon="-1.33964">
        <ele>147</ele>
        <time>2026-06-28T18:36:05.000Z</time>
      </trkpt>
      <trkpt lat="43.38692" lon="-1.33923">
        <ele>145</ele>
        <time>2026-06-28T18:36:11.000Z</time>
      </trkpt>
      <trkpt lat="43.38726" lon="-1.33868">
        <ele>147</ele>
        <time>2026-06-28T18:36:21.000Z</time>
      </trkpt>
      <trkpt lat="43.38766" lon="-1.33841">
        <ele>145</ele>
        <time>2026-06-28T18:36:29.000Z</time>
      </trkpt>
      <trkpt lat="43.38822" lon="-1.33798">
        <ele>141</ele>
        <time>2026-06-28T18:36:40.000Z</time>
      </trkpt>
      <trkpt lat="43.38842" lon="-1.33777">
        <ele>141</ele>
        <time>2026-06-28T18:36:45.000Z</time>
      </trkpt>
      <trkpt lat="43.38859" lon="-1.33757">
        <ele>141</ele>
        <time>2026-06-28T18:36:49.000Z</time>
      </trkpt>
      <trkpt lat="43.38891" lon="-1.33697">
        <ele>142</ele>
        <time>2026-06-28T18:36:58.000Z</time>
      </trkpt>
      <trkpt lat="43.38918" lon="-1.33587">
        <ele>153</ele>
        <time>2026-06-28T18:37:13.000Z</time>
      </trkpt>
      <trkpt lat="43.38938" lon="-1.33485">
        <ele>150</ele>
        <time>2026-06-28T18:37:27.000Z</time>
      </trkpt>
      <trkpt lat="43.38939" lon="-1.33467">
        <ele>149</ele>
        <time>2026-06-28T18:37:29.000Z</time>
      </trkpt>
      <trkpt lat="43.38935" lon="-1.33428">
        <ele>148</ele>
        <time>2026-06-28T18:37:34.000Z</time>
      </trkpt>
      <trkpt lat="43.38949" lon="-1.3335">
        <ele>153</ele>
        <time>2026-06-28T18:37:45.000Z</time>
      </trkpt>
      <trkpt lat="43.3895" lon="-1.33325">
        <ele>154</ele>
        <time>2026-06-28T18:37:48.000Z</time>
      </trkpt>
      <trkpt lat="43.38947" lon="-1.33293">
        <ele>154</ele>
        <time>2026-06-28T18:37:52.000Z</time>
      </trkpt>
      <trkpt lat="43.38921" lon="-1.33193">
        <ele>155</ele>
        <time>2026-06-28T18:38:06.000Z</time>
      </trkpt>
      <trkpt lat="43.38917" lon="-1.33155">
        <ele>154</ele>
        <time>2026-06-28T18:38:11.000Z</time>
      </trkpt>
      <trkpt lat="43.38917" lon="-1.33116">
        <ele>154</ele>
        <time>2026-06-28T18:38:16.000Z</time>
      </trkpt>
      <trkpt lat="43.3892" lon="-1.33085">
        <ele>154</ele>
        <time>2026-06-28T18:38:20.000Z</time>
      </trkpt>
      <trkpt lat="43.38941" lon="-1.32982">
        <ele>149</ele>
        <time>2026-06-28T18:38:34.000Z</time>
      </trkpt>
      <trkpt lat="43.38945" lon="-1.32948">
        <ele>149</ele>
        <time>2026-06-28T18:38:38.000Z</time>
      </trkpt>
      <trkpt lat="43.38943" lon="-1.32914">
        <ele>150</ele>
        <time>2026-06-28T18:38:43.000Z</time>
      </trkpt>
      <trkpt lat="43.38932" lon="-1.32837">
        <ele>152</ele>
        <time>2026-06-28T18:38:53.000Z</time>
      </trkpt>
      <trkpt lat="43.38931" lon="-1.32822">
        <ele>152</ele>
        <time>2026-06-28T18:38:55.000Z</time>
      </trkpt>
      <trkpt lat="43.38933" lon="-1.32809">
        <ele>151</ele>
        <time>2026-06-28T18:38:56.000Z</time>
      </trkpt>
      <trkpt lat="43.38942" lon="-1.32788">
        <ele>151</ele>
        <time>2026-06-28T18:39:00.000Z</time>
      </trkpt>
      <trkpt lat="43.38968" lon="-1.32761">
        <ele>148</ele>
        <time>2026-06-28T18:39:05.000Z</time>
      </trkpt>
      <trkpt lat="43.38976" lon="-1.32747">
        <ele>146</ele>
        <time>2026-06-28T18:39:08.000Z</time>
      </trkpt>
      <trkpt lat="43.38984" lon="-1.32667">
        <ele>136</ele>
        <time>2026-06-28T18:39:18.000Z</time>
      </trkpt>
      <trkpt lat="43.38991" lon="-1.32635">
        <ele>134</ele>
        <time>2026-06-28T18:39:22.000Z</time>
      </trkpt>
      <trkpt lat="43.39046" lon="-1.32497">
        <ele>131</ele>
        <time>2026-06-28T18:39:43.000Z</time>
      </trkpt>
      <trkpt lat="43.39059" lon="-1.32475">
        <ele>133</ele>
        <time>2026-06-28T18:39:46.000Z</time>
      </trkpt>
      <trkpt lat="43.39092" lon="-1.32447">
        <ele>136</ele>
        <time>2026-06-28T18:39:53.000Z</time>
      </trkpt>
      <trkpt lat="43.39139" lon="-1.32392">
        <ele>135</ele>
        <time>2026-06-28T18:40:04.000Z</time>
      </trkpt>
      <trkpt lat="43.39144" lon="-1.32377">
        <ele>134</ele>
        <time>2026-06-28T18:40:06.000Z</time>
      </trkpt>
      <trkpt lat="43.39144" lon="-1.32368">
        <ele>134</ele>
        <time>2026-06-28T18:40:08.000Z</time>
      </trkpt>
      <trkpt lat="43.39137" lon="-1.32345">
        <ele>134</ele>
        <time>2026-06-28T18:40:11.000Z</time>
      </trkpt>
      <trkpt lat="43.39131" lon="-1.32337">
        <ele>135</ele>
        <time>2026-06-28T18:40:12.000Z</time>
      </trkpt>
      <trkpt lat="43.39096" lon="-1.32306">
        <ele>135</ele>
        <time>2026-06-28T18:40:20.000Z</time>
      </trkpt>
      <trkpt lat="43.39086" lon="-1.32293">
        <ele>135</ele>
        <time>2026-06-28T18:40:22.000Z</time>
      </trkpt>
      <trkpt lat="43.3906" lon="-1.32218">
        <ele>128</ele>
        <time>2026-06-28T18:40:33.000Z</time>
      </trkpt>
      <trkpt lat="43.3903" lon="-1.32188">
        <ele>126</ele>
        <time>2026-06-28T18:40:39.000Z</time>
      </trkpt>
      <trkpt lat="43.39019" lon="-1.32172">
        <ele>125</ele>
        <time>2026-06-28T18:40:42.000Z</time>
      </trkpt>
      <trkpt lat="43.39003" lon="-1.32142">
        <ele>124</ele>
        <time>2026-06-28T18:40:47.000Z</time>
      </trkpt>
      <trkpt lat="43.3897" lon="-1.32063">
        <ele>117</ele>
        <time>2026-06-28T18:40:59.000Z</time>
      </trkpt>
      <trkpt lat="43.38953" lon="-1.32028">
        <ele>114</ele>
        <time>2026-06-28T18:41:04.000Z</time>
      </trkpt>
      <trkpt lat="43.38867" lon="-1.31892">
        <ele>103</ele>
        <time>2026-06-28T18:41:28.000Z</time>
      </trkpt>
      <trkpt lat="43.38857" lon="-1.31869">
        <ele>100</ele>
        <time>2026-06-28T18:41:31.000Z</time>
      </trkpt>
      <trkpt lat="43.38844" lon="-1.31799">
        <ele>97</ele>
        <time>2026-06-28T18:41:40.000Z</time>
      </trkpt>
      <trkpt lat="43.38815" lon="-1.31735">
        <ele>89</ele>
        <time>2026-06-28T18:41:50.000Z</time>
      </trkpt>
      <trkpt lat="43.38812" lon="-1.31715">
        <ele>87</ele>
        <time>2026-06-28T18:41:53.000Z</time>
      </trkpt>
      <trkpt lat="43.38817" lon="-1.31696">
        <ele>86</ele>
        <time>2026-06-28T18:41:56.000Z</time>
      </trkpt>
      <trkpt lat="43.38829" lon="-1.31679">
        <ele>86</ele>
        <time>2026-06-28T18:41:59.000Z</time>
      </trkpt>
      <trkpt lat="43.38844" lon="-1.31666">
        <ele>87</ele>
        <time>2026-06-28T18:42:02.000Z</time>
      </trkpt>
      <trkpt lat="43.38873" lon="-1.3162">
        <ele>82</ele>
        <time>2026-06-28T18:42:10.000Z</time>
      </trkpt>
      <trkpt lat="43.38889" lon="-1.31607">
        <ele>80</ele>
        <time>2026-06-28T18:42:13.000Z</time>
      </trkpt>
      <trkpt lat="43.38906" lon="-1.31597">
        <ele>79</ele>
        <time>2026-06-28T18:42:16.000Z</time>
      </trkpt>
      <trkpt lat="43.38925" lon="-1.31593">
        <ele>79</ele>
        <time>2026-06-28T18:42:20.000Z</time>
      </trkpt>
      <trkpt lat="43.38958" lon="-1.31595">
        <ele>78</ele>
        <time>2026-06-28T18:42:25.000Z</time>
      </trkpt>
      <trkpt lat="43.38964" lon="-1.31589">
        <ele>76</ele>
        <time>2026-06-28T18:42:27.000Z</time>
      </trkpt>
      <trkpt lat="43.38962" lon="-1.3158">
        <ele>74</ele>
        <time>2026-06-28T18:42:28.000Z</time>
      </trkpt>
      <trkpt lat="43.38924" lon="-1.31573">
        <ele>75</ele>
        <time>2026-06-28T18:42:35.000Z</time>
      </trkpt>
      <trkpt lat="43.38909" lon="-1.31568">
        <ele>74</ele>
        <time>2026-06-28T18:42:38.000Z</time>
      </trkpt>
      <trkpt lat="43.38896" lon="-1.31563">
        <ele>72</ele>
        <time>2026-06-28T18:42:40.000Z</time>
      </trkpt>
      <trkpt lat="43.38867" lon="-1.31546">
        <ele>67</ele>
        <time>2026-06-28T18:42:46.000Z</time>
      </trkpt>
      <trkpt lat="43.38858" lon="-1.31545">
        <ele>66</ele>
        <time>2026-06-28T18:42:47.000Z</time>
      </trkpt>
      <trkpt lat="43.38804" lon="-1.31565">
        <ele>66</ele>
        <time>2026-06-28T18:42:57.000Z</time>
      </trkpt>
      <trkpt lat="43.38783" lon="-1.31569">
        <ele>65</ele>
        <time>2026-06-28T18:43:01.000Z</time>
      </trkpt>
      <trkpt lat="43.38741" lon="-1.31566">
        <ele>62</ele>
        <time>2026-06-28T18:43:08.000Z</time>
      </trkpt>
      <trkpt lat="43.38701" lon="-1.31559">
        <ele>61</ele>
        <time>2026-06-28T18:43:16.000Z</time>
      </trkpt>
      <trkpt lat="43.38671" lon="-1.3154">
        <ele>61</ele>
        <time>2026-06-28T18:43:21.000Z</time>
      </trkpt>
      <trkpt lat="43.38631" lon="-1.31494">
        <ele>60</ele>
        <time>2026-06-28T18:43:31.000Z</time>
      </trkpt>
      <trkpt lat="43.38609" lon="-1.31465">
        <ele>60</ele>
        <time>2026-06-28T18:43:36.000Z</time>
      </trkpt>
      <trkpt lat="43.38569" lon="-1.31397">
        <ele>60</ele>
        <time>2026-06-28T18:43:47.000Z</time>
      </trkpt>
      <trkpt lat="43.38545" lon="-1.31374">
        <ele>61</ele>
        <time>2026-06-28T18:43:53.000Z</time>
      </trkpt>
      <trkpt lat="43.38528" lon="-1.31353">
        <ele>61</ele>
        <time>2026-06-28T18:43:57.000Z</time>
      </trkpt>
      <trkpt lat="43.38517" lon="-1.31345">
        <ele>62</ele>
        <time>2026-06-28T18:43:59.000Z</time>
      </trkpt>
      <trkpt lat="43.38494" lon="-1.31333">
        <ele>62</ele>
        <time>2026-06-28T18:44:03.000Z</time>
      </trkpt>
      <trkpt lat="43.38466" lon="-1.31323">
        <ele>61</ele>
        <time>2026-06-28T18:44:08.000Z</time>
      </trkpt>
      <trkpt lat="43.38414" lon="-1.31317">
        <ele>60</ele>
        <time>2026-06-28T18:44:18.000Z</time>
      </trkpt>
      <trkpt lat="43.38356" lon="-1.31297">
        <ele>62</ele>
        <time>2026-06-28T18:44:28.000Z</time>
      </trkpt>
      <trkpt lat="43.3833" lon="-1.31292">
        <ele>63</ele>
        <time>2026-06-28T18:44:33.000Z</time>
      </trkpt>
      <trkpt lat="43.38277" lon="-1.31292">
        <ele>65</ele>
        <time>2026-06-28T18:44:43.000Z</time>
      </trkpt>
      <trkpt lat="43.38231" lon="-1.31302">
        <ele>66</ele>
        <time>2026-06-28T18:44:51.000Z</time>
      </trkpt>
      <trkpt lat="43.38224" lon="-1.31301">
        <ele>66</ele>
        <time>2026-06-28T18:44:52.000Z</time>
      </trkpt>
      <trkpt lat="43.38218" lon="-1.31297">
        <ele>67</ele>
        <time>2026-06-28T18:44:53.000Z</time>
      </trkpt>
      <trkpt lat="43.38214" lon="-1.3129">
        <ele>67</ele>
        <time>2026-06-28T18:44:54.000Z</time>
      </trkpt>
      <trkpt lat="43.38216" lon="-1.31281">
        <ele>67</ele>
        <time>2026-06-28T18:44:56.000Z</time>
      </trkpt>
      <trkpt lat="43.38228" lon="-1.31257">
        <ele>68</ele>
        <time>2026-06-28T18:44:59.000Z</time>
      </trkpt>
      <trkpt lat="43.38237" lon="-1.31222">
        <ele>72</ele>
        <time>2026-06-28T18:45:04.000Z</time>
      </trkpt>
      <trkpt lat="43.38259" lon="-1.3111">
        <ele>79</ele>
        <time>2026-06-28T18:45:19.000Z</time>
      </trkpt>
      <trkpt lat="43.38262" lon="-1.31086">
        <ele>79</ele>
        <time>2026-06-28T18:45:22.000Z</time>
      </trkpt>
      <trkpt lat="43.3826" lon="-1.3106">
        <ele>80</ele>
        <time>2026-06-28T18:45:26.000Z</time>
      </trkpt>
      <trkpt lat="43.38261" lon="-1.31018">
        <ele>79</ele>
        <time>2026-06-28T18:45:31.000Z</time>
      </trkpt>
      <trkpt lat="43.38267" lon="-1.30986">
        <ele>79</ele>
        <time>2026-06-28T18:45:35.000Z</time>
      </trkpt>
      <trkpt lat="43.38321" lon="-1.30843">
        <ele>86</ele>
        <time>2026-06-28T18:45:56.000Z</time>
      </trkpt>
      <trkpt lat="43.38334" lon="-1.30801">
        <ele>87</ele>
        <time>2026-06-28T18:46:02.000Z</time>
      </trkpt>
      <trkpt lat="43.38343" lon="-1.30759">
        <ele>88</ele>
        <time>2026-06-28T18:46:08.000Z</time>
      </trkpt>
      <trkpt lat="43.38349" lon="-1.30711">
        <ele>89</ele>
        <time>2026-06-28T18:46:14.000Z</time>
      </trkpt>
      <trkpt lat="43.38346" lon="-1.30701">
        <ele>89</ele>
        <time>2026-06-28T18:46:16.000Z</time>
      </trkpt>
      <trkpt lat="43.38321" lon="-1.30686">
        <ele>91</ele>
        <time>2026-06-28T18:46:20.000Z</time>
      </trkpt>
      <trkpt lat="43.38306" lon="-1.30669">
        <ele>93</ele>
        <time>2026-06-28T18:46:24.000Z</time>
      </trkpt>
      <trkpt lat="43.3829" lon="-1.30657">
        <ele>94</ele>
        <time>2026-06-28T18:46:27.000Z</time>
      </trkpt>
      <trkpt lat="43.38261" lon="-1.30619">
        <ele>97</ele>
        <time>2026-06-28T18:46:34.000Z</time>
      </trkpt>
      <trkpt lat="43.38242" lon="-1.30599">
        <ele>99</ele>
        <time>2026-06-28T18:46:38.000Z</time>
      </trkpt>
      <trkpt lat="43.38208" lon="-1.30543">
        <ele>102</ele>
        <time>2026-06-28T18:46:48.000Z</time>
      </trkpt>
      <trkpt lat="43.38191" lon="-1.30531">
        <ele>103</ele>
        <time>2026-06-28T18:46:51.000Z</time>
      </trkpt>
      <trkpt lat="43.38186" lon="-1.30533">
        <ele>103</ele>
        <time>2026-06-28T18:46:52.000Z</time>
      </trkpt>
      <trkpt lat="43.38101" lon="-1.30649">
        <ele>114</ele>
        <time>2026-06-28T18:47:14.000Z</time>
      </trkpt>
      <trkpt lat="43.38097" lon="-1.30657">
        <ele>114</ele>
        <time>2026-06-28T18:47:15.000Z</time>
      </trkpt>
      <trkpt lat="43.38083" lon="-1.30712">
        <ele>115</ele>
        <time>2026-06-28T18:47:22.000Z</time>
      </trkpt>
      <trkpt lat="43.38073" lon="-1.30735">
        <ele>117</ele>
        <time>2026-06-28T18:47:26.000Z</time>
      </trkpt>
      <trkpt lat="43.38054" lon="-1.30769">
        <ele>122</ele>
        <time>2026-06-28T18:47:31.000Z</time>
      </trkpt>
      <trkpt lat="43.38049" lon="-1.30784">
        <ele>123</ele>
        <time>2026-06-28T18:47:33.000Z</time>
      </trkpt>
      <trkpt lat="43.38035" lon="-1.3085">
        <ele>121</ele>
        <time>2026-06-28T18:47:42.000Z</time>
      </trkpt>
      <trkpt lat="43.38026" lon="-1.30865">
        <ele>121</ele>
        <time>2026-06-28T18:47:45.000Z</time>
      </trkpt>
      <trkpt lat="43.3798" lon="-1.30919">
        <ele>125</ele>
        <time>2026-06-28T18:47:56.000Z</time>
      </trkpt>
      <trkpt lat="43.37972" lon="-1.30926">
        <ele>127</ele>
        <time>2026-06-28T18:47:57.000Z</time>
      </trkpt>
      <trkpt lat="43.37963" lon="-1.3093">
        <ele>129</ele>
        <time>2026-06-28T18:47:59.000Z</time>
      </trkpt>
      <trkpt lat="43.37941" lon="-1.30928">
        <ele>136</ele>
        <time>2026-06-28T18:48:03.000Z</time>
      </trkpt>
      <trkpt lat="43.37929" lon="-1.3093">
        <ele>139</ele>
        <time>2026-06-28T18:48:05.000Z</time>
      </trkpt>
      <trkpt lat="43.3792" lon="-1.30937">
        <ele>141</ele>
        <time>2026-06-28T18:48:07.000Z</time>
      </trkpt>
      <trkpt lat="43.37909" lon="-1.30961">
        <ele>138</ele>
        <time>2026-06-28T18:48:11.000Z</time>
      </trkpt>
      <trkpt lat="43.37896" lon="-1.30974">
        <ele>138</ele>
        <time>2026-06-28T18:48:13.000Z</time>
      </trkpt>
      <trkpt lat="43.37849" lon="-1.30995">
        <ele>144</ele>
        <time>2026-06-28T18:48:22.000Z</time>
      </trkpt>
      <trkpt lat="43.37839" lon="-1.30998">
        <ele>146</ele>
        <time>2026-06-28T18:48:24.000Z</time>
      </trkpt>
      <trkpt lat="43.37832" lon="-1.30996">
        <ele>148</ele>
        <time>2026-06-28T18:48:25.000Z</time>
      </trkpt>
      <trkpt lat="43.37812" lon="-1.30984">
        <ele>156</ele>
        <time>2026-06-28T18:48:29.000Z</time>
      </trkpt>
      <trkpt lat="43.37802" lon="-1.30981">
        <ele>159</ele>
        <time>2026-06-28T18:48:31.000Z</time>
      </trkpt>
      <trkpt lat="43.37796" lon="-1.30983">
        <ele>160</ele>
        <time>2026-06-28T18:48:32.000Z</time>
      </trkpt>
      <trkpt lat="43.37791" lon="-1.30988">
        <ele>161</ele>
        <time>2026-06-28T18:48:33.000Z</time>
      </trkpt>
      <trkpt lat="43.37788" lon="-1.30994">
        <ele>161</ele>
        <time>2026-06-28T18:48:34.000Z</time>
      </trkpt>
      <trkpt lat="43.37788" lon="-1.31007">
        <ele>161</ele>
        <time>2026-06-28T18:48:36.000Z</time>
      </trkpt>
      <trkpt lat="43.37801" lon="-1.31056">
        <ele>163</ele>
        <time>2026-06-28T18:48:43.000Z</time>
      </trkpt>
      <trkpt lat="43.37817" lon="-1.3108">
        <ele>161</ele>
        <time>2026-06-28T18:48:47.000Z</time>
      </trkpt>
      <trkpt lat="43.37839" lon="-1.31099">
        <ele>156</ele>
        <time>2026-06-28T18:48:51.000Z</time>
      </trkpt>
      <trkpt lat="43.3785" lon="-1.31113">
        <ele>153</ele>
        <time>2026-06-28T18:48:54.000Z</time>
      </trkpt>
      <trkpt lat="43.37853" lon="-1.31138">
        <ele>154</ele>
        <time>2026-06-28T18:48:57.000Z</time>
      </trkpt>
      <trkpt lat="43.37848" lon="-1.31152">
        <ele>156</ele>
        <time>2026-06-28T18:48:59.000Z</time>
      </trkpt>
      <trkpt lat="43.37844" lon="-1.31154">
        <ele>158</ele>
        <time>2026-06-28T18:49:00.000Z</time>
      </trkpt>
      <trkpt lat="43.37839" lon="-1.31153">
        <ele>160</ele>
        <time>2026-06-28T18:49:01.000Z</time>
      </trkpt>
      <trkpt lat="43.37834" lon="-1.31148">
        <ele>161</ele>
        <time>2026-06-28T18:49:02.000Z</time>
      </trkpt>
      <trkpt lat="43.37817" lon="-1.31118">
        <ele>164</ele>
        <time>2026-06-28T18:49:07.000Z</time>
      </trkpt>
      <trkpt lat="43.37788" lon="-1.31094">
        <ele>171</ele>
        <time>2026-06-28T18:49:13.000Z</time>
      </trkpt>
      <trkpt lat="43.37758" lon="-1.31052">
        <ele>176</ele>
        <time>2026-06-28T18:49:21.000Z</time>
      </trkpt>
      <trkpt lat="43.37739" lon="-1.3103">
        <ele>177</ele>
        <time>2026-06-28T18:49:25.000Z</time>
      </trkpt>
      <trkpt lat="43.37733" lon="-1.3101">
        <ele>176</ele>
        <time>2026-06-28T18:49:28.000Z</time>
      </trkpt>
      <trkpt lat="43.37732" lon="-1.30974">
        <ele>175</ele>
        <time>2026-06-28T18:49:33.000Z</time>
      </trkpt>
      <trkpt lat="43.37729" lon="-1.30959">
        <ele>176</ele>
        <time>2026-06-28T18:49:35.000Z</time>
      </trkpt>
      <trkpt lat="43.37712" lon="-1.3092">
        <ele>179</ele>
        <time>2026-06-28T18:49:40.000Z</time>
      </trkpt>
      <trkpt lat="43.37709" lon="-1.30896">
        <ele>181</ele>
        <time>2026-06-28T18:49:44.000Z</time>
      </trkpt>
      <trkpt lat="43.37711" lon="-1.30881">
        <ele>182</ele>
        <time>2026-06-28T18:49:46.000Z</time>
      </trkpt>
      <trkpt lat="43.37719" lon="-1.30851">
        <ele>183</ele>
        <time>2026-06-28T18:49:50.000Z</time>
      </trkpt>
      <trkpt lat="43.37726" lon="-1.30839">
        <ele>183</ele>
        <time>2026-06-28T18:49:52.000Z</time>
      </trkpt>
      <trkpt lat="43.3773" lon="-1.30834">
        <ele>182</ele>
        <time>2026-06-28T18:49:53.000Z</time>
      </trkpt>
      <trkpt lat="43.37743" lon="-1.30832">
        <ele>180</ele>
        <time>2026-06-28T18:49:55.000Z</time>
      </trkpt>
      <trkpt lat="43.37779" lon="-1.3084">
        <ele>179</ele>
        <time>2026-06-28T18:50:01.000Z</time>
      </trkpt>
      <trkpt lat="43.37789" lon="-1.30834">
        <ele>179</ele>
        <time>2026-06-28T18:50:03.000Z</time>
      </trkpt>
      <trkpt lat="43.37791" lon="-1.30829">
        <ele>180</ele>
        <time>2026-06-28T18:50:04.000Z</time>
      </trkpt>
      <trkpt lat="43.3779" lon="-1.30821">
        <ele>181</ele>
        <time>2026-06-28T18:50:05.000Z</time>
      </trkpt>
      <trkpt lat="43.3775" lon="-1.30778">
        <ele>186</ele>
        <time>2026-06-28T18:50:14.000Z</time>
      </trkpt>
      <trkpt lat="43.37713" lon="-1.30744">
        <ele>192</ele>
        <time>2026-06-28T18:50:22.000Z</time>
      </trkpt>
      <trkpt lat="43.377" lon="-1.30735">
        <ele>193</ele>
        <time>2026-06-28T18:50:25.000Z</time>
      </trkpt>
      <trkpt lat="43.37689" lon="-1.30736">
        <ele>193</ele>
        <time>2026-06-28T18:50:27.000Z</time>
      </trkpt>
      <trkpt lat="43.37677" lon="-1.30748">
        <ele>193</ele>
        <time>2026-06-28T18:50:29.000Z</time>
      </trkpt>
      <trkpt lat="43.37664" lon="-1.30783">
        <ele>193</ele>
        <time>2026-06-28T18:50:34.000Z</time>
      </trkpt>
      <trkpt lat="43.37634" lon="-1.30836">
        <ele>195</ele>
        <time>2026-06-28T18:50:43.000Z</time>
      </trkpt>
      <trkpt lat="43.37596" lon="-1.30873">
        <ele>198</ele>
        <time>2026-06-28T18:50:51.000Z</time>
      </trkpt>
      <trkpt lat="43.37547" lon="-1.30913">
        <ele>199</ele>
        <time>2026-06-28T18:51:02.000Z</time>
      </trkpt>
      <trkpt lat="43.37529" lon="-1.30932">
        <ele>199</ele>
        <time>2026-06-28T18:51:06.000Z</time>
      </trkpt>
      <trkpt lat="43.37508" lon="-1.30963">
        <ele>199</ele>
        <time>2026-06-28T18:51:11.000Z</time>
      </trkpt>
      <trkpt lat="43.37462" lon="-1.31041">
        <ele>201</ele>
        <time>2026-06-28T18:51:24.000Z</time>
      </trkpt>
      <trkpt lat="43.37363" lon="-1.31194">
        <ele>206</ele>
        <time>2026-06-28T18:51:51.000Z</time>
      </trkpt>
      <trkpt lat="43.37258" lon="-1.31331">
        <ele>207</ele>
        <time>2026-06-28T18:52:16.000Z</time>
      </trkpt>
      <trkpt lat="43.37228" lon="-1.3136">
        <ele>207</ele>
        <time>2026-06-28T18:52:23.000Z</time>
      </trkpt>
      <trkpt lat="43.37207" lon="-1.31375">
        <ele>207</ele>
        <time>2026-06-28T18:52:27.000Z</time>
      </trkpt>
      <trkpt lat="43.37189" lon="-1.31381">
        <ele>207</ele>
        <time>2026-06-28T18:52:30.000Z</time>
      </trkpt>
      <trkpt lat="43.37159" lon="-1.31385">
        <ele>207</ele>
        <time>2026-06-28T18:52:36.000Z</time>
      </trkpt>
      <trkpt lat="43.37124" lon="-1.31384">
        <ele>208</ele>
        <time>2026-06-28T18:52:42.000Z</time>
      </trkpt>
      <trkpt lat="43.37107" lon="-1.31379">
        <ele>209</ele>
        <time>2026-06-28T18:52:45.000Z</time>
      </trkpt>
      <trkpt lat="43.3708" lon="-1.31368">
        <ele>209</ele>
        <time>2026-06-28T18:52:50.000Z</time>
      </trkpt>
      <trkpt lat="43.37004" lon="-1.3133">
        <ele>213</ele>
        <time>2026-06-28T18:53:04.000Z</time>
      </trkpt>
      <trkpt lat="43.3694" lon="-1.31288">
        <ele>215</ele>
        <time>2026-06-28T18:53:17.000Z</time>
      </trkpt>
      <trkpt lat="43.36919" lon="-1.31277">
        <ele>215</ele>
        <time>2026-06-28T18:53:21.000Z</time>
      </trkpt>
      <trkpt lat="43.36887" lon="-1.31266">
        <ele>216</ele>
        <time>2026-06-28T18:53:27.000Z</time>
      </trkpt>
      <trkpt lat="43.36856" lon="-1.31259">
        <ele>218</ele>
        <time>2026-06-28T18:53:32.000Z</time>
      </trkpt>
      <trkpt lat="43.36736" lon="-1.3127">
        <ele>226</ele>
        <time>2026-06-28T18:53:54.000Z</time>
      </trkpt>
      <trkpt lat="43.36679" lon="-1.3128">
        <ele>226</ele>
        <time>2026-06-28T18:54:04.000Z</time>
      </trkpt>
      <trkpt lat="43.36574" lon="-1.31291">
        <ele>228</ele>
        <time>2026-06-28T18:54:23.000Z</time>
      </trkpt>
      <trkpt lat="43.3655" lon="-1.31297">
        <ele>229</ele>
        <time>2026-06-28T18:54:27.000Z</time>
      </trkpt>
      <trkpt lat="43.36518" lon="-1.31315">
        <ele>230</ele>
        <time>2026-06-28T18:54:33.000Z</time>
      </trkpt>
      <trkpt lat="43.36472" lon="-1.31372">
        <ele>231</ele>
        <time>2026-06-28T18:54:44.000Z</time>
      </trkpt>
      <trkpt lat="43.36435" lon="-1.31401">
        <ele>233</ele>
        <time>2026-06-28T18:54:52.000Z</time>
      </trkpt>
      <trkpt lat="43.36421" lon="-1.31407">
        <ele>235</ele>
        <time>2026-06-28T18:54:55.000Z</time>
      </trkpt>
      <trkpt lat="43.36416" lon="-1.31402">
        <ele>235</ele>
        <time>2026-06-28T18:54:56.000Z</time>
      </trkpt>
      <trkpt lat="43.36417" lon="-1.31395">
        <ele>235</ele>
        <time>2026-06-28T18:54:57.000Z</time>
      </trkpt>
      <trkpt lat="43.36437" lon="-1.31374">
        <ele>234</ele>
        <time>2026-06-28T18:55:01.000Z</time>
      </trkpt>
      <trkpt lat="43.36463" lon="-1.31353">
        <ele>232</ele>
        <time>2026-06-28T18:55:06.000Z</time>
      </trkpt>
      <trkpt lat="43.36461" lon="-1.3136">
        <ele>232</ele>
        <time>2026-06-28T18:55:07.000Z</time>
      </trkpt>
      <trkpt lat="43.36456" lon="-1.31363">
        <ele>232</ele>
        <time>2026-06-28T18:55:08.000Z</time>
      </trkpt>
      <trkpt lat="43.36452" lon="-1.31361">
        <ele>233</ele>
        <time>2026-06-28T18:55:09.000Z</time>
      </trkpt>
      <trkpt lat="43.36452" lon="-1.31357">
        <ele>233</ele>
        <time>2026-06-28T18:55:10.000Z</time>
      </trkpt>
      <trkpt lat="43.3645" lon="-1.31362">
        <ele>233</ele>
        <time>2026-06-28T18:55:10.000Z</time>
      </trkpt>
      <trkpt lat="43.36453" lon="-1.31366">
        <ele>233</ele>
        <time>2026-06-28T18:55:11.000Z</time>
      </trkpt>
      <trkpt lat="43.36446" lon="-1.3137">
        <ele>233</ele>
        <time>2026-06-28T18:55:12.000Z</time>
      </trkpt>
      <trkpt lat="43.36458" lon="-1.31357">
        <ele>232</ele>
        <time>2026-06-28T18:55:15.000Z</time>
      </trkpt>
      <trkpt lat="43.36446" lon="-1.31364">
        <ele>233</ele>
        <time>2026-06-28T18:55:17.000Z</time>
      </trkpt>
      <trkpt lat="43.36419" lon="-1.31395">
        <ele>235</ele>
        <time>2026-06-28T18:55:24.000Z</time>
      </trkpt>
      <trkpt lat="43.3641" lon="-1.31416">
        <ele>235</ele>
        <time>2026-06-28T18:55:27.000Z</time>
      </trkpt>
      <trkpt lat="43.36401" lon="-1.31427">
        <ele>234</ele>
        <time>2026-06-28T18:55:29.000Z</time>
      </trkpt>
      <trkpt lat="43.3635" lon="-1.31461">
        <ele>235</ele>
        <time>2026-06-28T18:55:39.000Z</time>
      </trkpt>
      <trkpt lat="43.36323" lon="-1.31492">
        <ele>237</ele>
        <time>2026-06-28T18:55:45.000Z</time>
      </trkpt>
      <trkpt lat="43.36289" lon="-1.31523">
        <ele>236</ele>
        <time>2026-06-28T18:55:53.000Z</time>
      </trkpt>
      <trkpt lat="43.36262" lon="-1.31532">
        <ele>235</ele>
        <time>2026-06-28T18:55:58.000Z</time>
      </trkpt>
      <trkpt lat="43.36252" lon="-1.3154">
        <ele>235</ele>
        <time>2026-06-28T18:56:00.000Z</time>
      </trkpt>
      <trkpt lat="43.36226" lon="-1.31592">
        <ele>236</ele>
        <time>2026-06-28T18:56:08.000Z</time>
      </trkpt>
      <trkpt lat="43.36216" lon="-1.31601">
        <ele>236</ele>
        <time>2026-06-28T18:56:10.000Z</time>
      </trkpt>
      <trkpt lat="43.36209" lon="-1.31602">
        <ele>236</ele>
        <time>2026-06-28T18:56:11.000Z</time>
      </trkpt>
      <trkpt lat="43.36185" lon="-1.31597">
        <ele>234</ele>
        <time>2026-06-28T18:56:15.000Z</time>
      </trkpt>
      <trkpt lat="43.36115" lon="-1.31568">
        <ele>221</ele>
        <time>2026-06-28T18:56:29.000Z</time>
      </trkpt>
      <trkpt lat="43.36101" lon="-1.31571">
        <ele>218</ele>
        <time>2026-06-28T18:56:31.000Z</time>
      </trkpt>
      <trkpt lat="43.36091" lon="-1.31583">
        <ele>217</ele>
        <time>2026-06-28T18:56:33.000Z</time>
      </trkpt>
      <trkpt lat="43.36063" lon="-1.31644">
        <ele>222</ele>
        <time>2026-06-28T18:56:43.000Z</time>
      </trkpt>
      <trkpt lat="43.36052" lon="-1.31663">
        <ele>223</ele>
        <time>2026-06-28T18:56:46.000Z</time>
      </trkpt>
      <trkpt lat="43.36043" lon="-1.31682">
        <ele>224</ele>
        <time>2026-06-28T18:56:49.000Z</time>
      </trkpt>
      <trkpt lat="43.36031" lon="-1.31718">
        <ele>225</ele>
        <time>2026-06-28T18:56:54.000Z</time>
      </trkpt>
      <trkpt lat="43.3602" lon="-1.31731">
        <ele>225</ele>
        <time>2026-06-28T18:56:56.000Z</time>
      </trkpt>
      <trkpt lat="43.36008" lon="-1.31736">
        <ele>225</ele>
        <time>2026-06-28T18:56:59.000Z</time>
      </trkpt>
      <trkpt lat="43.35996" lon="-1.31733">
        <ele>225</ele>
        <time>2026-06-28T18:57:01.000Z</time>
      </trkpt>
      <trkpt lat="43.35992" lon="-1.31718">
        <ele>224</ele>
        <time>2026-06-28T18:57:03.000Z</time>
      </trkpt>
      <trkpt lat="43.36011" lon="-1.31638">
        <ele>218</ele>
        <time>2026-06-28T18:57:14.000Z</time>
      </trkpt>
      <trkpt lat="43.36011" lon="-1.31595">
        <ele>215</ele>
        <time>2026-06-28T18:57:19.000Z</time>
      </trkpt>
      <trkpt lat="43.36007" lon="-1.31571">
        <ele>213</ele>
        <time>2026-06-28T18:57:23.000Z</time>
      </trkpt>
      <trkpt lat="43.35987" lon="-1.31504">
        <ele>207</ele>
        <time>2026-06-28T18:57:32.000Z</time>
      </trkpt>
      <trkpt lat="43.35974" lon="-1.31435">
        <ele>201</ele>
        <time>2026-06-28T18:57:41.000Z</time>
      </trkpt>
      <trkpt lat="43.35972" lon="-1.31411">
        <ele>199</ele>
        <time>2026-06-28T18:57:44.000Z</time>
      </trkpt>
      <trkpt lat="43.35961" lon="-1.31358">
        <ele>196</ele>
        <time>2026-06-28T18:57:51.000Z</time>
      </trkpt>
      <trkpt lat="43.35952" lon="-1.31347">
        <ele>196</ele>
        <time>2026-06-28T18:57:54.000Z</time>
      </trkpt>
      <trkpt lat="43.35947" lon="-1.31346">
        <ele>196</ele>
        <time>2026-06-28T18:57:54.000Z</time>
      </trkpt>
      <trkpt lat="43.35942" lon="-1.31348">
        <ele>196</ele>
        <time>2026-06-28T18:57:55.000Z</time>
      </trkpt>
      <trkpt lat="43.35927" lon="-1.31362">
        <ele>199</ele>
        <time>2026-06-28T18:57:59.000Z</time>
      </trkpt>
      <trkpt lat="43.35915" lon="-1.31362">
        <ele>200</ele>
        <time>2026-06-28T18:58:01.000Z</time>
      </trkpt>
      <trkpt lat="43.35904" lon="-1.31349">
        <ele>200</ele>
        <time>2026-06-28T18:58:03.000Z</time>
      </trkpt>
      <trkpt lat="43.35898" lon="-1.31329">
        <ele>199</ele>
        <time>2026-06-28T18:58:06.000Z</time>
      </trkpt>
      <trkpt lat="43.35895" lon="-1.31294">
        <ele>200</ele>
        <time>2026-06-28T18:58:11.000Z</time>
      </trkpt>
      <trkpt lat="43.35896" lon="-1.31279">
        <ele>201</ele>
        <time>2026-06-28T18:58:13.000Z</time>
      </trkpt>
      <trkpt lat="43.35906" lon="-1.31223">
        <ele>203</ele>
        <time>2026-06-28T18:58:20.000Z</time>
      </trkpt>
      <trkpt lat="43.35906" lon="-1.31175">
        <ele>210</ele>
        <time>2026-06-28T18:58:26.000Z</time>
      </trkpt>
      <trkpt lat="43.35913" lon="-1.31144">
        <ele>211</ele>
        <time>2026-06-28T18:58:31.000Z</time>
      </trkpt>
      <trkpt lat="43.35913" lon="-1.31127">
        <ele>212</ele>
        <time>2026-06-28T18:58:33.000Z</time>
      </trkpt>
      <trkpt lat="43.35918" lon="-1.31099">
        <ele>214</ele>
        <time>2026-06-28T18:58:36.000Z</time>
      </trkpt>
      <trkpt lat="43.3592" lon="-1.31052">
        <ele>216</ele>
        <time>2026-06-28T18:58:43.000Z</time>
      </trkpt>
      <trkpt lat="43.35917" lon="-1.31011">
        <ele>218</ele>
        <time>2026-06-28T18:58:48.000Z</time>
      </trkpt>
      <trkpt lat="43.35911" lon="-1.30974">
        <ele>220</ele>
        <time>2026-06-28T18:58:53.000Z</time>
      </trkpt>
      <trkpt lat="43.35907" lon="-1.3097">
        <ele>221</ele>
        <time>2026-06-28T18:58:54.000Z</time>
      </trkpt>
      <trkpt lat="43.35892" lon="-1.30926">
        <ele>225</ele>
        <time>2026-06-28T18:59:00.000Z</time>
      </trkpt>
      <trkpt lat="43.35888" lon="-1.30861">
        <ele>226</ele>
        <time>2026-06-28T18:59:08.000Z</time>
      </trkpt>
      <trkpt lat="43.35857" lon="-1.30799">
        <ele>229</ele>
        <time>2026-06-28T18:59:18.000Z</time>
      </trkpt>
      <trkpt lat="43.35849" lon="-1.30772">
        <ele>228</ele>
        <time>2026-06-28T18:59:22.000Z</time>
      </trkpt>
      <trkpt lat="43.35836" lon="-1.30751">
        <ele>228</ele>
        <time>2026-06-28T18:59:25.000Z</time>
      </trkpt>
      <trkpt lat="43.35819" lon="-1.30739">
        <ele>229</ele>
        <time>2026-06-28T18:59:29.000Z</time>
      </trkpt>
      <trkpt lat="43.35806" lon="-1.30735">
        <ele>231</ele>
        <time>2026-06-28T18:59:31.000Z</time>
      </trkpt>
      <trkpt lat="43.35794" lon="-1.30736">
        <ele>233</ele>
        <time>2026-06-28T18:59:33.000Z</time>
      </trkpt>
      <trkpt lat="43.35777" lon="-1.30742">
        <ele>236</ele>
        <time>2026-06-28T18:59:36.000Z</time>
      </trkpt>
      <trkpt lat="43.35758" lon="-1.30743">
        <ele>240</ele>
        <time>2026-06-28T18:59:40.000Z</time>
      </trkpt>
      <trkpt lat="43.35746" lon="-1.30741">
        <ele>241</ele>
        <time>2026-06-28T18:59:42.000Z</time>
      </trkpt>
      <trkpt lat="43.35695" lon="-1.30724">
        <ele>245</ele>
        <time>2026-06-28T18:59:51.000Z</time>
      </trkpt>
      <trkpt lat="43.35673" lon="-1.30709">
        <ele>247</ele>
        <time>2026-06-28T18:59:56.000Z</time>
      </trkpt>
      <trkpt lat="43.3564" lon="-1.30672">
        <ele>248</ele>
        <time>2026-06-28T19:00:03.000Z</time>
      </trkpt>
      <trkpt lat="43.35591" lon="-1.30628">
        <ele>251</ele>
        <time>2026-06-28T19:00:14.000Z</time>
      </trkpt>
      <trkpt lat="43.35565" lon="-1.30612">
        <ele>251</ele>
        <time>2026-06-28T19:00:19.000Z</time>
      </trkpt>
      <trkpt lat="43.35549" lon="-1.30609">
        <ele>251</ele>
        <time>2026-06-28T19:00:22.000Z</time>
      </trkpt>
      <trkpt lat="43.35533" lon="-1.30613">
        <ele>251</ele>
        <time>2026-06-28T19:00:25.000Z</time>
      </trkpt>
      <trkpt lat="43.35503" lon="-1.30629">
        <ele>254</ele>
        <time>2026-06-28T19:00:30.000Z</time>
      </trkpt>
      <trkpt lat="43.35488" lon="-1.30652">
        <ele>256</ele>
        <time>2026-06-28T19:00:34.000Z</time>
      </trkpt>
      <trkpt lat="43.35474" lon="-1.30683">
        <ele>259</ele>
        <time>2026-06-28T19:00:39.000Z</time>
      </trkpt>
      <trkpt lat="43.35465" lon="-1.30692">
        <ele>260</ele>
        <time>2026-06-28T19:00:41.000Z</time>
      </trkpt>
      <trkpt lat="43.35443" lon="-1.30704">
        <ele>260</ele>
        <time>2026-06-28T19:00:45.000Z</time>
      </trkpt>
      <trkpt lat="43.35429" lon="-1.30705">
        <ele>259</ele>
        <time>2026-06-28T19:00:48.000Z</time>
      </trkpt>
      <trkpt lat="43.35396" lon="-1.30718">
        <ele>260</ele>
        <time>2026-06-28T19:00:54.000Z</time>
      </trkpt>
      <trkpt lat="43.3538" lon="-1.3073">
        <ele>261</ele>
        <time>2026-06-28T19:00:57.000Z</time>
      </trkpt>
      <trkpt lat="43.35341" lon="-1.30773">
        <ele>265</ele>
        <time>2026-06-28T19:01:06.000Z</time>
      </trkpt>
      <trkpt lat="43.35321" lon="-1.30786">
        <ele>267</ele>
        <time>2026-06-28T19:01:10.000Z</time>
      </trkpt>
      <trkpt lat="43.35309" lon="-1.30789">
        <ele>267</ele>
        <time>2026-06-28T19:01:12.000Z</time>
      </trkpt>
      <trkpt lat="43.35276" lon="-1.30783">
        <ele>267</ele>
        <time>2026-06-28T19:01:18.000Z</time>
      </trkpt>
      <trkpt lat="43.3524" lon="-1.30784">
        <ele>269</ele>
        <time>2026-06-28T19:01:24.000Z</time>
      </trkpt>
      <trkpt lat="43.35222" lon="-1.30778">
        <ele>270</ele>
        <time>2026-06-28T19:01:28.000Z</time>
      </trkpt>
      <trkpt lat="43.3518" lon="-1.30757">
        <ele>272</ele>
        <time>2026-06-28T19:01:36.000Z</time>
      </trkpt>
      <trkpt lat="43.35165" lon="-1.30746">
        <ele>272</ele>
        <time>2026-06-28T19:01:39.000Z</time>
      </trkpt>
      <trkpt lat="43.35152" lon="-1.30743">
        <ele>275</ele>
        <time>2026-06-28T19:01:41.000Z</time>
      </trkpt>
      <trkpt lat="43.3514" lon="-1.30734">
        <ele>276</ele>
        <time>2026-06-28T19:01:43.000Z</time>
      </trkpt>
      <trkpt lat="43.35127" lon="-1.30707">
        <ele>276</ele>
        <time>2026-06-28T19:01:48.000Z</time>
      </trkpt>
      <trkpt lat="43.35111" lon="-1.30634">
        <ele>271</ele>
        <time>2026-06-28T19:01:57.000Z</time>
      </trkpt>
      <trkpt lat="43.35077" lon="-1.30572">
        <ele>274</ele>
        <time>2026-06-28T19:02:08.000Z</time>
      </trkpt>
      <trkpt lat="43.3506" lon="-1.30556">
        <ele>274</ele>
        <time>2026-06-28T19:02:11.000Z</time>
      </trkpt>
      <trkpt lat="43.35018" lon="-1.30543">
        <ele>279</ele>
        <time>2026-06-28T19:02:19.000Z</time>
      </trkpt>
      <trkpt lat="43.35007" lon="-1.30537">
        <ele>280</ele>
        <time>2026-06-28T19:02:21.000Z</time>
      </trkpt>
      <trkpt lat="43.34999" lon="-1.30527">
        <ele>281</ele>
        <time>2026-06-28T19:02:23.000Z</time>
      </trkpt>
      <trkpt lat="43.34993" lon="-1.30499">
        <ele>278</ele>
        <time>2026-06-28T19:02:27.000Z</time>
      </trkpt>
      <trkpt lat="43.34995" lon="-1.30447">
        <ele>276</ele>
        <time>2026-06-28T19:02:33.000Z</time>
      </trkpt>
      <trkpt lat="43.34991" lon="-1.30423">
        <ele>275</ele>
        <time>2026-06-28T19:02:37.000Z</time>
      </trkpt>
      <trkpt lat="43.34991" lon="-1.30404">
        <ele>273</ele>
        <time>2026-06-28T19:02:39.000Z</time>
      </trkpt>
      <trkpt lat="43.34982" lon="-1.30353">
        <ele>267</ele>
        <time>2026-06-28T19:02:46.000Z</time>
      </trkpt>
      <trkpt lat="43.34966" lon="-1.30305">
        <ele>264</ele>
        <time>2026-06-28T19:02:53.000Z</time>
      </trkpt>
      <trkpt lat="43.34946" lon="-1.30259">
        <ele>262</ele>
        <time>2026-06-28T19:03:00.000Z</time>
      </trkpt>
      <trkpt lat="43.34913" lon="-1.30156">
        <ele>259</ele>
        <time>2026-06-28T19:03:14.000Z</time>
      </trkpt>
      <trkpt lat="43.34882" lon="-1.3007">
        <ele>249</ele>
        <time>2026-06-28T19:03:27.000Z</time>
      </trkpt>
      <trkpt lat="43.34863" lon="-1.29992">
        <ele>245</ele>
        <time>2026-06-28T19:03:37.000Z</time>
      </trkpt>
      <trkpt lat="43.34859" lon="-1.29989">
        <ele>245</ele>
        <time>2026-06-28T19:03:38.000Z</time>
      </trkpt>
      <trkpt lat="43.34849" lon="-1.29989">
        <ele>245</ele>
        <time>2026-06-28T19:03:40.000Z</time>
      </trkpt>
      <trkpt lat="43.34839" lon="-1.29995">
        <ele>245</ele>
        <time>2026-06-28T19:03:42.000Z</time>
      </trkpt>
      <trkpt lat="43.34829" lon="-1.30005">
        <ele>244</ele>
        <time>2026-06-28T19:03:44.000Z</time>
      </trkpt>
      <trkpt lat="43.34825" lon="-1.30013">
        <ele>244</ele>
        <time>2026-06-28T19:03:45.000Z</time>
      </trkpt>
      <trkpt lat="43.34818" lon="-1.3009">
        <ele>243</ele>
        <time>2026-06-28T19:03:55.000Z</time>
      </trkpt>
      <trkpt lat="43.34805" lon="-1.30135">
        <ele>242</ele>
        <time>2026-06-28T19:04:02.000Z</time>
      </trkpt>
      <trkpt lat="43.34804" lon="-1.30213">
        <ele>246</ele>
        <time>2026-06-28T19:04:12.000Z</time>
      </trkpt>
      <trkpt lat="43.34801" lon="-1.30239">
        <ele>247</ele>
        <time>2026-06-28T19:04:15.000Z</time>
      </trkpt>
      <trkpt lat="43.34782" lon="-1.30306">
        <ele>251</ele>
        <time>2026-06-28T19:04:24.000Z</time>
      </trkpt>
      <trkpt lat="43.34776" lon="-1.30318">
        <ele>251</ele>
        <time>2026-06-28T19:04:26.000Z</time>
      </trkpt>
      <trkpt lat="43.34768" lon="-1.30324">
        <ele>250</ele>
        <time>2026-06-28T19:04:28.000Z</time>
      </trkpt>
      <trkpt lat="43.3476" lon="-1.30318">
        <ele>249</ele>
        <time>2026-06-28T19:04:29.000Z</time>
      </trkpt>
      <trkpt lat="43.34752" lon="-1.30276">
        <ele>243</ele>
        <time>2026-06-28T19:04:35.000Z</time>
      </trkpt>
      <trkpt lat="43.34741" lon="-1.3025">
        <ele>241</ele>
        <time>2026-06-28T19:04:39.000Z</time>
      </trkpt>
      <trkpt lat="43.34698" lon="-1.30185">
        <ele>235</ele>
        <time>2026-06-28T19:04:50.000Z</time>
      </trkpt>
      <trkpt lat="43.34668" lon="-1.30147">
        <ele>231</ele>
        <time>2026-06-28T19:04:58.000Z</time>
      </trkpt>
      <trkpt lat="43.34656" lon="-1.30126">
        <ele>229</ele>
        <time>2026-06-28T19:05:01.000Z</time>
      </trkpt>
      <trkpt lat="43.34637" lon="-1.3008">
        <ele>226</ele>
        <time>2026-06-28T19:05:08.000Z</time>
      </trkpt>
      <trkpt lat="43.3459" lon="-1.29943">
        <ele>214</ele>
        <time>2026-06-28T19:05:27.000Z</time>
      </trkpt>
      <trkpt lat="43.34579" lon="-1.29926">
        <ele>212</ele>
        <time>2026-06-28T19:05:30.000Z</time>
      </trkpt>
      <trkpt lat="43.34565" lon="-1.29914">
        <ele>208</ele>
        <time>2026-06-28T19:05:33.000Z</time>
      </trkpt>
      <trkpt lat="43.34558" lon="-1.29911">
        <ele>207</ele>
        <time>2026-06-28T19:05:35.000Z</time>
      </trkpt>
      <trkpt lat="43.34544" lon="-1.29913">
        <ele>206</ele>
        <time>2026-06-28T19:05:37.000Z</time>
      </trkpt>
      <trkpt lat="43.34527" lon="-1.29931">
        <ele>206</ele>
        <time>2026-06-28T19:05:41.000Z</time>
      </trkpt>
      <trkpt lat="43.34487" lon="-1.30002">
        <ele>205</ele>
        <time>2026-06-28T19:05:53.000Z</time>
      </trkpt>
      <trkpt lat="43.34454" lon="-1.30085">
        <ele>215</ele>
        <time>2026-06-28T19:06:05.000Z</time>
      </trkpt>
      <trkpt lat="43.34449" lon="-1.3009">
        <ele>216</ele>
        <time>2026-06-28T19:06:06.000Z</time>
      </trkpt>
      <trkpt lat="43.34439" lon="-1.30092">
        <ele>215</ele>
        <time>2026-06-28T19:06:08.000Z</time>
      </trkpt>
      <trkpt lat="43.34429" lon="-1.30084">
        <ele>213</ele>
        <time>2026-06-28T19:06:10.000Z</time>
      </trkpt>
      <trkpt lat="43.34395" lon="-1.30027">
        <ele>198</ele>
        <time>2026-06-28T19:06:19.000Z</time>
      </trkpt>
      <trkpt lat="43.34355" lon="-1.29984">
        <ele>193</ele>
        <time>2026-06-28T19:06:28.000Z</time>
      </trkpt>
      <trkpt lat="43.34326" lon="-1.29938">
        <ele>190</ele>
        <time>2026-06-28T19:06:36.000Z</time>
      </trkpt>
      <trkpt lat="43.34306" lon="-1.29935">
        <ele>189</ele>
        <time>2026-06-28T19:06:40.000Z</time>
      </trkpt>
      <trkpt lat="43.34247" lon="-1.29949">
        <ele>190</ele>
        <time>2026-06-28T19:06:50.000Z</time>
      </trkpt>
      <trkpt lat="43.34229" lon="-1.2995">
        <ele>189</ele>
        <time>2026-06-28T19:06:54.000Z</time>
      </trkpt>
      <trkpt lat="43.34211" lon="-1.29945">
        <ele>188</ele>
        <time>2026-06-28T19:06:57.000Z</time>
      </trkpt>
      <trkpt lat="43.34169" lon="-1.29919">
        <ele>182</ele>
        <time>2026-06-28T19:07:05.000Z</time>
      </trkpt>
      <trkpt lat="43.34155" lon="-1.29914">
        <ele>181</ele>
        <time>2026-06-28T19:07:08.000Z</time>
      </trkpt>
      <trkpt lat="43.34133" lon="-1.29912">
        <ele>178</ele>
        <time>2026-06-28T19:07:12.000Z</time>
      </trkpt>
      <trkpt lat="43.34109" lon="-1.29917">
        <ele>176</ele>
        <time>2026-06-28T19:07:16.000Z</time>
      </trkpt>
      <trkpt lat="43.34089" lon="-1.29915">
        <ele>174</ele>
        <time>2026-06-28T19:07:20.000Z</time>
      </trkpt>
      <trkpt lat="43.34068" lon="-1.29903">
        <ele>173</ele>
        <time>2026-06-28T19:07:24.000Z</time>
      </trkpt>
      <trkpt lat="43.34052" lon="-1.29888">
        <ele>172</ele>
        <time>2026-06-28T19:07:27.000Z</time>
      </trkpt>
      <trkpt lat="43.34024" lon="-1.29849">
        <ele>170</ele>
        <time>2026-06-28T19:07:34.000Z</time>
      </trkpt>
      <trkpt lat="43.34008" lon="-1.29835">
        <ele>170</ele>
        <time>2026-06-28T19:07:37.000Z</time>
      </trkpt>
      <trkpt lat="43.34003" lon="-1.29853">
        <ele>170</ele>
        <time>2026-06-28T19:07:40.000Z</time>
      </trkpt>
      <trkpt lat="43.33997" lon="-1.29963">
        <ele>167</ele>
        <time>2026-06-28T19:07:54.000Z</time>
      </trkpt>
      <trkpt lat="43.33991" lon="-1.29986">
        <ele>166</ele>
        <time>2026-06-28T19:07:57.000Z</time>
      </trkpt>
      <trkpt lat="43.33981" lon="-1.29999">
        <ele>165</ele>
        <time>2026-06-28T19:08:00.000Z</time>
      </trkpt>
      <trkpt lat="43.33961" lon="-1.30011">
        <ele>164</ele>
        <time>2026-06-28T19:08:04.000Z</time>
      </trkpt>
      <trkpt lat="43.33919" lon="-1.30015">
        <ele>161</ele>
        <time>2026-06-28T19:08:11.000Z</time>
      </trkpt>
      <trkpt lat="43.33763" lon="-1.29985">
        <ele>150</ele>
        <time>2026-06-28T19:08:39.000Z</time>
      </trkpt>
      <trkpt lat="43.33739" lon="-1.29984">
        <ele>148</ele>
        <time>2026-06-28T19:08:44.000Z</time>
      </trkpt>
      <trkpt lat="43.33725" lon="-1.29989">
        <ele>147</ele>
        <time>2026-06-28T19:08:46.000Z</time>
      </trkpt>
      <trkpt lat="43.33719" lon="-1.29996">
        <ele>147</ele>
        <time>2026-06-28T19:08:48.000Z</time>
      </trkpt>
      <trkpt lat="43.3371" lon="-1.30014">
        <ele>147</ele>
        <time>2026-06-28T19:08:50.000Z</time>
      </trkpt>
      <trkpt lat="43.33689" lon="-1.30106">
        <ele>144</ele>
        <time>2026-06-28T19:09:03.000Z</time>
      </trkpt>
      <trkpt lat="43.33679" lon="-1.30135">
        <ele>143</ele>
        <time>2026-06-28T19:09:07.000Z</time>
      </trkpt>
      <trkpt lat="43.33663" lon="-1.30158">
        <ele>142</ele>
        <time>2026-06-28T19:09:11.000Z</time>
      </trkpt>
      <trkpt lat="43.33637" lon="-1.30185">
        <ele>142</ele>
        <time>2026-06-28T19:09:17.000Z</time>
      </trkpt>
      <trkpt lat="43.33592" lon="-1.30257">
        <ele>143</ele>
        <time>2026-06-28T19:09:29.000Z</time>
      </trkpt>
      <trkpt lat="43.33578" lon="-1.30268">
        <ele>143</ele>
        <time>2026-06-28T19:09:32.000Z</time>
      </trkpt>
      <trkpt lat="43.33563" lon="-1.30274">
        <ele>143</ele>
        <time>2026-06-28T19:09:35.000Z</time>
      </trkpt>
      <trkpt lat="43.33436" lon="-1.30279">
        <ele>151</ele>
        <time>2026-06-28T19:09:57.000Z</time>
      </trkpt>
      <trkpt lat="43.33418" lon="-1.30283">
        <ele>153</ele>
        <time>2026-06-28T19:10:01.000Z</time>
      </trkpt>
      <trkpt lat="43.33399" lon="-1.30294">
        <ele>159</ele>
        <time>2026-06-28T19:10:04.000Z</time>
      </trkpt>
      <trkpt lat="43.33373" lon="-1.30323">
        <ele>165</ele>
        <time>2026-06-28T19:10:10.000Z</time>
      </trkpt>
      <trkpt lat="43.33341" lon="-1.30374">
        <ele>164</ele>
        <time>2026-06-28T19:10:19.000Z</time>
      </trkpt>
      <trkpt lat="43.33288" lon="-1.30448">
        <ele>160</ele>
        <time>2026-06-28T19:10:32.000Z</time>
      </trkpt>
      <trkpt lat="43.3322" lon="-1.30518">
        <ele>165</ele>
        <time>2026-06-28T19:10:48.000Z</time>
      </trkpt>
      <trkpt lat="43.33202" lon="-1.30552">
        <ele>166</ele>
        <time>2026-06-28T19:10:53.000Z</time>
      </trkpt>
      <trkpt lat="43.3318" lon="-1.30583">
        <ele>167</ele>
        <time>2026-06-28T19:10:59.000Z</time>
      </trkpt>
      <trkpt lat="43.33133" lon="-1.30631">
        <ele>172</ele>
        <time>2026-06-28T19:11:09.000Z</time>
      </trkpt>
      <trkpt lat="43.33065" lon="-1.30718">
        <ele>174</ele>
        <time>2026-06-28T19:11:26.000Z</time>
      </trkpt>
      <trkpt lat="43.33024" lon="-1.30777">
        <ele>178</ele>
        <time>2026-06-28T19:11:36.000Z</time>
      </trkpt>
      <trkpt lat="43.33011" lon="-1.308">
        <ele>179</ele>
        <time>2026-06-28T19:11:40.000Z</time>
      </trkpt>
      <trkpt lat="43.33006" lon="-1.30813">
        <ele>178</ele>
        <time>2026-06-28T19:11:42.000Z</time>
      </trkpt>
      <trkpt lat="43.33006" lon="-1.3084">
        <ele>177</ele>
        <time>2026-06-28T19:11:45.000Z</time>
      </trkpt>
      <trkpt lat="43.33011" lon="-1.30859">
        <ele>178</ele>
        <time>2026-06-28T19:11:48.000Z</time>
      </trkpt>
      <trkpt lat="43.33026" lon="-1.30893">
        <ele>179</ele>
        <time>2026-06-28T19:11:53.000Z</time>
      </trkpt>
      <trkpt lat="43.33033" lon="-1.30916">
        <ele>178</ele>
        <time>2026-06-28T19:11:56.000Z</time>
      </trkpt>
      <trkpt lat="43.33037" lon="-1.30947">
        <ele>178</ele>
        <time>2026-06-28T19:12:00.000Z</time>
      </trkpt>
      <trkpt lat="43.3303" lon="-1.31001">
        <ele>182</ele>
        <time>2026-06-28T19:12:07.000Z</time>
      </trkpt>
      <trkpt lat="43.33011" lon="-1.3104">
        <ele>188</ele>
        <time>2026-06-28T19:12:14.000Z</time>
      </trkpt>
      <trkpt lat="43.33006" lon="-1.31058">
        <ele>189</ele>
        <time>2026-06-28T19:12:16.000Z</time>
      </trkpt>
      <trkpt lat="43.33009" lon="-1.311">
        <ele>188</ele>
        <time>2026-06-28T19:12:21.000Z</time>
      </trkpt>
      <trkpt lat="43.33002" lon="-1.31182">
        <ele>189</ele>
        <time>2026-06-28T19:12:32.000Z</time>
      </trkpt>
      <trkpt lat="43.32995" lon="-1.31205">
        <ele>189</ele>
        <time>2026-06-28T19:12:35.000Z</time>
      </trkpt>
      <trkpt lat="43.32984" lon="-1.31228">
        <ele>191</ele>
        <time>2026-06-28T19:12:39.000Z</time>
      </trkpt>
      <trkpt lat="43.32957" lon="-1.3127">
        <ele>194</ele>
        <time>2026-06-28T19:12:46.000Z</time>
      </trkpt>
      <trkpt lat="43.32942" lon="-1.31301">
        <ele>196</ele>
        <time>2026-06-28T19:12:51.000Z</time>
      </trkpt>
      <trkpt lat="43.32905" lon="-1.31392">
        <ele>204</ele>
        <time>2026-06-28T19:13:05.000Z</time>
      </trkpt>
      <trkpt lat="43.32885" lon="-1.31452">
        <ele>209</ele>
        <time>2026-06-28T19:13:13.000Z</time>
      </trkpt>
      <trkpt lat="43.32871" lon="-1.31523">
        <ele>215</ele>
        <time>2026-06-28T19:13:23.000Z</time>
      </trkpt>
      <trkpt lat="43.32874" lon="-1.31549">
        <ele>216</ele>
        <time>2026-06-28T19:13:26.000Z</time>
      </trkpt>
      <trkpt lat="43.3287" lon="-1.31576">
        <ele>220</ele>
        <time>2026-06-28T19:13:30.000Z</time>
      </trkpt>
      <trkpt lat="43.32872" lon="-1.31587">
        <ele>220</ele>
        <time>2026-06-28T19:13:31.000Z</time>
      </trkpt>
      <trkpt lat="43.3287" lon="-1.31593">
        <ele>221</ele>
        <time>2026-06-28T19:13:32.000Z</time>
      </trkpt>
      <trkpt lat="43.3288" lon="-1.31623">
        <ele>219</ele>
        <time>2026-06-28T19:13:36.000Z</time>
      </trkpt>
      <trkpt lat="43.32878" lon="-1.31646">
        <ele>221</ele>
        <time>2026-06-28T19:13:39.000Z</time>
      </trkpt>
      <trkpt lat="43.32895" lon="-1.31699">
        <ele>216</ele>
        <time>2026-06-28T19:13:47.000Z</time>
      </trkpt>
      <trkpt lat="43.32904" lon="-1.3177">
        <ele>212</ele>
        <time>2026-06-28T19:13:56.000Z</time>
      </trkpt>
      <trkpt lat="43.3291" lon="-1.31801">
        <ele>208</ele>
        <time>2026-06-28T19:14:00.000Z</time>
      </trkpt>
      <trkpt lat="43.32918" lon="-1.31824">
        <ele>205</ele>
        <time>2026-06-28T19:14:03.000Z</time>
      </trkpt>
      <trkpt lat="43.32937" lon="-1.31855">
        <ele>205</ele>
        <time>2026-06-28T19:14:09.000Z</time>
      </trkpt>
      <trkpt lat="43.32956" lon="-1.31871">
        <ele>206</ele>
        <time>2026-06-28T19:14:13.000Z</time>
      </trkpt>
      <trkpt lat="43.32997" lon="-1.31891">
        <ele>208</ele>
        <time>2026-06-28T19:14:20.000Z</time>
      </trkpt>
      <trkpt lat="43.33017" lon="-1.31912">
        <ele>210</ele>
        <time>2026-06-28T19:14:25.000Z</time>
      </trkpt>
      <trkpt lat="43.33026" lon="-1.31926">
        <ele>211</ele>
        <time>2026-06-28T19:14:27.000Z</time>
      </trkpt>
      <trkpt lat="43.33039" lon="-1.31962">
        <ele>214</ele>
        <time>2026-06-28T19:14:32.000Z</time>
      </trkpt>
      <trkpt lat="43.33053" lon="-1.32039">
        <ele>217</ele>
        <time>2026-06-28T19:14:43.000Z</time>
      </trkpt>
      <trkpt lat="43.33083" lon="-1.32109">
        <ele>217</ele>
        <time>2026-06-28T19:14:53.000Z</time>
      </trkpt>
      <trkpt lat="43.33096" lon="-1.32151">
        <ele>219</ele>
        <time>2026-06-28T19:14:59.000Z</time>
      </trkpt>
      <trkpt lat="43.33104" lon="-1.32185">
        <ele>219</ele>
        <time>2026-06-28T19:15:04.000Z</time>
      </trkpt>
      <trkpt lat="43.33105" lon="-1.32203">
        <ele>220</ele>
        <time>2026-06-28T19:15:06.000Z</time>
      </trkpt>
      <trkpt lat="43.33099" lon="-1.32236">
        <ele>220</ele>
        <time>2026-06-28T19:15:11.000Z</time>
      </trkpt>
      <trkpt lat="43.33078" lon="-1.32309">
        <ele>218</ele>
        <time>2026-06-28T19:15:21.000Z</time>
      </trkpt>
      <trkpt lat="43.33074" lon="-1.32345">
        <ele>217</ele>
        <time>2026-06-28T19:15:25.000Z</time>
      </trkpt>
      <trkpt lat="43.33068" lon="-1.32369">
        <ele>217</ele>
        <time>2026-06-28T19:15:29.000Z</time>
      </trkpt>
      <trkpt lat="43.33054" lon="-1.324">
        <ele>217</ele>
        <time>2026-06-28T19:15:33.000Z</time>
      </trkpt>
      <trkpt lat="43.33018" lon="-1.32459">
        <ele>214</ele>
        <time>2026-06-28T19:15:43.000Z</time>
      </trkpt>
      <trkpt lat="43.33009" lon="-1.32479">
        <ele>212</ele>
        <time>2026-06-28T19:15:46.000Z</time>
      </trkpt>
      <trkpt lat="43.33004" lon="-1.325">
        <ele>212</ele>
        <time>2026-06-28T19:15:49.000Z</time>
      </trkpt>
      <trkpt lat="43.32991" lon="-1.32605">
        <ele>213</ele>
        <time>2026-06-28T19:16:03.000Z</time>
      </trkpt>
      <trkpt lat="43.32985" lon="-1.32755">
        <ele>211</ele>
        <time>2026-06-28T19:16:23.000Z</time>
      </trkpt>
      <trkpt lat="43.3295" lon="-1.3291">
        <ele>198</ele>
        <time>2026-06-28T19:16:44.000Z</time>
      </trkpt>
      <trkpt lat="43.32911" lon="-1.3302">
        <ele>191</ele>
        <time>2026-06-28T19:16:59.000Z</time>
      </trkpt>
      <trkpt lat="43.32886" lon="-1.3324">
        <ele>177</ele>
        <time>2026-06-28T19:17:28.000Z</time>
      </trkpt>
      <trkpt lat="43.32864" lon="-1.33346">
        <ele>173</ele>
        <time>2026-06-28T19:17:42.000Z</time>
      </trkpt>
      <trkpt lat="43.32852" lon="-1.33417">
        <ele>170</ele>
        <time>2026-06-28T19:17:52.000Z</time>
      </trkpt>
      <trkpt lat="43.32843" lon="-1.3345">
        <ele>171</ele>
        <time>2026-06-28T19:17:56.000Z</time>
      </trkpt>
      <trkpt lat="43.32823" lon="-1.33493">
        <ele>173</ele>
        <time>2026-06-28T19:18:03.000Z</time>
      </trkpt>
      <trkpt lat="43.32815" lon="-1.33506">
        <ele>174</ele>
        <time>2026-06-28T19:18:05.000Z</time>
      </trkpt>
      <trkpt lat="43.32799" lon="-1.33524">
        <ele>177</ele>
        <time>2026-06-28T19:18:09.000Z</time>
      </trkpt>
      <trkpt lat="43.3278" lon="-1.33533">
        <ele>178</ele>
        <time>2026-06-28T19:18:13.000Z</time>
      </trkpt>
      <trkpt lat="43.32688" lon="-1.33562">
        <ele>178</ele>
        <time>2026-06-28T19:18:29.000Z</time>
      </trkpt>
      <trkpt lat="43.3267" lon="-1.33565">
        <ele>177</ele>
        <time>2026-06-28T19:18:33.000Z</time>
      </trkpt>
      <trkpt lat="43.32661" lon="-1.33565">
        <ele>177</ele>
        <time>2026-06-28T19:18:34.000Z</time>
      </trkpt>
      <trkpt lat="43.32643" lon="-1.33559">
        <ele>177</ele>
        <time>2026-06-28T19:18:37.000Z</time>
      </trkpt>
      <trkpt lat="43.32627" lon="-1.3355">
        <ele>177</ele>
        <time>2026-06-28T19:18:41.000Z</time>
      </trkpt>
      <trkpt lat="43.32618" lon="-1.33544">
        <ele>177</ele>
        <time>2026-06-28T19:18:42.000Z</time>
      </trkpt>
      <trkpt lat="43.32584" lon="-1.33507">
        <ele>175</ele>
        <time>2026-06-28T19:18:50.000Z</time>
      </trkpt>
      <trkpt lat="43.32561" lon="-1.33489">
        <ele>172</ele>
        <time>2026-06-28T19:18:55.000Z</time>
      </trkpt>
      <trkpt lat="43.32541" lon="-1.33482">
        <ele>169</ele>
        <time>2026-06-28T19:18:58.000Z</time>
      </trkpt>
      <trkpt lat="43.32521" lon="-1.33479">
        <ele>166</ele>
        <time>2026-06-28T19:19:02.000Z</time>
      </trkpt>
      <trkpt lat="43.3249" lon="-1.3348">
        <ele>160</ele>
        <time>2026-06-28T19:19:07.000Z</time>
      </trkpt>
      <trkpt lat="43.32342" lon="-1.33508">
        <ele>145</ele>
        <time>2026-06-28T19:19:34.000Z</time>
      </trkpt>
      <trkpt lat="43.32321" lon="-1.33508">
        <ele>143</ele>
        <time>2026-06-28T19:19:38.000Z</time>
      </trkpt>
      <trkpt lat="43.32301" lon="-1.33503">
        <ele>142</ele>
        <time>2026-06-28T19:19:41.000Z</time>
      </trkpt>
      <trkpt lat="43.32283" lon="-1.33492">
        <ele>141</ele>
        <time>2026-06-28T19:19:45.000Z</time>
      </trkpt>
      <trkpt lat="43.32251" lon="-1.3346">
        <ele>139</ele>
        <time>2026-06-28T19:19:52.000Z</time>
      </trkpt>
      <trkpt lat="43.3223" lon="-1.33451">
        <ele>141</ele>
        <time>2026-06-28T19:19:56.000Z</time>
      </trkpt>
      <trkpt lat="43.32218" lon="-1.33449">
        <ele>142</ele>
        <time>2026-06-28T19:19:58.000Z</time>
      </trkpt>
      <trkpt lat="43.32196" lon="-1.33454">
        <ele>143</ele>
        <time>2026-06-28T19:20:02.000Z</time>
      </trkpt>
      <trkpt lat="43.32176" lon="-1.33467">
        <ele>143</ele>
        <time>2026-06-28T19:20:06.000Z</time>
      </trkpt>
      <trkpt lat="43.32123" lon="-1.3351">
        <ele>144</ele>
        <time>2026-06-28T19:20:17.000Z</time>
      </trkpt>
      <trkpt lat="43.32093" lon="-1.33544">
        <ele>143</ele>
        <time>2026-06-28T19:20:24.000Z</time>
      </trkpt>
      <trkpt lat="43.32069" lon="-1.33585">
        <ele>138</ele>
        <time>2026-06-28T19:20:31.000Z</time>
      </trkpt>
      <trkpt lat="43.32038" lon="-1.33664">
        <ele>131</ele>
        <time>2026-06-28T19:20:42.000Z</time>
      </trkpt>
      <trkpt lat="43.32016" lon="-1.33705">
        <ele>130</ele>
        <time>2026-06-28T19:20:49.000Z</time>
      </trkpt>
      <trkpt lat="43.31995" lon="-1.3373">
        <ele>129</ele>
        <time>2026-06-28T19:20:54.000Z</time>
      </trkpt>
      <trkpt lat="43.31934" lon="-1.33776">
        <ele>125</ele>
        <time>2026-06-28T19:21:06.000Z</time>
      </trkpt>
      <trkpt lat="43.31914" lon="-1.33797">
        <ele>124</ele>
        <time>2026-06-28T19:21:11.000Z</time>
      </trkpt>
      <trkpt lat="43.31904" lon="-1.33815">
        <ele>125</ele>
        <time>2026-06-28T19:21:14.000Z</time>
      </trkpt>
      <trkpt lat="43.31896" lon="-1.33836">
        <ele>126</ele>
        <time>2026-06-28T19:21:17.000Z</time>
      </trkpt>
      <trkpt lat="43.31883" lon="-1.33905">
        <ele>130</ele>
        <time>2026-06-28T19:21:26.000Z</time>
      </trkpt>
      <trkpt lat="43.31876" lon="-1.33924">
        <ele>131</ele>
        <time>2026-06-28T19:21:29.000Z</time>
      </trkpt>
      <trkpt lat="43.31853" lon="-1.33956">
        <ele>132</ele>
        <time>2026-06-28T19:21:34.000Z</time>
      </trkpt>
      <trkpt lat="43.31815" lon="-1.33987">
        <ele>127</ele>
        <time>2026-06-28T19:21:42.000Z</time>
      </trkpt>
      <trkpt lat="43.31798" lon="-1.34005">
        <ele>123</ele>
        <time>2026-06-28T19:21:46.000Z</time>
      </trkpt>
      <trkpt lat="43.31784" lon="-1.34026">
        <ele>118</ele>
        <time>2026-06-28T19:21:50.000Z</time>
      </trkpt>
      <trkpt lat="43.31774" lon="-1.34052">
        <ele>115</ele>
        <time>2026-06-28T19:21:54.000Z</time>
      </trkpt>
      <trkpt lat="43.31769" lon="-1.34081">
        <ele>113</ele>
        <time>2026-06-28T19:21:57.000Z</time>
      </trkpt>
      <trkpt lat="43.31771" lon="-1.34228">
        <ele>109</ele>
        <time>2026-06-28T19:22:17.000Z</time>
      </trkpt>
      <trkpt lat="43.31764" lon="-1.34311">
        <ele>105</ele>
        <time>2026-06-28T19:22:27.000Z</time>
      </trkpt>
      <trkpt lat="43.31753" lon="-1.34391">
        <ele>105</ele>
        <time>2026-06-28T19:22:38.000Z</time>
      </trkpt>
      <trkpt lat="43.31717" lon="-1.34489">
        <ele>104</ele>
        <time>2026-06-28T19:22:52.000Z</time>
      </trkpt>
      <trkpt lat="43.31708" lon="-1.34551">
        <ele>102</ele>
        <time>2026-06-28T19:23:00.000Z</time>
      </trkpt>
      <trkpt lat="43.31711" lon="-1.34592">
        <ele>101</ele>
        <time>2026-06-28T19:23:06.000Z</time>
      </trkpt>
      <trkpt lat="43.31742" lon="-1.34751">
        <ele>107</ele>
        <time>2026-06-28T19:23:27.000Z</time>
      </trkpt>
      <trkpt lat="43.31743" lon="-1.34779">
        <ele>108</ele>
        <time>2026-06-28T19:23:31.000Z</time>
      </trkpt>
      <trkpt lat="43.31741" lon="-1.348">
        <ele>109</ele>
        <time>2026-06-28T19:23:33.000Z</time>
      </trkpt>
      <trkpt lat="43.31736" lon="-1.34823">
        <ele>109</ele>
        <time>2026-06-28T19:23:36.000Z</time>
      </trkpt>
      <trkpt lat="43.31706" lon="-1.34909">
        <ele>110</ele>
        <time>2026-06-28T19:23:49.000Z</time>
      </trkpt>
      <trkpt lat="43.31688" lon="-1.3497">
        <ele>111</ele>
        <time>2026-06-28T19:23:57.000Z</time>
      </trkpt>
      <trkpt lat="43.31677" lon="-1.34995">
        <ele>110</ele>
        <time>2026-06-28T19:24:01.000Z</time>
      </trkpt>
      <trkpt lat="43.31665" lon="-1.35014">
        <ele>109</ele>
        <time>2026-06-28T19:24:04.000Z</time>
      </trkpt>
      <trkpt lat="43.31646" lon="-1.35027">
        <ele>108</ele>
        <time>2026-06-28T19:24:08.000Z</time>
      </trkpt>
      <trkpt lat="43.31626" lon="-1.35032">
        <ele>107</ele>
        <time>2026-06-28T19:24:12.000Z</time>
      </trkpt>
      <trkpt lat="43.31622" lon="-1.35035">
        <ele>107</ele>
        <time>2026-06-28T19:24:12.000Z</time>
      </trkpt>
      <trkpt lat="43.31619" lon="-1.35045">
        <ele>107</ele>
        <time>2026-06-28T19:24:14.000Z</time>
      </trkpt>
      <trkpt lat="43.31634" lon="-1.35122">
        <ele>109</ele>
        <time>2026-06-28T19:24:24.000Z</time>
      </trkpt>
      <trkpt lat="43.31638" lon="-1.3516">
        <ele>110</ele>
        <time>2026-06-28T19:24:29.000Z</time>
      </trkpt>
      <trkpt lat="43.31658" lon="-1.35443">
        <ele>116</ele>
        <time>2026-06-28T19:25:06.000Z</time>
      </trkpt>
      <trkpt lat="43.31656" lon="-1.35563">
        <ele>120</ele>
        <time>2026-06-28T19:25:22.000Z</time>
      </trkpt>
      <trkpt lat="43.31668" lon="-1.35679">
        <ele>123</ele>
        <time>2026-06-28T19:25:37.000Z</time>
      </trkpt>
      <trkpt lat="43.31722" lon="-1.35777">
        <ele>125</ele>
        <time>2026-06-28T19:25:53.000Z</time>
      </trkpt>
      <trkpt lat="43.31755" lon="-1.35851">
        <ele>125</ele>
        <time>2026-06-28T19:26:04.000Z</time>
      </trkpt>
      <trkpt lat="43.31779" lon="-1.35923">
        <ele>128</ele>
        <time>2026-06-28T19:26:14.000Z</time>
      </trkpt>
      <trkpt lat="43.31801" lon="-1.35977">
        <ele>132</ele>
        <time>2026-06-28T19:26:22.000Z</time>
      </trkpt>
      <trkpt lat="43.31873" lon="-1.36112">
        <ele>140</ele>
        <time>2026-06-28T19:26:44.000Z</time>
      </trkpt>
      <trkpt lat="43.3188" lon="-1.36146">
        <ele>140</ele>
        <time>2026-06-28T19:26:48.000Z</time>
      </trkpt>
      <trkpt lat="43.31873" lon="-1.36164">
        <ele>139</ele>
        <time>2026-06-28T19:26:51.000Z</time>
      </trkpt>
      <trkpt lat="43.31871" lon="-1.36177">
        <ele>140</ele>
        <time>2026-06-28T19:26:53.000Z</time>
      </trkpt>
      <trkpt lat="43.31879" lon="-1.36262">
        <ele>144</ele>
        <time>2026-06-28T19:27:04.000Z</time>
      </trkpt>
      <trkpt lat="43.31909" lon="-1.36385">
        <ele>150</ele>
        <time>2026-06-28T19:27:21.000Z</time>
      </trkpt>
      <trkpt lat="43.31926" lon="-1.36441">
        <ele>150</ele>
        <time>2026-06-28T19:27:28.000Z</time>
      </trkpt>
      <trkpt lat="43.31949" lon="-1.36575">
        <ele>145</ele>
        <time>2026-06-28T19:27:46.000Z</time>
      </trkpt>
      <trkpt lat="43.31955" lon="-1.36597">
        <ele>143</ele>
        <time>2026-06-28T19:27:49.000Z</time>
      </trkpt>
      <trkpt lat="43.31976" lon="-1.36645">
        <ele>139</ele>
        <time>2026-06-28T19:27:57.000Z</time>
      </trkpt>
      <trkpt lat="43.31989" lon="-1.3666">
        <ele>136</ele>
        <time>2026-06-28T19:28:00.000Z</time>
      </trkpt>
      <trkpt lat="43.31995" lon="-1.3668">
        <ele>134</ele>
        <time>2026-06-28T19:28:02.000Z</time>
      </trkpt>
      <trkpt lat="43.31993" lon="-1.36754">
        <ele>133</ele>
        <time>2026-06-28T19:28:12.000Z</time>
      </trkpt>
      <trkpt lat="43.31998" lon="-1.36815">
        <ele>132</ele>
        <time>2026-06-28T19:28:20.000Z</time>
      </trkpt>
      <trkpt lat="43.32025" lon="-1.3694">
        <ele>129</ele>
        <time>2026-06-28T19:28:37.000Z</time>
      </trkpt>
      <trkpt lat="43.32038" lon="-1.36986">
        <ele>126</ele>
        <time>2026-06-28T19:28:43.000Z</time>
      </trkpt>
      <trkpt lat="43.32066" lon="-1.37063">
        <ele>118</ele>
        <time>2026-06-28T19:28:54.000Z</time>
      </trkpt>
      <trkpt lat="43.32087" lon="-1.37129">
        <ele>114</ele>
        <time>2026-06-28T19:29:04.000Z</time>
      </trkpt>
      <trkpt lat="43.321" lon="-1.37161">
        <ele>114</ele>
        <time>2026-06-28T19:29:08.000Z</time>
      </trkpt>
      <trkpt lat="43.32122" lon="-1.37207">
        <ele>110</ele>
        <time>2026-06-28T19:29:16.000Z</time>
      </trkpt>
      <trkpt lat="43.32162" lon="-1.37277">
        <ele>102</ele>
        <time>2026-06-28T19:29:27.000Z</time>
      </trkpt>
      <trkpt lat="43.32176" lon="-1.37306">
        <ele>101</ele>
        <time>2026-06-28T19:29:32.000Z</time>
      </trkpt>
      <trkpt lat="43.32224" lon="-1.37435">
        <ele>98</ele>
        <time>2026-06-28T19:29:50.000Z</time>
      </trkpt>
      <trkpt lat="43.32262" lon="-1.37528">
        <ele>92</ele>
        <time>2026-06-28T19:30:04.000Z</time>
      </trkpt>
      <trkpt lat="43.32287" lon="-1.3758">
        <ele>91</ele>
        <time>2026-06-28T19:30:12.000Z</time>
      </trkpt>
      <trkpt lat="43.32333" lon="-1.37652">
        <ele>88</ele>
        <time>2026-06-28T19:30:25.000Z</time>
      </trkpt>
      <trkpt lat="43.32352" lon="-1.37689">
        <ele>89</ele>
        <time>2026-06-28T19:30:30.000Z</time>
      </trkpt>
      <trkpt lat="43.32373" lon="-1.37749">
        <ele>87</ele>
        <time>2026-06-28T19:30:39.000Z</time>
      </trkpt>
      <trkpt lat="43.32421" lon="-1.37918">
        <ele>81</ele>
        <time>2026-06-28T19:31:03.000Z</time>
      </trkpt>
      <trkpt lat="43.32445" lon="-1.38025">
        <ele>80</ele>
        <time>2026-06-28T19:31:17.000Z</time>
      </trkpt>
      <trkpt lat="43.3246" lon="-1.38078">
        <ele>79</ele>
        <time>2026-06-28T19:31:24.000Z</time>
      </trkpt>
      <trkpt lat="43.32527" lon="-1.38255">
        <ele>71</ele>
        <time>2026-06-28T19:31:50.000Z</time>
      </trkpt>
      <trkpt lat="43.32567" lon="-1.38336">
        <ele>65</ele>
        <time>2026-06-28T19:32:03.000Z</time>
      </trkpt>
      <trkpt lat="43.32665" lon="-1.38518">
        <ele>63</ele>
        <time>2026-06-28T19:32:32.000Z</time>
      </trkpt>
      <trkpt lat="43.32704" lon="-1.38575">
        <ele>62</ele>
        <time>2026-06-28T19:32:42.000Z</time>
      </trkpt>
      <trkpt lat="43.32747" lon="-1.38632">
        <ele>57</ele>
        <time>2026-06-28T19:32:53.000Z</time>
      </trkpt>
      <trkpt lat="43.32776" lon="-1.38677">
        <ele>57</ele>
        <time>2026-06-28T19:33:01.000Z</time>
      </trkpt>
      <trkpt lat="43.328" lon="-1.38725">
        <ele>57</ele>
        <time>2026-06-28T19:33:08.000Z</time>
      </trkpt>
      <trkpt lat="43.32824" lon="-1.38784">
        <ele>52</ele>
        <time>2026-06-28T19:33:17.000Z</time>
      </trkpt>
      <trkpt lat="43.32843" lon="-1.38835">
        <ele>49</ele>
        <time>2026-06-28T19:33:24.000Z</time>
      </trkpt>
      <trkpt lat="43.32882" lon="-1.38973">
        <ele>46</ele>
        <time>2026-06-28T19:33:44.000Z</time>
      </trkpt>
      <trkpt lat="43.33109" lon="-1.39708">
        <ele>49</ele>
        <time>2026-06-28T19:35:27.000Z</time>
      </trkpt>
      <trkpt lat="43.33182" lon="-1.39898">
        <ele>59</ele>
        <time>2026-06-28T19:35:55.000Z</time>
      </trkpt>
      <trkpt lat="43.33193" lon="-1.39932">
        <ele>60</ele>
        <time>2026-06-28T19:36:00.000Z</time>
      </trkpt>
      <trkpt lat="43.33224" lon="-1.39998">
        <ele>65</ele>
        <time>2026-06-28T19:36:10.000Z</time>
      </trkpt>
      <trkpt lat="43.33224" lon="-1.40007">
        <ele>65</ele>
        <time>2026-06-28T19:36:11.000Z</time>
      </trkpt>
      <trkpt lat="43.33205" lon="-1.40032">
        <ele>64</ele>
        <time>2026-06-28T19:36:16.000Z</time>
      </trkpt>
      <trkpt lat="43.33202" lon="-1.4004">
        <ele>64</ele>
        <time>2026-06-28T19:36:17.000Z</time>
      </trkpt>
      <trkpt lat="43.33205" lon="-1.4007">
        <ele>66</ele>
        <time>2026-06-28T19:36:21.000Z</time>
      </trkpt>
      <trkpt lat="43.33211" lon="-1.40096">
        <ele>67</ele>
        <time>2026-06-28T19:36:24.000Z</time>
      </trkpt>
      <trkpt lat="43.33215" lon="-1.40102">
        <ele>68</ele>
        <time>2026-06-28T19:36:25.000Z</time>
      </trkpt>
      <trkpt lat="43.33217" lon="-1.40128">
        <ele>70</ele>
        <time>2026-06-28T19:36:29.000Z</time>
      </trkpt>
      <trkpt lat="43.3321" lon="-1.40192">
        <ele>74</ele>
        <time>2026-06-28T19:36:37.000Z</time>
      </trkpt>
      <trkpt lat="43.33209" lon="-1.40239">
        <ele>77</ele>
        <time>2026-06-28T19:36:43.000Z</time>
      </trkpt>
      <trkpt lat="43.33234" lon="-1.40377">
        <ele>81</ele>
        <time>2026-06-28T19:37:02.000Z</time>
      </trkpt>
      <trkpt lat="43.33233" lon="-1.40506">
        <ele>78</ele>
        <time>2026-06-28T19:37:18.000Z</time>
      </trkpt>
      <trkpt lat="43.33243" lon="-1.40589">
        <ele>80</ele>
        <time>2026-06-28T19:37:29.000Z</time>
      </trkpt>
      <trkpt lat="43.33249" lon="-1.4069">
        <ele>80</ele>
        <time>2026-06-28T19:37:42.000Z</time>
      </trkpt>
      <trkpt lat="43.33266" lon="-1.40805">
        <ele>82</ele>
        <time>2026-06-28T19:37:57.000Z</time>
      </trkpt>
      <trkpt lat="43.33283" lon="-1.40865">
        <ele>83</ele>
        <time>2026-06-28T19:38:06.000Z</time>
      </trkpt>
      <trkpt lat="43.3327" lon="-1.40913">
        <ele>86</ele>
        <time>2026-06-28T19:38:12.000Z</time>
      </trkpt>
      <trkpt lat="43.33264" lon="-1.40954">
        <ele>87</ele>
        <time>2026-06-28T19:38:18.000Z</time>
      </trkpt>
      <trkpt lat="43.3327" lon="-1.41136">
        <ele>91</ele>
        <time>2026-06-28T19:38:41.000Z</time>
      </trkpt>
      <trkpt lat="43.33265" lon="-1.41138">
        <ele>92</ele>
        <time>2026-06-28T19:38:42.000Z</time>
      </trkpt>
      <trkpt lat="43.3325" lon="-1.41132">
        <ele>92</ele>
        <time>2026-06-28T19:38:45.000Z</time>
      </trkpt>
      <trkpt lat="43.33244" lon="-1.41112">
        <ele>91</ele>
        <time>2026-06-28T19:38:48.000Z</time>
      </trkpt>
      <trkpt lat="43.33246" lon="-1.41106">
        <ele>91</ele>
        <time>2026-06-28T19:38:49.000Z</time>
      </trkpt>
      <trkpt lat="43.33247" lon="-1.4111">
        <ele>91</ele>
        <time>2026-06-28T19:38:49.000Z</time>
      </trkpt>
      <trkpt lat="43.33248" lon="-1.41105">
        <ele>91</ele>
        <time>2026-06-28T19:38:50.000Z</time>
      </trkpt>
      <trkpt lat="43.33245" lon="-1.41104">
        <ele>91</ele>
        <time>2026-06-28T19:38:51.000Z</time>
      </trkpt>
      <trkpt lat="43.33242" lon="-1.41109">
        <ele>91</ele>
        <time>2026-06-28T19:38:51.000Z</time>
      </trkpt>
      <trkpt lat="43.33245" lon="-1.41128">
        <ele>92</ele>
        <time>2026-06-28T19:38:54.000Z</time>
      </trkpt>
      <trkpt lat="43.33266" lon="-1.4114">
        <ele>92</ele>
        <time>2026-06-28T19:38:58.000Z</time>
      </trkpt>
      <trkpt lat="43.3327" lon="-1.41145">
        <ele>92</ele>
        <time>2026-06-28T19:38:59.000Z</time>
      </trkpt>
      <trkpt lat="43.33284" lon="-1.41226">
        <ele>93</ele>
        <time>2026-06-28T19:39:10.000Z</time>
      </trkpt>
      <trkpt lat="43.33283" lon="-1.41256">
        <ele>93</ele>
        <time>2026-06-28T19:39:14.000Z</time>
      </trkpt>
      <trkpt lat="43.33279" lon="-1.41272">
        <ele>93</ele>
        <time>2026-06-28T19:39:16.000Z</time>
      </trkpt>
      <trkpt lat="43.33244" lon="-1.41325">
        <ele>90</ele>
        <time>2026-06-28T19:39:25.000Z</time>
      </trkpt>
      <trkpt lat="43.33232" lon="-1.41357">
        <ele>87</ele>
        <time>2026-06-28T19:39:30.000Z</time>
      </trkpt>
      <trkpt lat="43.33227" lon="-1.41397">
        <ele>85</ele>
        <time>2026-06-28T19:39:35.000Z</time>
      </trkpt>
      <trkpt lat="43.33222" lon="-1.41514">
        <ele>88</ele>
        <time>2026-06-28T19:39:50.000Z</time>
      </trkpt>
      <trkpt lat="43.33204" lon="-1.4162">
        <ele>92</ele>
        <time>2026-06-28T19:40:04.000Z</time>
      </trkpt>
      <trkpt lat="43.33202" lon="-1.41654">
        <ele>93</ele>
        <time>2026-06-28T19:40:09.000Z</time>
      </trkpt>
      <trkpt lat="43.33204" lon="-1.41693">
        <ele>95</ele>
        <time>2026-06-28T19:40:14.000Z</time>
      </trkpt>
      <trkpt lat="43.3321" lon="-1.41714">
        <ele>95</ele>
        <time>2026-06-28T19:40:17.000Z</time>
      </trkpt>
      <trkpt lat="43.33223" lon="-1.41732">
        <ele>96</ele>
        <time>2026-06-28T19:40:20.000Z</time>
      </trkpt>
      <trkpt lat="43.33245" lon="-1.4175">
        <ele>97</ele>
        <time>2026-06-28T19:40:24.000Z</time>
      </trkpt>
      <trkpt lat="43.33265" lon="-1.41771">
        <ele>98</ele>
        <time>2026-06-28T19:40:29.000Z</time>
      </trkpt>
      <trkpt lat="43.33274" lon="-1.41791">
        <ele>99</ele>
        <time>2026-06-28T19:40:32.000Z</time>
      </trkpt>
      <trkpt lat="43.33276" lon="-1.41826">
        <ele>100</ele>
        <time>2026-06-28T19:40:36.000Z</time>
      </trkpt>
      <trkpt lat="43.33275" lon="-1.41873">
        <ele>102</ele>
        <time>2026-06-28T19:40:43.000Z</time>
      </trkpt>
      <trkpt lat="43.33272" lon="-1.41894">
        <ele>103</ele>
        <time>2026-06-28T19:40:45.000Z</time>
      </trkpt>
      <trkpt lat="43.33266" lon="-1.41926">
        <ele>104</ele>
        <time>2026-06-28T19:40:50.000Z</time>
      </trkpt>
      <trkpt lat="43.33256" lon="-1.41949">
        <ele>103</ele>
        <time>2026-06-28T19:40:53.000Z</time>
      </trkpt>
      <trkpt lat="43.33174" lon="-1.42086">
        <ele>95</ele>
        <time>2026-06-28T19:41:16.000Z</time>
      </trkpt>
      <trkpt lat="43.33156" lon="-1.42128">
        <ele>95</ele>
        <time>2026-06-28T19:41:22.000Z</time>
      </trkpt>
      <trkpt lat="43.33147" lon="-1.42186">
        <ele>97</ele>
        <time>2026-06-28T19:41:30.000Z</time>
      </trkpt>
      <trkpt lat="43.33148" lon="-1.42243">
        <ele>100</ele>
        <time>2026-06-28T19:41:37.000Z</time>
      </trkpt>
      <trkpt lat="43.33139" lon="-1.42337">
        <ele>103</ele>
        <time>2026-06-28T19:41:50.000Z</time>
      </trkpt>
      <trkpt lat="43.33141" lon="-1.42403">
        <ele>103</ele>
        <time>2026-06-28T19:41:58.000Z</time>
      </trkpt>
      <trkpt lat="43.33138" lon="-1.42482">
        <ele>103</ele>
        <time>2026-06-28T19:42:08.000Z</time>
      </trkpt>
      <trkpt lat="43.33132" lon="-1.425">
        <ele>102</ele>
        <time>2026-06-28T19:42:11.000Z</time>
      </trkpt>
      <trkpt lat="43.33103" lon="-1.42559">
        <ele>100</ele>
        <time>2026-06-28T19:42:20.000Z</time>
      </trkpt>
      <trkpt lat="43.33092" lon="-1.426">
        <ele>102</ele>
        <time>2026-06-28T19:42:26.000Z</time>
      </trkpt>
      <trkpt lat="43.33087" lon="-1.4263">
        <ele>104</ele>
        <time>2026-06-28T19:42:30.000Z</time>
      </trkpt>
      <trkpt lat="43.33075" lon="-1.42657">
        <ele>106</ele>
        <time>2026-06-28T19:42:34.000Z</time>
      </trkpt>
      <trkpt lat="43.33069" lon="-1.42678">
        <ele>107</ele>
        <time>2026-06-28T19:42:37.000Z</time>
      </trkpt>
      <trkpt lat="43.33058" lon="-1.42698">
        <ele>108</ele>
        <time>2026-06-28T19:42:40.000Z</time>
      </trkpt>
      <trkpt lat="43.33042" lon="-1.42713">
        <ele>106</ele>
        <time>2026-06-28T19:42:44.000Z</time>
      </trkpt>
      <trkpt lat="43.33003" lon="-1.42736">
        <ele>102</ele>
        <time>2026-06-28T19:42:51.000Z</time>
      </trkpt>
      <trkpt lat="43.32989" lon="-1.42754">
        <ele>102</ele>
        <time>2026-06-28T19:42:55.000Z</time>
      </trkpt>
      <trkpt lat="43.32957" lon="-1.42825">
        <ele>106</ele>
        <time>2026-06-28T19:43:05.000Z</time>
      </trkpt>
      <trkpt lat="43.3293" lon="-1.42874">
        <ele>108</ele>
        <time>2026-06-28T19:43:13.000Z</time>
      </trkpt>
      <trkpt lat="43.32905" lon="-1.42911">
        <ele>108</ele>
        <time>2026-06-28T19:43:20.000Z</time>
      </trkpt>
      <trkpt lat="43.32899" lon="-1.42928">
        <ele>109</ele>
        <time>2026-06-28T19:43:22.000Z</time>
      </trkpt>
      <trkpt lat="43.32896" lon="-1.4294">
        <ele>109</ele>
        <time>2026-06-28T19:43:24.000Z</time>
      </trkpt>
      <trkpt lat="43.32896" lon="-1.42958">
        <ele>109</ele>
        <time>2026-06-28T19:43:26.000Z</time>
      </trkpt>
      <trkpt lat="43.32898" lon="-1.43023">
        <ele>112</ele>
        <time>2026-06-28T19:43:35.000Z</time>
      </trkpt>
      <trkpt lat="43.32903" lon="-1.43067">
        <ele>114</ele>
        <time>2026-06-28T19:43:40.000Z</time>
      </trkpt>
      <trkpt lat="43.32896" lon="-1.43087">
        <ele>114</ele>
        <time>2026-06-28T19:43:43.000Z</time>
      </trkpt>
      <trkpt lat="43.3288" lon="-1.43109">
        <ele>114</ele>
        <time>2026-06-28T19:43:47.000Z</time>
      </trkpt>
      <trkpt lat="43.32867" lon="-1.43132">
        <ele>114</ele>
        <time>2026-06-28T19:43:51.000Z</time>
      </trkpt>
      <trkpt lat="43.32843" lon="-1.43191">
        <ele>114</ele>
        <time>2026-06-28T19:44:00.000Z</time>
      </trkpt>
      <trkpt lat="43.32835" lon="-1.43238">
        <ele>116</ele>
        <time>2026-06-28T19:44:06.000Z</time>
      </trkpt>
      <trkpt lat="43.32827" lon="-1.43316">
        <ele>117</ele>
        <time>2026-06-28T19:44:16.000Z</time>
      </trkpt>
      <trkpt lat="43.3281" lon="-1.43417">
        <ele>121</ele>
        <time>2026-06-28T19:44:30.000Z</time>
      </trkpt>
      <trkpt lat="43.32809" lon="-1.43441">
        <ele>122</ele>
        <time>2026-06-28T19:44:33.000Z</time>
      </trkpt>
      <trkpt lat="43.32811" lon="-1.43464">
        <ele>122</ele>
        <time>2026-06-28T19:44:36.000Z</time>
      </trkpt>
      <trkpt lat="43.32825" lon="-1.4352">
        <ele>125</ele>
        <time>2026-06-28T19:44:43.000Z</time>
      </trkpt>
      <trkpt lat="43.3283" lon="-1.43553">
        <ele>128</ele>
        <time>2026-06-28T19:44:48.000Z</time>
      </trkpt>
      <trkpt lat="43.3283" lon="-1.43576">
        <ele>129</ele>
        <time>2026-06-28T19:44:51.000Z</time>
      </trkpt>
      <trkpt lat="43.32825" lon="-1.43598">
        <ele>131</ele>
        <time>2026-06-28T19:44:54.000Z</time>
      </trkpt>
      <trkpt lat="43.32814" lon="-1.43615">
        <ele>133</ele>
        <time>2026-06-28T19:44:57.000Z</time>
      </trkpt>
      <trkpt lat="43.3278" lon="-1.43641">
        <ele>134</ele>
        <time>2026-06-28T19:45:04.000Z</time>
      </trkpt>
      <trkpt lat="43.32722" lon="-1.43702">
        <ele>134</ele>
        <time>2026-06-28T19:45:17.000Z</time>
      </trkpt>
      <trkpt lat="43.32709" lon="-1.43723">
        <ele>134</ele>
        <time>2026-06-28T19:45:20.000Z</time>
      </trkpt>
      <trkpt lat="43.32699" lon="-1.43764">
        <ele>133</ele>
        <time>2026-06-28T19:45:26.000Z</time>
      </trkpt>
      <trkpt lat="43.32684" lon="-1.43795">
        <ele>130</ele>
        <time>2026-06-28T19:45:31.000Z</time>
      </trkpt>
      <trkpt lat="43.32662" lon="-1.43822">
        <ele>127</ele>
        <time>2026-06-28T19:45:36.000Z</time>
      </trkpt>
      <trkpt lat="43.32601" lon="-1.43876">
        <ele>121</ele>
        <time>2026-06-28T19:45:49.000Z</time>
      </trkpt>
      <trkpt lat="43.32586" lon="-1.43895">
        <ele>119</ele>
        <time>2026-06-28T19:45:52.000Z</time>
      </trkpt>
      <trkpt lat="43.32574" lon="-1.43918">
        <ele>119</ele>
        <time>2026-06-28T19:45:56.000Z</time>
      </trkpt>
      <trkpt lat="43.32561" lon="-1.4396">
        <ele>122</ele>
        <time>2026-06-28T19:46:02.000Z</time>
      </trkpt>
      <trkpt lat="43.32547" lon="-1.44056">
        <ele>121</ele>
        <time>2026-06-28T19:46:15.000Z</time>
      </trkpt>
      <trkpt lat="43.3252" lon="-1.44176">
        <ele>112</ele>
        <time>2026-06-28T19:46:31.000Z</time>
      </trkpt>
      <trkpt lat="43.32516" lon="-1.44207">
        <ele>110</ele>
        <time>2026-06-28T19:46:35.000Z</time>
      </trkpt>
      <trkpt lat="43.32514" lon="-1.44274">
        <ele>107</ele>
        <time>2026-06-28T19:46:44.000Z</time>
      </trkpt>
      <trkpt lat="43.32501" lon="-1.44323">
        <ele>106</ele>
        <time>2026-06-28T19:46:50.000Z</time>
      </trkpt>
      <trkpt lat="43.325" lon="-1.44339">
        <ele>106</ele>
        <time>2026-06-28T19:46:53.000Z</time>
      </trkpt>
      <trkpt lat="43.32518" lon="-1.44392">
        <ele>108</ele>
        <time>2026-06-28T19:47:00.000Z</time>
      </trkpt>
      <trkpt lat="43.32534" lon="-1.4445">
        <ele>109</ele>
        <time>2026-06-28T19:47:08.000Z</time>
      </trkpt>
      <trkpt lat="43.32545" lon="-1.44503">
        <ele>109</ele>
        <time>2026-06-28T19:47:15.000Z</time>
      </trkpt>
      <trkpt lat="43.32556" lon="-1.44586">
        <ele>103</ele>
        <time>2026-06-28T19:47:26.000Z</time>
      </trkpt>
      <trkpt lat="43.32585" lon="-1.44708">
        <ele>92</ele>
        <time>2026-06-28T19:47:43.000Z</time>
      </trkpt>
      <trkpt lat="43.32591" lon="-1.44746">
        <ele>92</ele>
        <time>2026-06-28T19:47:48.000Z</time>
      </trkpt>
      <trkpt lat="43.32596" lon="-1.44761">
        <ele>94</ele>
        <time>2026-06-28T19:47:50.000Z</time>
      </trkpt>
      <trkpt lat="43.32608" lon="-1.44777">
        <ele>97</ele>
        <time>2026-06-28T19:47:53.000Z</time>
      </trkpt>
      <trkpt lat="43.32655" lon="-1.44798">
        <ele>100</ele>
        <time>2026-06-28T19:48:02.000Z</time>
      </trkpt>
      <trkpt lat="43.32664" lon="-1.44805">
        <ele>101</ele>
        <time>2026-06-28T19:48:04.000Z</time>
      </trkpt>
      <trkpt lat="43.32685" lon="-1.4483">
        <ele>102</ele>
        <time>2026-06-28T19:48:09.000Z</time>
      </trkpt>
      <trkpt lat="43.3272" lon="-1.44879">
        <ele>107</ele>
        <time>2026-06-28T19:48:17.000Z</time>
      </trkpt>
      <trkpt lat="43.32772" lon="-1.44925">
        <ele>100</ele>
        <time>2026-06-28T19:48:28.000Z</time>
      </trkpt>
      <trkpt lat="43.32786" lon="-1.44934">
        <ele>102</ele>
        <time>2026-06-28T19:48:31.000Z</time>
      </trkpt>
      <trkpt lat="43.32801" lon="-1.4494">
        <ele>102</ele>
        <time>2026-06-28T19:48:34.000Z</time>
      </trkpt>
      <trkpt lat="43.32826" lon="-1.4494">
        <ele>100</ele>
        <time>2026-06-28T19:48:38.000Z</time>
      </trkpt>
      <trkpt lat="43.32845" lon="-1.44937">
        <ele>97</ele>
        <time>2026-06-28T19:48:42.000Z</time>
      </trkpt>
      <trkpt lat="43.32883" lon="-1.44925">
        <ele>92</ele>
        <time>2026-06-28T19:48:49.000Z</time>
      </trkpt>
      <trkpt lat="43.32903" lon="-1.44926">
        <ele>91</ele>
        <time>2026-06-28T19:48:52.000Z</time>
      </trkpt>
      <trkpt lat="43.3293" lon="-1.44922">
        <ele>88</ele>
        <time>2026-06-28T19:48:57.000Z</time>
      </trkpt>
      <trkpt lat="43.32939" lon="-1.44923">
        <ele>88</ele>
        <time>2026-06-28T19:48:59.000Z</time>
      </trkpt>
      <trkpt lat="43.32989" lon="-1.44936">
        <ele>86</ele>
        <time>2026-06-28T19:49:08.000Z</time>
      </trkpt>
      <trkpt lat="43.33042" lon="-1.44969">
        <ele>89</ele>
        <time>2026-06-28T19:49:18.000Z</time>
      </trkpt>
      <trkpt lat="43.33064" lon="-1.44978">
        <ele>89</ele>
        <time>2026-06-28T19:49:22.000Z</time>
      </trkpt>
      <trkpt lat="43.33074" lon="-1.4498">
        <ele>88</ele>
        <time>2026-06-28T19:49:24.000Z</time>
      </trkpt>
      <trkpt lat="43.33083" lon="-1.44979">
        <ele>88</ele>
        <time>2026-06-28T19:49:26.000Z</time>
      </trkpt>
      <trkpt lat="43.33091" lon="-1.44975">
        <ele>90</ele>
        <time>2026-06-28T19:49:27.000Z</time>
      </trkpt>
      <trkpt lat="43.3311" lon="-1.44956">
        <ele>93</ele>
        <time>2026-06-28T19:49:31.000Z</time>
      </trkpt>
      <trkpt lat="43.33124" lon="-1.4493">
        <ele>95</ele>
        <time>2026-06-28T19:49:35.000Z</time>
      </trkpt>
      <trkpt lat="43.3314" lon="-1.44876">
        <ele>92</ele>
        <time>2026-06-28T19:49:43.000Z</time>
      </trkpt>
      <trkpt lat="43.33145" lon="-1.44828">
        <ele>86</ele>
        <time>2026-06-28T19:49:49.000Z</time>
      </trkpt>
      <trkpt lat="43.33151" lon="-1.44807">
        <ele>88</ele>
        <time>2026-06-28T19:49:52.000Z</time>
      </trkpt>
      <trkpt lat="43.33172" lon="-1.44759">
        <ele>89</ele>
        <time>2026-06-28T19:49:59.000Z</time>
      </trkpt>
      <trkpt lat="43.33195" lon="-1.44737">
        <ele>89</ele>
        <time>2026-06-28T19:50:04.000Z</time>
      </trkpt>
      <trkpt lat="43.33212" lon="-1.44729">
        <ele>88</ele>
        <time>2026-06-28T19:50:08.000Z</time>
      </trkpt>
      <trkpt lat="43.333" lon="-1.44712">
        <ele>80</ele>
        <time>2026-06-28T19:50:23.000Z</time>
      </trkpt>
      <trkpt lat="43.33319" lon="-1.44706">
        <ele>80</ele>
        <time>2026-06-28T19:50:27.000Z</time>
      </trkpt>
      <trkpt lat="43.33336" lon="-1.44696">
        <ele>79</ele>
        <time>2026-06-28T19:50:30.000Z</time>
      </trkpt>
      <trkpt lat="43.33357" lon="-1.44672">
        <ele>83</ele>
        <time>2026-06-28T19:50:35.000Z</time>
      </trkpt>
      <trkpt lat="43.33395" lon="-1.44566">
        <ele>80</ele>
        <time>2026-06-28T19:50:50.000Z</time>
      </trkpt>
      <trkpt lat="43.33408" lon="-1.44545">
        <ele>79</ele>
        <time>2026-06-28T19:50:54.000Z</time>
      </trkpt>
      <trkpt lat="43.33435" lon="-1.44531">
        <ele>78</ele>
        <time>2026-06-28T19:50:59.000Z</time>
      </trkpt>
      <trkpt lat="43.33471" lon="-1.44534">
        <ele>77</ele>
        <time>2026-06-28T19:51:06.000Z</time>
      </trkpt>
      <trkpt lat="43.3351" lon="-1.44553">
        <ele>79</ele>
        <time>2026-06-28T19:51:13.000Z</time>
      </trkpt>
      <trkpt lat="43.33577" lon="-1.44606">
        <ele>81</ele>
        <time>2026-06-28T19:51:27.000Z</time>
      </trkpt>
      <trkpt lat="43.33593" lon="-1.44614">
        <ele>81</ele>
        <time>2026-06-28T19:51:30.000Z</time>
      </trkpt>
      <trkpt lat="43.33616" lon="-1.44619">
        <ele>81</ele>
        <time>2026-06-28T19:51:34.000Z</time>
      </trkpt>
      <trkpt lat="43.33688" lon="-1.44612">
        <ele>78</ele>
        <time>2026-06-28T19:51:47.000Z</time>
      </trkpt>
      <trkpt lat="43.33764" lon="-1.44617">
        <ele>78</ele>
        <time>2026-06-28T19:52:00.000Z</time>
      </trkpt>
      <trkpt lat="43.33793" lon="-1.44626">
        <ele>79</ele>
        <time>2026-06-28T19:52:05.000Z</time>
      </trkpt>
      <trkpt lat="43.33839" lon="-1.4465">
        <ele>79</ele>
        <time>2026-06-28T19:52:14.000Z</time>
      </trkpt>
      <trkpt lat="43.33842" lon="-1.44655">
        <ele>79</ele>
        <time>2026-06-28T19:52:15.000Z</time>
      </trkpt>
      <trkpt lat="43.33844" lon="-1.44668">
        <ele>79</ele>
        <time>2026-06-28T19:52:17.000Z</time>
      </trkpt>
      <trkpt lat="43.33842" lon="-1.44704">
        <ele>78</ele>
        <time>2026-06-28T19:52:21.000Z</time>
      </trkpt>
      <trkpt lat="43.33844" lon="-1.44829">
        <ele>74</ele>
        <time>2026-06-28T19:52:38.000Z</time>
      </trkpt>
      <trkpt lat="43.33847" lon="-1.44854">
        <ele>73</ele>
        <time>2026-06-28T19:52:41.000Z</time>
      </trkpt>
      <trkpt lat="43.33853" lon="-1.44878">
        <ele>73</ele>
        <time>2026-06-28T19:52:44.000Z</time>
      </trkpt>
      <trkpt lat="43.33869" lon="-1.44912">
        <ele>72</ele>
        <time>2026-06-28T19:52:49.000Z</time>
      </trkpt>
      <trkpt lat="43.33992" lon="-1.45121">
        <ele>63</ele>
        <time>2026-06-28T19:53:24.000Z</time>
      </trkpt>
      <trkpt lat="43.33999" lon="-1.45126">
        <ele>62</ele>
        <time>2026-06-28T19:53:26.000Z</time>
      </trkpt>
      <trkpt lat="43.3401" lon="-1.45128">
        <ele>62</ele>
        <time>2026-06-28T19:53:28.000Z</time>
      </trkpt>
      <trkpt lat="43.34019" lon="-1.45139">
        <ele>62</ele>
        <time>2026-06-28T19:53:30.000Z</time>
      </trkpt>
      <trkpt lat="43.34021" lon="-1.4515">
        <ele>62</ele>
        <time>2026-06-28T19:53:31.000Z</time>
      </trkpt>
      <trkpt lat="43.34018" lon="-1.45163">
        <ele>61</ele>
        <time>2026-06-28T19:53:33.000Z</time>
      </trkpt>
      <trkpt lat="43.34004" lon="-1.4518">
        <ele>60</ele>
        <time>2026-06-28T19:53:36.000Z</time>
      </trkpt>
      <trkpt lat="43.33996" lon="-1.45195">
        <ele>60</ele>
        <time>2026-06-28T19:53:39.000Z</time>
      </trkpt>
      <trkpt lat="43.33986" lon="-1.45234">
        <ele>59</ele>
        <time>2026-06-28T19:53:44.000Z</time>
      </trkpt>
      <trkpt lat="43.33971" lon="-1.45267">
        <ele>59</ele>
        <time>2026-06-28T19:53:49.000Z</time>
      </trkpt>
      <trkpt lat="43.33956" lon="-1.45287">
        <ele>59</ele>
        <time>2026-06-28T19:53:53.000Z</time>
      </trkpt>
      <trkpt lat="43.33879" lon="-1.45364">
        <ele>59</ele>
        <time>2026-06-28T19:54:10.000Z</time>
      </trkpt>
      <trkpt lat="43.33849" lon="-1.454">
        <ele>59</ele>
        <time>2026-06-28T19:54:17.000Z</time>
      </trkpt>
      <trkpt lat="43.33834" lon="-1.45427">
        <ele>59</ele>
        <time>2026-06-28T19:54:21.000Z</time>
      </trkpt>
      <trkpt lat="43.338" lon="-1.45512">
        <ele>62</ele>
        <time>2026-06-28T19:54:34.000Z</time>
      </trkpt>
      <trkpt lat="43.3377" lon="-1.45575">
        <ele>62</ele>
        <time>2026-06-28T19:54:44.000Z</time>
      </trkpt>
      <trkpt lat="43.33572" lon="-1.45872">
        <ele>66</ele>
        <time>2026-06-28T19:55:36.000Z</time>
      </trkpt>
      <trkpt lat="43.33563" lon="-1.4589">
        <ele>66</ele>
        <time>2026-06-28T19:55:39.000Z</time>
      </trkpt>
      <trkpt lat="43.33557" lon="-1.45911">
        <ele>65</ele>
        <time>2026-06-28T19:55:41.000Z</time>
      </trkpt>
      <trkpt lat="43.33552" lon="-1.45944">
        <ele>63</ele>
        <time>2026-06-28T19:55:46.000Z</time>
      </trkpt>
      <trkpt lat="43.33552" lon="-1.45968">
        <ele>61</ele>
        <time>2026-06-28T19:55:49.000Z</time>
      </trkpt>
      <trkpt lat="43.33558" lon="-1.46014">
        <ele>58</ele>
        <time>2026-06-28T19:55:55.000Z</time>
      </trkpt>
      <trkpt lat="43.33577" lon="-1.46078">
        <ele>57</ele>
        <time>2026-06-28T19:56:04.000Z</time>
      </trkpt>
      <trkpt lat="43.33594" lon="-1.46116">
        <ele>57</ele>
        <time>2026-06-28T19:56:10.000Z</time>
      </trkpt>
      <trkpt lat="43.33635" lon="-1.46191">
        <ele>56</ele>
        <time>2026-06-28T19:56:22.000Z</time>
      </trkpt>
      <trkpt lat="43.33653" lon="-1.46251">
        <ele>56</ele>
        <time>2026-06-28T19:56:30.000Z</time>
      </trkpt>
      <trkpt lat="43.33699" lon="-1.46534">
        <ele>63</ele>
        <time>2026-06-28T19:57:08.000Z</time>
      </trkpt>
      <trkpt lat="43.33704" lon="-1.46598">
        <ele>64</ele>
        <time>2026-06-28T19:57:16.000Z</time>
      </trkpt>
      <trkpt lat="43.337" lon="-1.46708">
        <ele>66</ele>
        <time>2026-06-28T19:57:30.000Z</time>
      </trkpt>
      <trkpt lat="43.33707" lon="-1.46746">
        <ele>66</ele>
        <time>2026-06-28T19:57:35.000Z</time>
      </trkpt>
      <trkpt lat="43.33719" lon="-1.46788">
        <ele>66</ele>
        <time>2026-06-28T19:57:41.000Z</time>
      </trkpt>
      <trkpt lat="43.33744" lon="-1.4684">
        <ele>67</ele>
        <time>2026-06-28T19:57:49.000Z</time>
      </trkpt>
      <trkpt lat="43.33773" lon="-1.46877">
        <ele>67</ele>
        <time>2026-06-28T19:57:56.000Z</time>
      </trkpt>
      <trkpt lat="43.33804" lon="-1.46902">
        <ele>67</ele>
        <time>2026-06-28T19:58:03.000Z</time>
      </trkpt>
      <trkpt lat="43.33896" lon="-1.46966">
        <ele>64</ele>
        <time>2026-06-28T19:58:21.000Z</time>
      </trkpt>
      <trkpt lat="43.33929" lon="-1.47">
        <ele>62</ele>
        <time>2026-06-28T19:58:28.000Z</time>
      </trkpt>
      <trkpt lat="43.33961" lon="-1.47038">
        <ele>63</ele>
        <time>2026-06-28T19:58:36.000Z</time>
      </trkpt>
      <trkpt lat="43.33987" lon="-1.4708">
        <ele>64</ele>
        <time>2026-06-28T19:58:43.000Z</time>
      </trkpt>
      <trkpt lat="43.34051" lon="-1.47211">
        <ele>64</ele>
        <time>2026-06-28T19:59:03.000Z</time>
      </trkpt>
      <trkpt lat="43.34069" lon="-1.47254">
        <ele>64</ele>
        <time>2026-06-28T19:59:10.000Z</time>
      </trkpt>
      <trkpt lat="43.34086" lon="-1.47272">
        <ele>62</ele>
        <time>2026-06-28T19:59:14.000Z</time>
      </trkpt>
      <trkpt lat="43.34089" lon="-1.47284">
        <ele>63</ele>
        <time>2026-06-28T19:59:15.000Z</time>
      </trkpt>
      <trkpt lat="43.34079" lon="-1.47307">
        <ele>64</ele>
        <time>2026-06-28T19:59:19.000Z</time>
      </trkpt>
      <trkpt lat="43.34075" lon="-1.47323">
        <ele>66</ele>
        <time>2026-06-28T19:59:21.000Z</time>
      </trkpt>
      <trkpt lat="43.34079" lon="-1.47373">
        <ele>66</ele>
        <time>2026-06-28T19:59:28.000Z</time>
      </trkpt>
      <trkpt lat="43.3409" lon="-1.47448">
        <ele>65</ele>
        <time>2026-06-28T19:59:37.000Z</time>
      </trkpt>
      <trkpt lat="43.34089" lon="-1.47529">
        <ele>65</ele>
        <time>2026-06-28T19:59:48.000Z</time>
      </trkpt>
      <trkpt lat="43.34083" lon="-1.47547">
        <ele>66</ele>
        <time>2026-06-28T19:59:50.000Z</time>
      </trkpt>
      <trkpt lat="43.34022" lon="-1.47644">
        <ele>68</ele>
        <time>2026-06-28T20:00:07.000Z</time>
      </trkpt>
      <trkpt lat="43.33965" lon="-1.47712">
        <ele>68</ele>
        <time>2026-06-28T20:00:21.000Z</time>
      </trkpt>
      <trkpt lat="43.33933" lon="-1.47739">
        <ele>66</ele>
        <time>2026-06-28T20:00:27.000Z</time>
      </trkpt>
      <trkpt lat="43.3391" lon="-1.47752">
        <ele>65</ele>
        <time>2026-06-28T20:00:32.000Z</time>
      </trkpt>
      <trkpt lat="43.33892" lon="-1.47759">
        <ele>66</ele>
        <time>2026-06-28T20:00:35.000Z</time>
      </trkpt>
      <trkpt lat="43.33861" lon="-1.47762">
        <ele>66</ele>
        <time>2026-06-28T20:00:40.000Z</time>
      </trkpt>
      <trkpt lat="43.33826" lon="-1.47758">
        <ele>65</ele>
        <time>2026-06-28T20:00:47.000Z</time>
      </trkpt>
      <trkpt lat="43.33741" lon="-1.47735">
        <ele>67</ele>
        <time>2026-06-28T20:01:02.000Z</time>
      </trkpt>
      <trkpt lat="43.33706" lon="-1.47733">
        <ele>69</ele>
        <time>2026-06-28T20:01:08.000Z</time>
      </trkpt>
      <trkpt lat="43.33683" lon="-1.47742">
        <ele>70</ele>
        <time>2026-06-28T20:01:13.000Z</time>
      </trkpt>
      <trkpt lat="43.33665" lon="-1.47756">
        <ele>71</ele>
        <time>2026-06-28T20:01:16.000Z</time>
      </trkpt>
      <trkpt lat="43.33646" lon="-1.47779">
        <ele>72</ele>
        <time>2026-06-28T20:01:21.000Z</time>
      </trkpt>
      <trkpt lat="43.33632" lon="-1.47807">
        <ele>74</ele>
        <time>2026-06-28T20:01:25.000Z</time>
      </trkpt>
      <trkpt lat="43.33621" lon="-1.47857">
        <ele>76</ele>
        <time>2026-06-28T20:01:32.000Z</time>
      </trkpt>
      <trkpt lat="43.33579" lon="-1.48185">
        <ele>94</ele>
        <time>2026-06-28T20:02:15.000Z</time>
      </trkpt>
      <trkpt lat="43.3357" lon="-1.48234">
        <ele>96</ele>
        <time>2026-06-28T20:02:22.000Z</time>
      </trkpt>
      <trkpt lat="43.33557" lon="-1.4828">
        <ele>99</ele>
        <time>2026-06-28T20:02:28.000Z</time>
      </trkpt>
      <trkpt lat="43.33534" lon="-1.48331">
        <ele>99</ele>
        <time>2026-06-28T20:02:36.000Z</time>
      </trkpt>
      <trkpt lat="43.33482" lon="-1.48425">
        <ele>103</ele>
        <time>2026-06-28T20:02:51.000Z</time>
      </trkpt>
      <trkpt lat="43.33464" lon="-1.48468">
        <ele>106</ele>
        <time>2026-06-28T20:02:57.000Z</time>
      </trkpt>
      <trkpt lat="43.33453" lon="-1.48513">
        <ele>108</ele>
        <time>2026-06-28T20:03:04.000Z</time>
      </trkpt>
      <trkpt lat="43.33441" lon="-1.48588">
        <ele>112</ele>
        <time>2026-06-28T20:03:14.000Z</time>
      </trkpt>
      <trkpt lat="43.33428" lon="-1.48632">
        <ele>111</ele>
        <time>2026-06-28T20:03:20.000Z</time>
      </trkpt>
      <trkpt lat="43.33402" lon="-1.48675">
        <ele>111</ele>
        <time>2026-06-28T20:03:27.000Z</time>
      </trkpt>
      <trkpt lat="43.33338" lon="-1.48752">
        <ele>118</ele>
        <time>2026-06-28T20:03:42.000Z</time>
      </trkpt>
      <trkpt lat="43.33304" lon="-1.48817">
        <ele>121</ele>
        <time>2026-06-28T20:03:52.000Z</time>
      </trkpt>
      <trkpt lat="43.33291" lon="-1.48856">
        <ele>122</ele>
        <time>2026-06-28T20:03:58.000Z</time>
      </trkpt>
      <trkpt lat="43.33287" lon="-1.48887">
        <ele>122</ele>
        <time>2026-06-28T20:04:02.000Z</time>
      </trkpt>
      <trkpt lat="43.33288" lon="-1.48908">
        <ele>123</ele>
        <time>2026-06-28T20:04:05.000Z</time>
      </trkpt>
      <trkpt lat="43.33294" lon="-1.48928">
        <ele>123</ele>
        <time>2026-06-28T20:04:08.000Z</time>
      </trkpt>
      <trkpt lat="43.33298" lon="-1.48959">
        <ele>124</ele>
        <time>2026-06-28T20:04:12.000Z</time>
      </trkpt>
      <trkpt lat="43.33312" lon="-1.49006">
        <ele>122</ele>
        <time>2026-06-28T20:04:18.000Z</time>
      </trkpt>
      <trkpt lat="43.33316" lon="-1.49037">
        <ele>120</ele>
        <time>2026-06-28T20:04:22.000Z</time>
      </trkpt>
      <trkpt lat="43.33342" lon="-1.49426">
        <ele>104</ele>
        <time>2026-06-28T20:05:13.000Z</time>
      </trkpt>
      <trkpt lat="43.3334" lon="-1.49515">
        <ele>104</ele>
        <time>2026-06-28T20:05:24.000Z</time>
      </trkpt>
      <trkpt lat="43.33321" lon="-1.49671">
        <ele>96</ele>
        <time>2026-06-28T20:05:45.000Z</time>
      </trkpt>
      <trkpt lat="43.33317" lon="-1.49724">
        <ele>94</ele>
        <time>2026-06-28T20:05:52.000Z</time>
      </trkpt>
      <trkpt lat="43.33317" lon="-1.49776">
        <ele>93</ele>
        <time>2026-06-28T20:05:58.000Z</time>
      </trkpt>
      <trkpt lat="43.33323" lon="-1.49827">
        <ele>92</ele>
        <time>2026-06-28T20:06:05.000Z</time>
      </trkpt>
      <trkpt lat="43.33336" lon="-1.49874">
        <ele>88</ele>
        <time>2026-06-28T20:06:12.000Z</time>
      </trkpt>
      <trkpt lat="43.33467" lon="-1.50245">
        <ele>76</ele>
        <time>2026-06-28T20:07:05.000Z</time>
      </trkpt>
      <trkpt lat="43.33481" lon="-1.50274">
        <ele>75</ele>
        <time>2026-06-28T20:07:10.000Z</time>
      </trkpt>
      <trkpt lat="43.33497" lon="-1.50299">
        <ele>74</ele>
        <time>2026-06-28T20:07:14.000Z</time>
      </trkpt>
      <trkpt lat="43.33559" lon="-1.50377">
        <ele>75</ele>
        <time>2026-06-28T20:07:29.000Z</time>
      </trkpt>
      <trkpt lat="43.33575" lon="-1.50401">
        <ele>74</ele>
        <time>2026-06-28T20:07:33.000Z</time>
      </trkpt>
      <trkpt lat="43.33592" lon="-1.50439">
        <ele>75</ele>
        <time>2026-06-28T20:07:39.000Z</time>
      </trkpt>
      <trkpt lat="43.33605" lon="-1.50479">
        <ele>76</ele>
        <time>2026-06-28T20:07:44.000Z</time>
      </trkpt>
      <trkpt lat="43.33613" lon="-1.5052">
        <ele>76</ele>
        <time>2026-06-28T20:07:50.000Z</time>
      </trkpt>
      <trkpt lat="43.33617" lon="-1.50561">
        <ele>75</ele>
        <time>2026-06-28T20:07:55.000Z</time>
      </trkpt>
      <trkpt lat="43.33594" lon="-1.50691">
        <ele>67</ele>
        <time>2026-06-28T20:08:13.000Z</time>
      </trkpt>
      <trkpt lat="43.33591" lon="-1.50739">
        <ele>62</ele>
        <time>2026-06-28T20:08:19.000Z</time>
      </trkpt>
      <trkpt lat="43.33595" lon="-1.50785">
        <ele>60</ele>
        <time>2026-06-28T20:08:25.000Z</time>
      </trkpt>
      <trkpt lat="43.33634" lon="-1.51088">
        <ele>53</ele>
        <time>2026-06-28T20:09:05.000Z</time>
      </trkpt>
      <trkpt lat="43.33648" lon="-1.51157">
        <ele>52</ele>
        <time>2026-06-28T20:09:14.000Z</time>
      </trkpt>
      <trkpt lat="43.33754" lon="-1.515">
        <ele>47</ele>
        <time>2026-06-28T20:10:02.000Z</time>
      </trkpt>
      <trkpt lat="43.3391" lon="-1.51877">
        <ele>43</ele>
        <time>2026-06-28T20:10:58.000Z</time>
      </trkpt>
      <trkpt lat="43.33918" lon="-1.51889">
        <ele>43</ele>
        <time>2026-06-28T20:11:00.000Z</time>
      </trkpt>
      <trkpt lat="43.33916" lon="-1.51889">
        <ele>43</ele>
        <time>2026-06-28T20:11:01.000Z</time>
      </trkpt>
      <trkpt lat="43.33918" lon="-1.51897">
        <ele>44</ele>
        <time>2026-06-28T20:11:02.000Z</time>
      </trkpt>
      <trkpt lat="43.34019" lon="-1.52134">
        <ele>42</ele>
        <time>2026-06-28T20:11:37.000Z</time>
      </trkpt>
      <trkpt lat="43.34075" lon="-1.52272">
        <ele>42</ele>
        <time>2026-06-28T20:11:58.000Z</time>
      </trkpt>
      <trkpt lat="43.34089" lon="-1.52296">
        <ele>42</ele>
        <time>2026-06-28T20:12:02.000Z</time>
      </trkpt>
      <trkpt lat="43.34098" lon="-1.52326">
        <ele>43</ele>
        <time>2026-06-28T20:12:06.000Z</time>
      </trkpt>
      <trkpt lat="43.34178" lon="-1.525">
        <ele>42</ele>
        <time>2026-06-28T20:12:33.000Z</time>
      </trkpt>
      <trkpt lat="43.34225" lon="-1.52578">
        <ele>43</ele>
        <time>2026-06-28T20:12:46.000Z</time>
      </trkpt>
      <trkpt lat="43.34237" lon="-1.52593">
        <ele>42</ele>
        <time>2026-06-28T20:12:49.000Z</time>
      </trkpt>
      <trkpt lat="43.34267" lon="-1.52644">
        <ele>41</ele>
        <time>2026-06-28T20:12:57.000Z</time>
      </trkpt>
      <trkpt lat="43.34284" lon="-1.52668">
        <ele>40</ele>
        <time>2026-06-28T20:13:01.000Z</time>
      </trkpt>
      <trkpt lat="43.34325" lon="-1.52739">
        <ele>36</ele>
        <time>2026-06-28T20:13:13.000Z</time>
      </trkpt>
      <trkpt lat="43.34349" lon="-1.52764">
        <ele>35</ele>
        <time>2026-06-28T20:13:19.000Z</time>
      </trkpt>
      <trkpt lat="43.34364" lon="-1.52811">
        <ele>35</ele>
        <time>2026-06-28T20:13:25.000Z</time>
      </trkpt>
      <trkpt lat="43.34423" lon="-1.52909">
        <ele>36</ele>
        <time>2026-06-28T20:13:42.000Z</time>
      </trkpt>
      <trkpt lat="43.34445" lon="-1.52964">
        <ele>37</ele>
        <time>2026-06-28T20:13:50.000Z</time>
      </trkpt>
      <trkpt lat="43.34452" lon="-1.52992">
        <ele>37</ele>
        <time>2026-06-28T20:13:54.000Z</time>
      </trkpt>
      <trkpt lat="43.3446" lon="-1.53048">
        <ele>40</ele>
        <time>2026-06-28T20:14:01.000Z</time>
      </trkpt>
      <trkpt lat="43.34497" lon="-1.53455">
        <ele>43</ele>
        <time>2026-06-28T20:14:54.000Z</time>
      </trkpt>
      <trkpt lat="43.34534" lon="-1.53711">
        <ele>40</ele>
        <time>2026-06-28T20:15:28.000Z</time>
      </trkpt>
      <trkpt lat="43.34565" lon="-1.53845">
        <ele>38</ele>
        <time>2026-06-28T20:15:46.000Z</time>
      </trkpt>
      <trkpt lat="43.3457" lon="-1.53884">
        <ele>36</ele>
        <time>2026-06-28T20:15:51.000Z</time>
      </trkpt>
      <trkpt lat="43.34572" lon="-1.53961">
        <ele>34</ele>
        <time>2026-06-28T20:16:01.000Z</time>
      </trkpt>
      <trkpt lat="43.34575" lon="-1.53986">
        <ele>35</ele>
        <time>2026-06-28T20:16:04.000Z</time>
      </trkpt>
      <trkpt lat="43.3459" lon="-1.54046">
        <ele>34</ele>
        <time>2026-06-28T20:16:13.000Z</time>
      </trkpt>
      <trkpt lat="43.3465" lon="-1.54165">
        <ele>38</ele>
        <time>2026-06-28T20:16:31.000Z</time>
      </trkpt>
      <trkpt lat="43.34666" lon="-1.54212">
        <ele>38</ele>
        <time>2026-06-28T20:16:38.000Z</time>
      </trkpt>
      <trkpt lat="43.34675" lon="-1.54264">
        <ele>36</ele>
        <time>2026-06-28T20:16:45.000Z</time>
      </trkpt>
      <trkpt lat="43.34681" lon="-1.54419">
        <ele>31</ele>
        <time>2026-06-28T20:17:05.000Z</time>
      </trkpt>
      <trkpt lat="43.34685" lon="-1.54445">
        <ele>30</ele>
        <time>2026-06-28T20:17:09.000Z</time>
      </trkpt>
      <trkpt lat="43.34695" lon="-1.54484">
        <ele>29</ele>
        <time>2026-06-28T20:17:14.000Z</time>
      </trkpt>
      <trkpt lat="43.34718" lon="-1.54528">
        <ele>28</ele>
        <time>2026-06-28T20:17:21.000Z</time>
      </trkpt>
      <trkpt lat="43.3486" lon="-1.54752">
        <ele>25</ele>
        <time>2026-06-28T20:17:59.000Z</time>
      </trkpt>
      <trkpt lat="43.34882" lon="-1.54783">
        <ele>25</ele>
        <time>2026-06-28T20:18:05.000Z</time>
      </trkpt>
      <trkpt lat="43.34895" lon="-1.54797">
        <ele>24</ele>
        <time>2026-06-28T20:18:08.000Z</time>
      </trkpt>
      <trkpt lat="43.34936" lon="-1.54831">
        <ele>23</ele>
        <time>2026-06-28T20:18:16.000Z</time>
      </trkpt>
      <trkpt lat="43.34964" lon="-1.54848">
        <ele>23</ele>
        <time>2026-06-28T20:18:22.000Z</time>
      </trkpt>
      <trkpt lat="43.3508" lon="-1.54909">
        <ele>20</ele>
        <time>2026-06-28T20:18:44.000Z</time>
      </trkpt>
      <trkpt lat="43.35102" lon="-1.54928">
        <ele>19</ele>
        <time>2026-06-28T20:18:49.000Z</time>
      </trkpt>
      <trkpt lat="43.35121" lon="-1.5494">
        <ele>19</ele>
        <time>2026-06-28T20:18:52.000Z</time>
      </trkpt>
      <trkpt lat="43.35126" lon="-1.54947">
        <ele>18</ele>
        <time>2026-06-28T20:18:54.000Z</time>
      </trkpt>
      <trkpt lat="43.35133" lon="-1.54963">
        <ele>18</ele>
        <time>2026-06-28T20:18:56.000Z</time>
      </trkpt>
      <trkpt lat="43.35135" lon="-1.54991">
        <ele>18</ele>
        <time>2026-06-28T20:19:00.000Z</time>
      </trkpt>
      <trkpt lat="43.3515" lon="-1.55037">
        <ele>17</ele>
        <time>2026-06-28T20:19:06.000Z</time>
      </trkpt>
      <trkpt lat="43.35267" lon="-1.55298">
        <ele>17</ele>
        <time>2026-06-28T20:19:46.000Z</time>
      </trkpt>
      <trkpt lat="43.3528" lon="-1.5532">
        <ele>17</ele>
        <time>2026-06-28T20:19:49.000Z</time>
      </trkpt>
      <trkpt lat="43.35297" lon="-1.5534">
        <ele>17</ele>
        <time>2026-06-28T20:19:53.000Z</time>
      </trkpt>
      <trkpt lat="43.35316" lon="-1.55357">
        <ele>17</ele>
        <time>2026-06-28T20:19:57.000Z</time>
      </trkpt>
      <trkpt lat="43.3533" lon="-1.55366">
        <ele>17</ele>
        <time>2026-06-28T20:20:00.000Z</time>
      </trkpt>
      <trkpt lat="43.35344" lon="-1.55371">
        <ele>16</ele>
        <time>2026-06-28T20:20:03.000Z</time>
      </trkpt>
      <trkpt lat="43.35367" lon="-1.55375">
        <ele>16</ele>
        <time>2026-06-28T20:20:07.000Z</time>
      </trkpt>
      <trkpt lat="43.3539" lon="-1.55375">
        <ele>16</ele>
        <time>2026-06-28T20:20:11.000Z</time>
      </trkpt>
      <trkpt lat="43.35475" lon="-1.55362">
        <ele>16</ele>
        <time>2026-06-28T20:20:26.000Z</time>
      </trkpt>
      <trkpt lat="43.3549" lon="-1.55364">
        <ele>16</ele>
        <time>2026-06-28T20:20:29.000Z</time>
      </trkpt>
      <trkpt lat="43.35513" lon="-1.55372">
        <ele>16</ele>
        <time>2026-06-28T20:20:33.000Z</time>
      </trkpt>
      <trkpt lat="43.3554" lon="-1.55389">
        <ele>16</ele>
        <time>2026-06-28T20:20:38.000Z</time>
      </trkpt>
      <trkpt lat="43.35559" lon="-1.55397">
        <ele>16</ele>
        <time>2026-06-28T20:20:42.000Z</time>
      </trkpt>
      <trkpt lat="43.35564" lon="-1.55403">
        <ele>16</ele>
        <time>2026-06-28T20:20:43.000Z</time>
      </trkpt>
      <trkpt lat="43.35581" lon="-1.55464">
        <ele>14</ele>
        <time>2026-06-28T20:20:52.000Z</time>
      </trkpt>
      <trkpt lat="43.35586" lon="-1.55504">
        <ele>13</ele>
        <time>2026-06-28T20:20:57.000Z</time>
      </trkpt>
      <trkpt lat="43.35591" lon="-1.55773">
        <ele>16</ele>
        <time>2026-06-28T20:21:32.000Z</time>
      </trkpt>
      <trkpt lat="43.35603" lon="-1.55829">
        <ele>15</ele>
        <time>2026-06-28T20:21:39.000Z</time>
      </trkpt>
      <trkpt lat="43.35616" lon="-1.5586">
        <ele>15</ele>
        <time>2026-06-28T20:21:44.000Z</time>
      </trkpt>
      <trkpt lat="43.35632" lon="-1.55886">
        <ele>16</ele>
        <time>2026-06-28T20:21:48.000Z</time>
      </trkpt>
      <trkpt lat="43.35644" lon="-1.559">
        <ele>16</ele>
        <time>2026-06-28T20:21:51.000Z</time>
      </trkpt>
      <trkpt lat="43.35728" lon="-1.55969">
        <ele>16</ele>
        <time>2026-06-28T20:22:08.000Z</time>
      </trkpt>
      <trkpt lat="43.3574" lon="-1.55976">
        <ele>17</ele>
        <time>2026-06-28T20:22:11.000Z</time>
      </trkpt>
      <trkpt lat="43.35757" lon="-1.55979">
        <ele>17</ele>
        <time>2026-06-28T20:22:14.000Z</time>
      </trkpt>
      <trkpt lat="43.35766" lon="-1.55988">
        <ele>18</ele>
        <time>2026-06-28T20:22:16.000Z</time>
      </trkpt>
      <trkpt lat="43.35766" lon="-1.56002">
        <ele>18</ele>
        <time>2026-06-28T20:22:18.000Z</time>
      </trkpt>
      <trkpt lat="43.3576" lon="-1.56013">
        <ele>19</ele>
        <time>2026-06-28T20:22:19.000Z</time>
      </trkpt>
      <trkpt lat="43.35716" lon="-1.56048">
        <ele>19</ele>
        <time>2026-06-28T20:22:28.000Z</time>
      </trkpt>
      <trkpt lat="43.35673" lon="-1.56075">
        <ele>18</ele>
        <time>2026-06-28T20:22:37.000Z</time>
      </trkpt>
      <trkpt lat="43.35653" lon="-1.56093">
        <ele>18</ele>
        <time>2026-06-28T20:22:41.000Z</time>
      </trkpt>
      <trkpt lat="43.35634" lon="-1.56121">
        <ele>18</ele>
        <time>2026-06-28T20:22:46.000Z</time>
      </trkpt>
      <trkpt lat="43.35624" lon="-1.56148">
        <ele>19</ele>
        <time>2026-06-28T20:22:50.000Z</time>
      </trkpt>
      <trkpt lat="43.35619" lon="-1.56207">
        <ele>19</ele>
        <time>2026-06-28T20:22:58.000Z</time>
      </trkpt>
      <trkpt lat="43.35625" lon="-1.56536">
        <ele>19</ele>
        <time>2026-06-28T20:23:40.000Z</time>
      </trkpt>
      <trkpt lat="43.35634" lon="-1.56599">
        <ele>19</ele>
        <time>2026-06-28T20:23:49.000Z</time>
      </trkpt>
      <trkpt lat="43.3562" lon="-1.5669">
        <ele>19</ele>
        <time>2026-06-28T20:24:01.000Z</time>
      </trkpt>
      <trkpt lat="43.35592" lon="-1.5679">
        <ele>17</ele>
        <time>2026-06-28T20:24:14.000Z</time>
      </trkpt>
      <trkpt lat="43.35588" lon="-1.56826">
        <ele>17</ele>
        <time>2026-06-28T20:24:19.000Z</time>
      </trkpt>
      <trkpt lat="43.35591" lon="-1.56844">
        <ele>17</ele>
        <time>2026-06-28T20:24:22.000Z</time>
      </trkpt>
      <trkpt lat="43.35603" lon="-1.56877">
        <ele>17</ele>
        <time>2026-06-28T20:24:26.000Z</time>
      </trkpt>
      <trkpt lat="43.35666" lon="-1.57001">
        <ele>15</ele>
        <time>2026-06-28T20:24:46.000Z</time>
      </trkpt>
      <trkpt lat="43.35718" lon="-1.57114">
        <ele>15</ele>
        <time>2026-06-28T20:25:03.000Z</time>
      </trkpt>
      <trkpt lat="43.35732" lon="-1.57147">
        <ele>15</ele>
        <time>2026-06-28T20:25:08.000Z</time>
      </trkpt>
      <trkpt lat="43.3574" lon="-1.57174">
        <ele>15</ele>
        <time>2026-06-28T20:25:12.000Z</time>
      </trkpt>
      <trkpt lat="43.35747" lon="-1.5722">
        <ele>14</ele>
        <time>2026-06-28T20:25:18.000Z</time>
      </trkpt>
      <trkpt lat="43.35766" lon="-1.5741">
        <ele>13</ele>
        <time>2026-06-28T20:25:43.000Z</time>
      </trkpt>
      <trkpt lat="43.35773" lon="-1.57435">
        <ele>13</ele>
        <time>2026-06-28T20:25:46.000Z</time>
      </trkpt>
      <trkpt lat="43.35787" lon="-1.57463">
        <ele>13</ele>
        <time>2026-06-28T20:25:51.000Z</time>
      </trkpt>
      <trkpt lat="43.35788" lon="-1.57471">
        <ele>13</ele>
        <time>2026-06-28T20:25:52.000Z</time>
      </trkpt>
      <trkpt lat="43.35783" lon="-1.57497">
        <ele>13</ele>
        <time>2026-06-28T20:25:55.000Z</time>
      </trkpt>
      <trkpt lat="43.35783" lon="-1.57534">
        <ele>13</ele>
        <time>2026-06-28T20:26:00.000Z</time>
      </trkpt>
      <trkpt lat="43.35789" lon="-1.57607">
        <ele>13</ele>
        <time>2026-06-28T20:26:09.000Z</time>
      </trkpt>
      <trkpt lat="43.35834" lon="-1.57831">
        <ele>11</ele>
        <time>2026-06-28T20:26:40.000Z</time>
      </trkpt>
      <trkpt lat="43.35857" lon="-1.57908">
        <ele>12</ele>
        <time>2026-06-28T20:26:50.000Z</time>
      </trkpt>
      <trkpt lat="43.3587" lon="-1.5794">
        <ele>12</ele>
        <time>2026-06-28T20:26:55.000Z</time>
      </trkpt>
      <trkpt lat="43.35899" lon="-1.5799">
        <ele>11</ele>
        <time>2026-06-28T20:27:03.000Z</time>
      </trkpt>
      <trkpt lat="43.36081" lon="-1.58252">
        <ele>12</ele>
        <time>2026-06-28T20:27:50.000Z</time>
      </trkpt>
      <trkpt lat="43.3613" lon="-1.58334">
        <ele>12</ele>
        <time>2026-06-28T20:28:04.000Z</time>
      </trkpt>
      <trkpt lat="43.36152" lon="-1.58383">
        <ele>12</ele>
        <time>2026-06-28T20:28:11.000Z</time>
      </trkpt>
      <trkpt lat="43.36167" lon="-1.58425">
        <ele>12</ele>
        <time>2026-06-28T20:28:17.000Z</time>
      </trkpt>
      <trkpt lat="43.36252" lon="-1.58693">
        <ele>13</ele>
        <time>2026-06-28T20:28:55.000Z</time>
      </trkpt>
      <trkpt lat="43.36265" lon="-1.58727">
        <ele>16</ele>
        <time>2026-06-28T20:29:00.000Z</time>
      </trkpt>
      <trkpt lat="43.36278" lon="-1.58752">
        <ele>19</ele>
        <time>2026-06-28T20:29:04.000Z</time>
      </trkpt>
      <trkpt lat="43.36309" lon="-1.58796">
        <ele>20</ele>
        <time>2026-06-28T20:29:12.000Z</time>
      </trkpt>
      <trkpt lat="43.36389" lon="-1.58865">
        <ele>19</ele>
        <time>2026-06-28T20:29:29.000Z</time>
      </trkpt>
      <trkpt lat="43.36413" lon="-1.58889">
        <ele>17</ele>
        <time>2026-06-28T20:29:34.000Z</time>
      </trkpt>
      <trkpt lat="43.36435" lon="-1.58916">
        <ele>13</ele>
        <time>2026-06-28T20:29:39.000Z</time>
      </trkpt>
      <trkpt lat="43.36457" lon="-1.58956">
        <ele>12</ele>
        <time>2026-06-28T20:29:46.000Z</time>
      </trkpt>
      <trkpt lat="43.36478" lon="-1.59012">
        <ele>10</ele>
        <time>2026-06-28T20:29:54.000Z</time>
      </trkpt>
      <trkpt lat="43.36494" lon="-1.59072">
        <ele>9</ele>
        <time>2026-06-28T20:30:02.000Z</time>
      </trkpt>
      <trkpt lat="43.36561" lon="-1.59289">
        <ele>10</ele>
        <time>2026-06-28T20:30:33.000Z</time>
      </trkpt>
      <trkpt lat="43.3658" lon="-1.59354">
        <ele>9</ele>
        <time>2026-06-28T20:30:42.000Z</time>
      </trkpt>
      <trkpt lat="43.36591" lon="-1.59411">
        <ele>9</ele>
        <time>2026-06-28T20:30:50.000Z</time>
      </trkpt>
      <trkpt lat="43.36595" lon="-1.5944">
        <ele>10</ele>
        <time>2026-06-28T20:30:53.000Z</time>
      </trkpt>
      <trkpt lat="43.36596" lon="-1.59501">
        <ele>10</ele>
        <time>2026-06-28T20:31:01.000Z</time>
      </trkpt>
      <trkpt lat="43.36589" lon="-1.5961">
        <ele>14</ele>
        <time>2026-06-28T20:31:15.000Z</time>
      </trkpt>
      <trkpt lat="43.3657" lon="-1.5981">
        <ele>19</ele>
        <time>2026-06-28T20:31:42.000Z</time>
      </trkpt>
      <trkpt lat="43.36563" lon="-1.59845">
        <ele>18</ele>
        <time>2026-06-28T20:31:46.000Z</time>
      </trkpt>
      <trkpt lat="43.36554" lon="-1.59869">
        <ele>18</ele>
        <time>2026-06-28T20:31:50.000Z</time>
      </trkpt>
      <trkpt lat="43.36532" lon="-1.59902">
        <ele>16</ele>
        <time>2026-06-28T20:31:55.000Z</time>
      </trkpt>
      <trkpt lat="43.36453" lon="-1.59964">
        <ele>15</ele>
        <time>2026-06-28T20:32:12.000Z</time>
      </trkpt>
      <trkpt lat="43.36433" lon="-1.59984">
        <ele>14</ele>
        <time>2026-06-28T20:32:16.000Z</time>
      </trkpt>
      <trkpt lat="43.36419" lon="-1.60002">
        <ele>14</ele>
        <time>2026-06-28T20:32:19.000Z</time>
      </trkpt>
      <trkpt lat="43.36379" lon="-1.60069">
        <ele>16</ele>
        <time>2026-06-28T20:32:31.000Z</time>
      </trkpt>
      <trkpt lat="43.36338" lon="-1.60171">
        <ele>18</ele>
        <time>2026-06-28T20:32:46.000Z</time>
      </trkpt>
      <trkpt lat="43.36326" lon="-1.60193">
        <ele>20</ele>
        <time>2026-06-28T20:32:49.000Z</time>
      </trkpt>
      <trkpt lat="43.36298" lon="-1.60232">
        <ele>22</ele>
        <time>2026-06-28T20:32:56.000Z</time>
      </trkpt>
      <trkpt lat="43.36275" lon="-1.60254">
        <ele>21</ele>
        <time>2026-06-28T20:33:01.000Z</time>
      </trkpt>
      <trkpt lat="43.36192" lon="-1.60324">
        <ele>15</ele>
        <time>2026-06-28T20:33:19.000Z</time>
      </trkpt>
      <trkpt lat="43.36166" lon="-1.60352">
        <ele>14</ele>
        <time>2026-06-28T20:33:25.000Z</time>
      </trkpt>
      <trkpt lat="43.36152" lon="-1.60371">
        <ele>15</ele>
        <time>2026-06-28T20:33:28.000Z</time>
      </trkpt>
      <trkpt lat="43.36129" lon="-1.60411">
        <ele>16</ele>
        <time>2026-06-28T20:33:35.000Z</time>
      </trkpt>
      <trkpt lat="43.36112" lon="-1.60463">
        <ele>17</ele>
        <time>2026-06-28T20:33:42.000Z</time>
      </trkpt>
      <trkpt lat="43.36107" lon="-1.60487">
        <ele>17</ele>
        <time>2026-06-28T20:33:45.000Z</time>
      </trkpt>
      <trkpt lat="43.36105" lon="-1.60527">
        <ele>18</ele>
        <time>2026-06-28T20:33:50.000Z</time>
      </trkpt>
      <trkpt lat="43.36107" lon="-1.6058">
        <ele>19</ele>
        <time>2026-06-28T20:33:57.000Z</time>
      </trkpt>
      <trkpt lat="43.36118" lon="-1.60674">
        <ele>19</ele>
        <time>2026-06-28T20:34:10.000Z</time>
      </trkpt>
      <trkpt lat="43.36123" lon="-1.60743">
        <ele>19</ele>
        <time>2026-06-28T20:34:19.000Z</time>
      </trkpt>
      <trkpt lat="43.36108" lon="-1.61044">
        <ele>17</ele>
        <time>2026-06-28T20:34:58.000Z</time>
      </trkpt>
      <trkpt lat="43.36104" lon="-1.61089">
        <ele>15</ele>
        <time>2026-06-28T20:35:04.000Z</time>
      </trkpt>
      <trkpt lat="43.36097" lon="-1.61128">
        <ele>14</ele>
        <time>2026-06-28T20:35:09.000Z</time>
      </trkpt>
      <trkpt lat="43.36071" lon="-1.61206">
        <ele>11</ele>
        <time>2026-06-28T20:35:20.000Z</time>
      </trkpt>
      <trkpt lat="43.36058" lon="-1.61233">
        <ele>11</ele>
        <time>2026-06-28T20:35:24.000Z</time>
      </trkpt>
      <trkpt lat="43.36037" lon="-1.61267">
        <ele>11</ele>
        <time>2026-06-28T20:35:30.000Z</time>
      </trkpt>
      <trkpt lat="43.35932" lon="-1.61404">
        <ele>16</ele>
        <time>2026-06-28T20:35:56.000Z</time>
      </trkpt>
      <trkpt lat="43.35904" lon="-1.61432">
        <ele>17</ele>
        <time>2026-06-28T20:36:02.000Z</time>
      </trkpt>
      <trkpt lat="43.35827" lon="-1.61496">
        <ele>12</ele>
        <time>2026-06-28T20:36:18.000Z</time>
      </trkpt>
      <trkpt lat="43.358" lon="-1.61525">
        <ele>14</ele>
        <time>2026-06-28T20:36:24.000Z</time>
      </trkpt>
      <trkpt lat="43.35644" lon="-1.61767">
        <ele>16</ele>
        <time>2026-06-28T20:37:06.000Z</time>
      </trkpt>
      <trkpt lat="43.35531" lon="-1.6195">
        <ele>19</ele>
        <time>2026-06-28T20:37:37.000Z</time>
      </trkpt>
      <trkpt lat="43.3549" lon="-1.62006">
        <ele>20</ele>
        <time>2026-06-28T20:37:47.000Z</time>
      </trkpt>
      <trkpt lat="43.35445" lon="-1.62044">
        <ele>22</ele>
        <time>2026-06-28T20:37:56.000Z</time>
      </trkpt>
      <trkpt lat="43.35425" lon="-1.62057">
        <ele>23</ele>
        <time>2026-06-28T20:38:00.000Z</time>
      </trkpt>
      <trkpt lat="43.35353" lon="-1.62089">
        <ele>22</ele>
        <time>2026-06-28T20:38:14.000Z</time>
      </trkpt>
      <trkpt lat="43.35294" lon="-1.6211">
        <ele>18</ele>
        <time>2026-06-28T20:38:25.000Z</time>
      </trkpt>
      <trkpt lat="43.35237" lon="-1.62135">
        <ele>14</ele>
        <time>2026-06-28T20:38:35.000Z</time>
      </trkpt>
      <trkpt lat="43.35211" lon="-1.62154">
        <ele>13</ele>
        <time>2026-06-28T20:38:41.000Z</time>
      </trkpt>
      <trkpt lat="43.35194" lon="-1.62174">
        <ele>12</ele>
        <time>2026-06-28T20:38:45.000Z</time>
      </trkpt>
      <trkpt lat="43.35172" lon="-1.62211">
        <ele>11</ele>
        <time>2026-06-28T20:38:51.000Z</time>
      </trkpt>
      <trkpt lat="43.35123" lon="-1.62308">
        <ele>12</ele>
        <time>2026-06-28T20:39:06.000Z</time>
      </trkpt>
      <trkpt lat="43.35114" lon="-1.62331">
        <ele>11</ele>
        <time>2026-06-28T20:39:09.000Z</time>
      </trkpt>
      <trkpt lat="43.35111" lon="-1.62349">
        <ele>11</ele>
        <time>2026-06-28T20:39:12.000Z</time>
      </trkpt>
      <trkpt lat="43.35107" lon="-1.62401">
        <ele>11</ele>
        <time>2026-06-28T20:39:19.000Z</time>
      </trkpt>
      <trkpt lat="43.35112" lon="-1.62476">
        <ele>12</ele>
        <time>2026-06-28T20:39:28.000Z</time>
      </trkpt>
      <trkpt lat="43.35119" lon="-1.62514">
        <ele>12</ele>
        <time>2026-06-28T20:39:33.000Z</time>
      </trkpt>
      <trkpt lat="43.35141" lon="-1.62583">
        <ele>13</ele>
        <time>2026-06-28T20:39:43.000Z</time>
      </trkpt>
      <trkpt lat="43.35142" lon="-1.62599">
        <ele>12</ele>
        <time>2026-06-28T20:39:45.000Z</time>
      </trkpt>
      <trkpt lat="43.35204" lon="-1.62752">
        <ele>8</ele>
        <time>2026-06-28T20:40:08.000Z</time>
      </trkpt>
      <trkpt lat="43.3522" lon="-1.62805">
        <ele>7</ele>
        <time>2026-06-28T20:40:15.000Z</time>
      </trkpt>
      <trkpt lat="43.35225" lon="-1.62813">
        <ele>7</ele>
        <time>2026-06-28T20:40:17.000Z</time>
      </trkpt>
      <trkpt lat="43.35262" lon="-1.62923">
        <ele>6</ele>
        <time>2026-06-28T20:40:32.000Z</time>
      </trkpt>
      <trkpt lat="43.35289" lon="-1.62977">
        <ele>6</ele>
        <time>2026-06-28T20:40:41.000Z</time>
      </trkpt>
      <trkpt lat="43.35305" lon="-1.62999">
        <ele>6</ele>
        <time>2026-06-28T20:40:45.000Z</time>
      </trkpt>
      <trkpt lat="43.35356" lon="-1.63051">
        <ele>7</ele>
        <time>2026-06-28T20:40:56.000Z</time>
      </trkpt>
      <trkpt lat="43.35411" lon="-1.63088">
        <ele>7</ele>
        <time>2026-06-28T20:41:07.000Z</time>
      </trkpt>
      <trkpt lat="43.35588" lon="-1.63144">
        <ele>5</ele>
        <time>2026-06-28T20:41:39.000Z</time>
      </trkpt>
      <trkpt lat="43.35646" lon="-1.63158">
        <ele>6</ele>
        <time>2026-06-28T20:41:50.000Z</time>
      </trkpt>
      <trkpt lat="43.35662" lon="-1.63169">
        <ele>6</ele>
        <time>2026-06-28T20:41:53.000Z</time>
      </trkpt>
      <trkpt lat="43.35677" lon="-1.63168">
        <ele>6</ele>
        <time>2026-06-28T20:41:56.000Z</time>
      </trkpt>
      <trkpt lat="43.35687" lon="-1.6317">
        <ele>6</ele>
        <time>2026-06-28T20:41:57.000Z</time>
      </trkpt>
      <trkpt lat="43.35744" lon="-1.63191">
        <ele>7</ele>
        <time>2026-06-28T20:42:08.000Z</time>
      </trkpt>
      <trkpt lat="43.35785" lon="-1.63216">
        <ele>9</ele>
        <time>2026-06-28T20:42:16.000Z</time>
      </trkpt>
      <trkpt lat="43.35857" lon="-1.63284">
        <ele>9</ele>
        <time>2026-06-28T20:42:31.000Z</time>
      </trkpt>
      <trkpt lat="43.35892" lon="-1.63314">
        <ele>9</ele>
        <time>2026-06-28T20:42:39.000Z</time>
      </trkpt>
      <trkpt lat="43.35925" lon="-1.63349">
        <ele>8</ele>
        <time>2026-06-28T20:42:46.000Z</time>
      </trkpt>
      <trkpt lat="43.35989" lon="-1.63443">
        <ele>8</ele>
        <time>2026-06-28T20:43:03.000Z</time>
      </trkpt>
      <trkpt lat="43.3602" lon="-1.63518">
        <ele>6</ele>
        <time>2026-06-28T20:43:14.000Z</time>
      </trkpt>
      <trkpt lat="43.36042" lon="-1.63556">
        <ele>5</ele>
        <time>2026-06-28T20:43:20.000Z</time>
      </trkpt>
      <trkpt lat="43.36064" lon="-1.63583">
        <ele>5</ele>
        <time>2026-06-28T20:43:26.000Z</time>
      </trkpt>
      <trkpt lat="43.3608" lon="-1.63597">
        <ele>5</ele>
        <time>2026-06-28T20:43:29.000Z</time>
      </trkpt>
      <trkpt lat="43.36118" lon="-1.63617">
        <ele>5</ele>
        <time>2026-06-28T20:43:36.000Z</time>
      </trkpt>
      <trkpt lat="43.36188" lon="-1.63643">
        <ele>6</ele>
        <time>2026-06-28T20:43:49.000Z</time>
      </trkpt>
      <trkpt lat="43.36204" lon="-1.63653">
        <ele>6</ele>
        <time>2026-06-28T20:43:52.000Z</time>
      </trkpt>
      <trkpt lat="43.36219" lon="-1.63659">
        <ele>6</ele>
        <time>2026-06-28T20:43:55.000Z</time>
      </trkpt>
      <trkpt lat="43.36275" lon="-1.63675">
        <ele>6</ele>
        <time>2026-06-28T20:44:05.000Z</time>
      </trkpt>
      <trkpt lat="43.36308" lon="-1.63678">
        <ele>7</ele>
        <time>2026-06-28T20:44:11.000Z</time>
      </trkpt>
      <trkpt lat="43.36335" lon="-1.63675">
        <ele>7</ele>
        <time>2026-06-28T20:44:16.000Z</time>
      </trkpt>
      <trkpt lat="43.36398" lon="-1.63662">
        <ele>7</ele>
        <time>2026-06-28T20:44:27.000Z</time>
      </trkpt>
      <trkpt lat="43.36417" lon="-1.63652">
        <ele>7</ele>
        <time>2026-06-28T20:44:31.000Z</time>
      </trkpt>
      <trkpt lat="43.36487" lon="-1.63627">
        <ele>4</ele>
        <time>2026-06-28T20:44:44.000Z</time>
      </trkpt>
      <trkpt lat="43.36614" lon="-1.63587">
        <ele>6</ele>
        <time>2026-06-28T20:45:07.000Z</time>
      </trkpt>
      <trkpt lat="43.36645" lon="-1.63581">
        <ele>7</ele>
        <time>2026-06-28T20:45:12.000Z</time>
      </trkpt>
      <trkpt lat="43.36682" lon="-1.63582">
        <ele>8</ele>
        <time>2026-06-28T20:45:19.000Z</time>
      </trkpt>
      <trkpt lat="43.36713" lon="-1.63588">
        <ele>7</ele>
        <time>2026-06-28T20:45:25.000Z</time>
      </trkpt>
      <trkpt lat="43.36748" lon="-1.63599">
        <ele>7</ele>
        <time>2026-06-28T20:45:31.000Z</time>
      </trkpt>
      <trkpt lat="43.36802" lon="-1.63629">
        <ele>5</ele>
        <time>2026-06-28T20:45:41.000Z</time>
      </trkpt>
      <trkpt lat="43.36889" lon="-1.63688">
        <ele>4</ele>
        <time>2026-06-28T20:45:59.000Z</time>
      </trkpt>
      <trkpt lat="43.37029" lon="-1.63777">
        <ele>5</ele>
        <time>2026-06-28T20:46:26.000Z</time>
      </trkpt>
      <trkpt lat="43.37059" lon="-1.63803">
        <ele>5</ele>
        <time>2026-06-28T20:46:32.000Z</time>
      </trkpt>
      <trkpt lat="43.37073" lon="-1.63809">
        <ele>5</ele>
        <time>2026-06-28T20:46:35.000Z</time>
      </trkpt>
      <trkpt lat="43.37113" lon="-1.63811">
        <ele>5</ele>
        <time>2026-06-28T20:46:42.000Z</time>
      </trkpt>
      <trkpt lat="43.37401" lon="-1.63793">
        <ele>4</ele>
        <time>2026-06-28T20:47:33.000Z</time>
      </trkpt>
      <trkpt lat="43.37507" lon="-1.638">
        <ele>4</ele>
        <time>2026-06-28T20:47:52.000Z</time>
      </trkpt>
      <trkpt lat="43.37513" lon="-1.63804">
        <ele>4</ele>
        <time>2026-06-28T20:47:53.000Z</time>
      </trkpt>
      <trkpt lat="43.37519" lon="-1.63816">
        <ele>4</ele>
        <time>2026-06-28T20:47:55.000Z</time>
      </trkpt>
      <trkpt lat="43.3753" lon="-1.63817">
        <ele>4</ele>
        <time>2026-06-28T20:47:57.000Z</time>
      </trkpt>
      <trkpt lat="43.37542" lon="-1.6381">
        <ele>4</ele>
        <time>2026-06-28T20:48:00.000Z</time>
      </trkpt>
      <trkpt lat="43.37546" lon="-1.63803">
        <ele>5</ele>
        <time>2026-06-28T20:48:01.000Z</time>
      </trkpt>
      <trkpt lat="43.37556" lon="-1.638">
        <ele>5</ele>
        <time>2026-06-28T20:48:03.000Z</time>
      </trkpt>
      <trkpt lat="43.37619" lon="-1.63796">
        <ele>6</ele>
        <time>2026-06-28T20:48:14.000Z</time>
      </trkpt>
      <trkpt lat="43.37633" lon="-1.63784">
        <ele>6</ele>
        <time>2026-06-28T20:48:17.000Z</time>
      </trkpt>
      <trkpt lat="43.3764" lon="-1.63782">
        <ele>6</ele>
        <time>2026-06-28T20:48:18.000Z</time>
      </trkpt>
      <trkpt lat="43.37745" lon="-1.63773">
        <ele>8</ele>
        <time>2026-06-28T20:48:37.000Z</time>
      </trkpt>
      <trkpt lat="43.3777" lon="-1.63782">
        <ele>8</ele>
        <time>2026-06-28T20:48:41.000Z</time>
      </trkpt>
      <trkpt lat="43.3779" lon="-1.63796">
        <ele>8</ele>
        <time>2026-06-28T20:48:45.000Z</time>
      </trkpt>
      <trkpt lat="43.37898" lon="-1.63908">
        <ele>6</ele>
        <time>2026-06-28T20:49:09.000Z</time>
      </trkpt>
      <trkpt lat="43.37963" lon="-1.63972">
        <ele>7</ele>
        <time>2026-06-28T20:49:24.000Z</time>
      </trkpt>
      <trkpt lat="43.38038" lon="-1.64039">
        <ele>9</ele>
        <time>2026-06-28T20:49:39.000Z</time>
      </trkpt>
      <trkpt lat="43.38056" lon="-1.6406">
        <ele>9</ele>
        <time>2026-06-28T20:49:44.000Z</time>
      </trkpt>
      <trkpt lat="43.38068" lon="-1.64079">
        <ele>9</ele>
        <time>2026-06-28T20:49:47.000Z</time>
      </trkpt>
      <trkpt lat="43.38101" lon="-1.64153">
        <ele>7</ele>
        <time>2026-06-28T20:49:58.000Z</time>
      </trkpt>
      <trkpt lat="43.38125" lon="-1.642">
        <ele>6</ele>
        <time>2026-06-28T20:50:06.000Z</time>
      </trkpt>
      <trkpt lat="43.38157" lon="-1.64235">
        <ele>6</ele>
        <time>2026-06-28T20:50:13.000Z</time>
      </trkpt>
      <trkpt lat="43.38198" lon="-1.64273">
        <ele>5</ele>
        <time>2026-06-28T20:50:22.000Z</time>
      </trkpt>
      <trkpt lat="43.38228" lon="-1.64307">
        <ele>5</ele>
        <time>2026-06-28T20:50:29.000Z</time>
      </trkpt>
      <trkpt lat="43.38249" lon="-1.64343">
        <ele>5</ele>
        <time>2026-06-28T20:50:35.000Z</time>
      </trkpt>
      <trkpt lat="43.38264" lon="-1.6439">
        <ele>7</ele>
        <time>2026-06-28T20:50:41.000Z</time>
      </trkpt>
      <trkpt lat="43.38268" lon="-1.6441">
        <ele>8</ele>
        <time>2026-06-28T20:50:44.000Z</time>
      </trkpt>
      <trkpt lat="43.38273" lon="-1.64476">
        <ele>9</ele>
        <time>2026-06-28T20:50:52.000Z</time>
      </trkpt>
      <trkpt lat="43.38277" lon="-1.64582">
        <ele>8</ele>
        <time>2026-06-28T20:51:06.000Z</time>
      </trkpt>
      <trkpt lat="43.38272" lon="-1.64669">
        <ele>6</ele>
        <time>2026-06-28T20:51:17.000Z</time>
      </trkpt>
      <trkpt lat="43.38249" lon="-1.64907">
        <ele>8</ele>
        <time>2026-06-28T20:51:49.000Z</time>
      </trkpt>
      <trkpt lat="43.38252" lon="-1.64947">
        <ele>8</ele>
        <time>2026-06-28T20:51:54.000Z</time>
      </trkpt>
      <trkpt lat="43.38266" lon="-1.65">
        <ele>8</ele>
        <time>2026-06-28T20:52:01.000Z</time>
      </trkpt>
      <trkpt lat="43.38261" lon="-1.65018">
        <ele>8</ele>
        <time>2026-06-28T20:52:04.000Z</time>
      </trkpt>
      <trkpt lat="43.38266" lon="-1.65034">
        <ele>8</ele>
        <time>2026-06-28T20:52:06.000Z</time>
      </trkpt>
      <trkpt lat="43.38279" lon="-1.6504">
        <ele>9</ele>
        <time>2026-06-28T20:52:08.000Z</time>
      </trkpt>
      <trkpt lat="43.38284" lon="-1.65049">
        <ele>9</ele>
        <time>2026-06-28T20:52:10.000Z</time>
      </trkpt>
      <trkpt lat="43.38324" lon="-1.6516">
        <ele>11</ele>
        <time>2026-06-28T20:52:26.000Z</time>
      </trkpt>
      <trkpt lat="43.38328" lon="-1.6519">
        <ele>11</ele>
        <time>2026-06-28T20:52:30.000Z</time>
      </trkpt>
      <trkpt lat="43.38355" lon="-1.65242">
        <ele>12</ele>
        <time>2026-06-28T20:52:38.000Z</time>
      </trkpt>
      <trkpt lat="43.38378" lon="-1.65268">
        <ele>12</ele>
        <time>2026-06-28T20:52:43.000Z</time>
      </trkpt>
      <trkpt lat="43.38387" lon="-1.65282">
        <ele>11</ele>
        <time>2026-06-28T20:52:46.000Z</time>
      </trkpt>
      <trkpt lat="43.38391" lon="-1.65303">
        <ele>9</ele>
        <time>2026-06-28T20:52:48.000Z</time>
      </trkpt>
      <trkpt lat="43.38389" lon="-1.65322">
        <ele>7</ele>
        <time>2026-06-28T20:52:51.000Z</time>
      </trkpt>
      <trkpt lat="43.38383" lon="-1.65339">
        <ele>6</ele>
        <time>2026-06-28T20:52:53.000Z</time>
      </trkpt>
      <trkpt lat="43.38342" lon="-1.65422">
        <ele>5</ele>
        <time>2026-06-28T20:53:06.000Z</time>
      </trkpt>
      <trkpt lat="43.3832" lon="-1.65453">
        <ele>4</ele>
        <time>2026-06-28T20:53:12.000Z</time>
      </trkpt>
      <trkpt lat="43.3832" lon="-1.6547">
        <ele>4</ele>
        <time>2026-06-28T20:53:14.000Z</time>
      </trkpt>
      <trkpt lat="43.38344" lon="-1.65507">
        <ele>4</ele>
        <time>2026-06-28T20:53:21.000Z</time>
      </trkpt>
      <trkpt lat="43.38345" lon="-1.65517">
        <ele>4</ele>
        <time>2026-06-28T20:53:22.000Z</time>
      </trkpt>
      <trkpt lat="43.38341" lon="-1.65526">
        <ele>4</ele>
        <time>2026-06-28T20:53:23.000Z</time>
      </trkpt>
      <trkpt lat="43.3828" lon="-1.65608">
        <ele>3</ele>
        <time>2026-06-28T20:53:38.000Z</time>
      </trkpt>
      <trkpt lat="43.38239" lon="-1.65658">
        <ele>4</ele>
        <time>2026-06-28T20:53:48.000Z</time>
      </trkpt>
      <trkpt lat="43.38228" lon="-1.65678">
        <ele>3</ele>
        <time>2026-06-28T20:53:51.000Z</time>
      </trkpt>
      <trkpt lat="43.38226" lon="-1.6569">
        <ele>3</ele>
        <time>2026-06-28T20:53:53.000Z</time>
      </trkpt>
      <trkpt lat="43.3823" lon="-1.65711">
        <ele>3</ele>
        <time>2026-06-28T20:53:56.000Z</time>
      </trkpt>
      <trkpt lat="43.38267" lon="-1.65817">
        <ele>3</ele>
        <time>2026-06-28T20:54:11.000Z</time>
      </trkpt>
      <trkpt lat="43.383" lon="-1.65899">
        <ele>4</ele>
        <time>2026-06-28T20:54:23.000Z</time>
      </trkpt>
      <trkpt lat="43.3833" lon="-1.65919">
        <ele>6</ele>
        <time>2026-06-28T20:54:29.000Z</time>
      </trkpt>
      <trkpt lat="43.38339" lon="-1.6592">
        <ele>6</ele>
        <time>2026-06-28T20:54:31.000Z</time>
      </trkpt>
      <trkpt lat="43.38351" lon="-1.65915">
        <ele>5</ele>
        <time>2026-06-28T20:54:33.000Z</time>
      </trkpt>
      <trkpt lat="43.38411" lon="-1.65842">
        <ele>4</ele>
        <time>2026-06-28T20:54:47.000Z</time>
      </trkpt>
      <trkpt lat="43.38485" lon="-1.6574">
        <ele>3</ele>
        <time>2026-06-28T20:55:06.000Z</time>
      </trkpt>
      <trkpt lat="43.38501" lon="-1.65722">
        <ele>3</ele>
        <time>2026-06-28T20:55:09.000Z</time>
      </trkpt>
      <trkpt lat="43.38527" lon="-1.6568">
        <ele>3</ele>
        <time>2026-06-28T20:55:17.000Z</time>
      </trkpt>
      <trkpt lat="43.38573" lon="-1.65622">
        <ele>4</ele>
        <time>2026-06-28T20:55:28.000Z</time>
      </trkpt>
      <trkpt lat="43.38581" lon="-1.65621">
        <ele>4</ele>
        <time>2026-06-28T20:55:29.000Z</time>
      </trkpt>
      <trkpt lat="43.38588" lon="-1.65628">
        <ele>4</ele>
        <time>2026-06-28T20:55:31.000Z</time>
      </trkpt>
      <trkpt lat="43.3862" lon="-1.6567">
        <ele>5</ele>
        <time>2026-06-28T20:55:38.000Z</time>
      </trkpt>
      <trkpt lat="43.38628" lon="-1.65667">
        <ele>5</ele>
        <time>2026-06-28T20:55:40.000Z</time>
      </trkpt>
      <trkpt lat="43.38635" lon="-1.65661">
        <ele>5</ele>
        <time>2026-06-28T20:55:41.000Z</time>
      </trkpt>
      <trkpt lat="43.38651" lon="-1.6564">
        <ele>5</ele>
        <time>2026-06-28T20:55:45.000Z</time>
      </trkpt>
      <trkpt lat="43.38651" lon="-1.65636">
        <ele>5</ele>
        <time>2026-06-28T20:55:46.000Z</time>
      </trkpt>
    </trkseg>
  </trk>
</gpx>